GFSSW_850_spd_000.txt.gz
Wind_Speed
17 17 16 17 17 17 17 18 19 18 18 17 18 19 18 19 18 21 27 23 13 14 14 11 8 7 8 6 11 6 3 3 7 8 5 14 4 12 6 16 5 8 17 26 33
17 18 18 18 18 17 18 18 19 20 19 18 18 19 21 22 24 26 24 23 18 16 19 21 14 13 7 6 6 4 2 7 7 6 8 17 14 15 6 16 4 10 18 33 33
17 17 18 18 19 19 19 19 19 21 20 19 18 20 21 22 25 8 2 10 19 23 19 16 10 14 9 6 7 6 6 5 6 14 26 18 14 11 15 6 11 25 33 38 34
20 19 18 18 19 20 20 20 20 20 22 21 20 20 21 19 7 1 2 4 3 17 24 20 17 10 6 6 8 3 13 11 11 14 23 17 17 8 22 7 17 22 38 39 37
18 20 21 20 19 20 20 20 20 20 22 23 22 21 21 12 26 20 15 14 13 16 30 25 19 11 6 6 5 6 4 14 18 22 25 24 13 6 16 6 15 32 37 37 36
22 20 21 23 22 20 20 20 21 21 22 24 25 23 16 7 15 10 10 9 11 17 30 24 14 13 8 5 5 4 4 15 20 17 16 13 8 18 12 17 27 35 36 35 35
23 25 22 22 23 24 22 21 22 21 23 24 25 23 19 33 20 24 19 7 8 18 27 27 8 7 4 1 4 9 6 9 6 8 5 20 2 7 20 26 31 31 34 34 32
21 23 26 26 25 23 23 22 22 23 23 24 22 19 13 19 15 16 11 8 6 11 17 14 15 5 5 2 4 3 5 6 4 8 14 8 6 3 28 29 27 26 28 33 33
23 22 23 24 26 27 22 23 23 23 21 18 13 10 13 9 7 5 9 10 8 7 10 12 10 5 3 5 4 3 7 4 3 8 7 3 4 10 27 27 25 28 28 30 33
26 25 24 23 24 27 24 22 20 16 14 11 12 6 13 11 4 14 6 8 7 10 13 9 6 3 3 4 6 6 6 3 7 9 8 6 4 12 24 24 27 28 28 32 35
26 27 26 23 24 24 24 16 7 4 7 9 12 15 21 17 23 14 7 5 12 6 6 7 4 7 10 9 8 8 7 17 1 3 3 5 5 15 23 21 22 26 28 32 37
25 27 27 21 23 22 13 6 3 5 14 28 34 36 40 35 18 32 17 7 6 6 2 3 9 9 8 6 8 10 7 10 2 4 5 2 3 10 19 24 28 27 28 30 35
24 26 28 24 21 12 14 7 2 12 5 23 17 16 15 20 24 34 16 8 5 7 4 6 4 11 8 5 7 5 10 6 15 5 3 6 3 7 11 17 21 25 30 31 36
25 24 27 27 13 14 9 5 10 14 3 8 5 3 4 8 7 35 21 15 5 12 7 6 7 9 9 11 8 7 8 8 9 9 7 6 5 7 11 17 15 28 29 37 38
26 23 25 25 24 14 9 15 13 2 5 4 3 3 5 10 3 13 24 17 9 6 6 7 5 8 5 8 9 9 8 11 8 8 5 1 2 6 14 12 21 28 33 37 42
29 23 28 24 23 12 5 5 2 4 7 6 3 1 4 4 5 3 17 15 15 6 3 10 6 8 12 5 10 9 7 6 4 4 2 9 9 5 7 24 25 26 33 38 39
30 25 25 26 22 20 13 7 2 4 4 4 2 3 3 5 6 3 8 7 7 7 7 2 7 4 4 5 1 6 6 2 2 2 6 3 4 12 11 16 24 23 39 40 43
32 28 24 22 18 19 8 3 5 5 9 5 4 4 2 5 5 6 5 5 3 5 4 6 6 8 4 8 8 6 9 6 6 5 5 4 8 10 20 19 20 20 34 33 37
32 29 20 12 11 10 11 4 8 7 5 2 5 2 3 4 4 3 4 9 10 10 11 7 8 4 4 5 10 4 4 7 7 2 2 5 8 9 6 7 12 25 28 36 41
33 31 9 8 6 15 3 7 7 6 3 3 2 3 1 3 6 6 3 4 6 11 6 8 1 9 7 3 4 10 9 3 3 5 5 5 4 6 5 11 9 8 26 36 41
26 13 7 7 10 11 4 7 7 16 7 4 4 2 1 2 5 3 6 5 5 5 9 7 5 7 7 12 15 3 4 5 6 5 7 4 6 9 10 12 12 14 33 37 41
14 4 8 11 1 1 3 6 4 4 5 4 1 5 6 6 5 6 8 9 6 6 5 10 10 10 12 4 6 11 11 9 7 6 3 4 7 5 12 6 12 19 28 29 36
18 9 4 11 3 3 5 5 3 3 4 2 4 6 4 6 4 8 8 10 23 7 7 6 5 10 7 5 1 5 5 6 5 4 8 6 6 2 5 7 15 21 24 27 33
7 4 4 6 2 2 5 5 4 6 6 6 5 4 3 5 6 6 4 3 4 3 23 17 6 11 17 15 5 5 7 7 7 5 6 7 7 6 9 9 10 19 22 28 34
4 4 2 4 2 3 2 4 4 4 3 4 4 7 9 7 7 8 10 13 4 5 6 3 12 9 20 9 7 8 7 9 8 7 7 9 10 11 12 13 18 27 25 26 31
4 4 7 8 12 4 2 3 3 4 3 6 6 8 9 9 11 9 9 7 5 3 5 4 6 6 17 13 11 9 8 9 7 3 7 3 8 9 6 8 11 24 28 30 34
4 6 6 6 4 2 3 1 6 11 11 16 9 7 11 8 12 19 17 12 7 7 2 3 1 3 11 7 6 5 16 9 6 6 9 8 13 7 6 9 15 22 29 35 39

GFSSW_850_spd_003.txt.gz
Wind_Speed
16 16 15 15 14 15 16 17 17 17 16 16 16 16 17 18 19 23 27 22 11 13 12 14 13 10 7 4 4 2 2 5 7 9 8 16 9 8 7 14 8 11 9 16 28
16 17 18 18 17 15 14 16 17 17 17 17 17 18 19 20 23 26 23 21 15 15 21 20 15 12 4 2 4 5 3 5 7 10 10 18 14 15 6 14 8 6 11 25 29
16 17 18 19 19 18 16 15 16 17 17 18 17 19 20 20 23 2 8 4 20 18 18 20 13 12 5 5 6 5 8 4 4 10 18 19 14 13 8 13 14 18 23 32 30
15 17 17 18 20 21 20 18 16 17 18 18 18 19 21 19 7 1 9 9 4 23 21 18 15 10 7 8 9 8 9 9 7 13 20 20 18 12 16 7 14 18 28 32 31
17 16 17 19 19 20 20 20 19 18 18 19 19 20 20 12 23 19 13 10 11 14 30 25 22 12 9 8 9 9 10 11 12 19 18 21 20 12 16 7 10 20 29 32 29
21 19 19 18 19 20 20 20 21 21 20 19 20 21 16 11 13 7 9 11 9 15 25 30 17 16 11 7 11 6 7 6 13 15 16 17 10 11 10 9 15 24 31 29 28
22 23 22 21 19 19 19 21 22 22 22 21 20 20 17 32 20 21 17 16 10 14 24 32 12 17 7 5 5 6 4 8 9 19 8 19 7 14 11 14 17 23 28 27 26
20 21 23 24 23 22 19 20 22 23 22 22 19 15 12 18 14 11 9 8 8 10 17 28 15 6 5 3 4 4 5 6 9 16 11 17 13 13 16 21 21 25 26 25 26
24 23 21 22 23 25 21 20 21 21 21 19 13 7 11 7 2 7 6 6 9 13 14 23 19 7 5 6 5 4 8 9 10 13 9 14 6 11 20 22 22 25 26 25 24
25 27 25 23 23 23 21 19 19 17 14 12 11 5 11 6 7 6 3 10 8 13 12 8 6 9 4 10 14 12 9 8 10 12 9 13 8 8 17 22 23 24 24 26 27
22 24 27 23 25 23 18 11 6 4 7 9 11 18 20 14 13 9 5 3 11 10 9 7 9 16 18 16 10 14 14 14 9 11 12 13 12 6 15 20 22 23 24 26 29
23 25 24 21 24 19 9 10 3 3 13 25 31 34 34 21 12 22 17 5 9 10 7 5 16 12 14 14 9 13 17 16 7 11 12 9 14 9 17 24 25 24 25 26 25
24 25 27 21 20 7 17 2 2 10 5 14 11 12 8 13 13 25 17 14 7 11 11 13 6 10 11 12 13 12 17 15 15 9 3 6 12 10 12 21 22 25 26 26 27
24 23 27 24 9 15 5 3 13 12 4 6 4 3 4 6 7 17 23 15 5 15 10 9 10 14 13 17 15 19 15 15 15 12 13 11 12 11 16 17 20 28 30 29 28
26 22 25 24 20 12 7 9 9 1 6 2 3 2 5 7 6 7 21 17 13 9 8 9 11 15 19 19 14 11 9 16 15 16 8 9 6 11 8 16 23 31 34 34 32
28 23 27 23 20 10 1 8 1 3 8 3 3 3 2 7 3 5 14 11 14 11 5 14 3 14 14 14 17 10 10 5 5 9 10 15 13 10 9 15 24 28 34 36 34
28 24 22 25 18 15 10 3 4 6 2 4 3 2 7 3 4 7 15 15 12 15 16 14 16 7 10 16 15 14 11 6 8 7 9 7 11 17 11 19 23 20 36 39 36
31 27 22 18 16 14 7 3 10 6 13 0 3 4 4 2 4 10 12 18 18 15 12 14 14 20 15 17 14 21 21 12 15 10 12 5 11 8 16 22 20 20 22 31 36
31 28 18 10 9 8 10 10 8 9 4 3 2 5 6 1 4 7 11 18 20 20 15 12 17 6 13 8 18 11 14 18 18 1 6 6 6 10 13 14 12 21 20 29 36
30 29 12 6 9 15 6 13 9 7 3 3 7 4 3 1 3 2 7 7 12 19 19 12 7 20 12 17 15 13 13 11 7 19 19 9 6 8 6 12 12 12 24 32 34
24 13 5 5 11 10 7 8 12 15 8 9 10 8 4 2 4 3 3 2 6 16 21 18 14 7 12 20 24 11 11 4 6 8 15 15 14 8 14 15 13 15 26 28 32
12 4 5 11 4 4 6 4 3 6 14 15 6 7 9 7 8 6 7 7 5 10 11 14 11 14 21 3 13 21 21 20 13 12 6 9 13 4 15 16 15 18 16 19 28
14 9 7 13 5 6 4 5 5 7 7 7 14 13 8 6 6 10 9 9 13 2 9 9 7 12 15 18 14 11 20 22 18 14 18 15 13 3 6 12 17 16 14 13 21
6 4 3 5 3 2 4 5 5 4 7 7 6 7 6 7 8 6 4 4 3 6 8 11 8 11 15 19 16 14 13 19 20 16 16 16 18 10 10 13 16 19 21 14 19
3 3 4 4 1 8 3 4 8 5 3 4 5 12 10 9 14 16 15 17 17 14 4 7 6 16 23 25 24 22 21 17 20 25 18 19 18 17 16 16 21 25 15 14 19
4 4 6 9 14 7 4 3 4 4 3 8 6 10 8 6 11 13 12 14 11 3 5 2 1 2 16 22 24 26 24 18 22 23 19 12 12 13 12 14 12 20 18 19 24
5 6 5 8 5 4 4 4 3 7 7 14 10 9 10 10 5 15 17 18 9 4 4 5 2 6 8 10 16 22 25 21 14 14 16 15 10 7 7 11 20 22 21 25 29

GFSSW_850_spd_006.txt.gz
Wind_Speed
13 14 14 14 14 15 16 17 16 14 14 14 15 16 16 17 18 21 22 14 12 10 11 11 11 9 8 8 6 4 6 4 6 4 11 15 10 9 7 14 9 12 9 21 26
15 14 14 14 14 15 16 17 17 16 15 15 14 16 18 19 20 22 18 20 16 14 17 16 14 12 10 7 6 8 7 5 4 1 13 17 12 15 10 14 11 12 11 26 27
16 17 16 15 15 15 15 16 17 18 16 16 17 16 17 19 19 6 4 6 15 17 14 16 12 12 13 10 9 7 11 6 2 1 12 20 14 13 11 12 14 18 19 29 28
16 17 18 18 17 16 16 15 16 17 18 18 17 18 18 16 6 2 7 15 8 18 16 19 17 17 13 12 12 10 11 11 8 7 12 18 18 13 12 4 14 16 23 31 29
18 18 18 19 19 19 18 17 17 17 17 19 18 18 19 11 18 17 16 10 8 12 21 23 22 21 16 12 11 12 12 10 11 9 12 16 17 11 14 9 13 18 24 30 28
19 20 20 19 19 19 20 21 18 18 17 18 19 18 15 17 10 10 6 7 4 18 21 24 20 23 12 13 11 5 8 10 11 10 13 14 12 13 14 14 14 21 26 28 28
20 21 22 22 22 20 20 21 23 20 20 18 18 17 15 23 13 19 17 10 11 17 19 27 21 21 16 11 15 10 11 5 9 13 10 15 11 14 13 16 15 21 23 27 27
19 20 21 23 23 23 20 21 22 22 21 19 16 12 11 12 15 13 11 12 10 15 19 17 27 18 21 9 8 14 13 12 10 16 10 16 12 16 17 19 17 20 23 27 27
23 22 19 19 20 23 22 21 22 21 20 17 10 5 9 8 6 5 9 11 11 13 10 15 21 21 20 15 15 15 14 13 11 15 7 16 6 16 17 19 18 19 24 26 25
22 24 22 20 20 19 18 19 18 18 14 9 9 6 11 6 10 3 6 12 13 17 12 20 17 15 15 17 17 18 17 11 13 15 12 17 9 6 15 19 19 21 23 25 27
23 24 23 22 21 19 12 10 7 5 7 12 9 16 9 6 7 6 7 16 12 20 14 22 19 21 23 22 20 18 15 13 15 14 17 15 13 11 12 17 19 21 24 25 27
24 26 24 20 21 14 9 7 3 4 15 21 30 31 28 15 12 22 17 18 17 18 18 16 23 22 23 22 24 21 18 17 14 9 15 12 14 12 13 18 21 24 25 26 25
24 26 26 22 16 4 11 2 2 9 9 13 14 13 11 21 19 19 30 25 20 21 21 19 19 21 20 22 24 23 21 18 16 11 15 11 14 14 16 17 20 23 26 27 28
23 25 26 24 7 14 3 4 12 8 6 6 7 7 9 8 9 15 34 30 18 23 21 20 19 23 17 24 22 24 23 18 14 12 13 16 12 14 15 15 17 25 28 29 30
26 23 25 23 19 8 7 7 8 1 6 8 9 7 8 10 4 7 24 32 22 19 21 20 23 21 23 23 25 24 22 19 18 15 18 15 11 13 6 14 19 26 31 33 33
26 21 26 21 19 10 5 4 0 7 9 7 9 12 11 13 5 5 17 26 22 20 17 23 19 20 21 22 22 20 18 13 17 15 18 23 15 15 12 14 16 19 29 33 33
28 24 20 22 10 10 8 3 6 10 4 10 10 14 11 7 9 11 18 22 19 20 20 20 21 17 20 22 23 22 18 11 15 15 15 19 19 16 11 12 15 16 21 30 33
28 27 21 21 16 15 9 8 14 5 18 4 5 11 13 9 9 15 17 20 25 22 14 18 20 26 17 28 26 28 26 16 24 15 14 21 17 18 18 21 26 19 17 23 33
28 24 20 12 10 14 15 15 10 16 10 14 14 15 16 14 7 10 19 20 24 25 23 19 25 23 25 18 27 29 26 26 25 20 16 18 14 22 16 15 18 17 16 21 30
30 22 16 10 12 13 11 25 21 16 10 13 17 12 14 17 13 13 16 16 20 25 22 15 14 23 22 21 26 29 22 24 21 26 24 20 19 12 18 18 17 14 18 22 26
17 10 5 9 11 16 15 23 23 31 19 18 19 20 14 15 15 11 8 11 16 20 21 22 13 14 22 27 27 21 24 21 23 23 20 18 19 17 16 16 16 14 17 20 23
10 5 4 5 11 14 17 20 19 19 30 25 18 21 20 16 16 14 12 9 11 17 25 22 15 15 17 27 29 26 26 26 18 27 21 22 20 16 14 18 24 26 21 14 17
10 14 10 11 8 13 16 17 18 23 22 23 28 22 18 18 20 17 17 14 12 11 15 20 19 14 19 18 16 27 32 29 27 21 26 20 18 18 11 13 16 15 17 11 12
9 4 8 11 19 13 17 14 19 20 21 25 21 21 23 23 19 10 13 14 12 18 7 9 19 22 17 21 20 25 26 30 30 23 24 27 22 21 19 17 18 19 20 14 12
9 5 2 5 7 7 13 15 15 15 15 18 22 22 20 20 21 21 17 10 10 9 6 9 16 17 22 22 20 24 28 28 31 32 29 23 29 25 23 21 20 25 23 16 16
8 7 6 14 17 14 12 13 14 15 9 16 17 21 21 20 19 17 21 18 17 14 15 13 12 13 21 23 25 23 26 28 27 28 30 32 31 23 30 32 31 30 28 21 22
9 10 9 11 8 7 11 11 8 9 12 18 15 11 8 8 8 11 12 15 14 12 14 15 13 10 17 18 22 24 27 27 29 27 25 25 27 30 26 22 29 31 26 24 25

GFSSW_850_spd_009.txt.gz
Wind_Speed
16 16 16 16 16 16 17 17 16 15 16 16 17 17 17 18 18 20 14 14 11 11 14 9 12 13 12 16 16 13 6 3 7 18 15 13 13 9 12 17 14 6 19 25 27
16 17 17 17 18 18 17 18 17 16 16 16 16 18 18 20 20 22 20 21 22 17 16 17 16 14 17 15 15 8 7 8 9 21 17 11 14 14 13 16 15 10 23 27 27
17 17 17 16 17 18 18 18 19 18 17 16 16 17 19 19 22 10 9 3 12 20 17 18 16 16 19 19 15 15 14 20 10 7 13 14 12 13 14 13 18 17 24 28 27
15 16 18 19 18 18 19 19 19 20 19 18 17 16 17 15 7 0 6 9 6 18 19 20 21 20 20 16 16 13 8 8 2 10 4 13 15 11 9 15 17 18 23 28 28
17 17 17 19 19 20 20 21 20 20 21 20 19 16 17 11 19 18 16 17 10 14 21 23 25 23 20 18 16 11 11 6 6 9 9 15 15 12 10 10 16 19 24 28 27
20 19 19 19 19 20 20 21 21 20 20 21 20 18 16 20 11 7 7 6 10 16 22 23 23 23 21 23 17 13 13 11 6 11 11 10 15 12 15 12 18 21 25 26 26
21 22 22 21 21 20 20 22 22 21 20 20 19 17 14 23 8 9 12 11 11 15 20 25 25 21 23 20 21 15 12 14 10 9 11 14 14 14 21 16 20 21 23 25 26
21 21 22 22 23 23 21 21 21 21 20 18 16 11 13 11 13 17 15 15 15 17 20 19 24 26 22 22 26 18 18 16 14 13 13 17 17 17 18 21 20 21 23 25 26
23 23 24 22 21 22 23 22 20 19 19 17 9 6 16 10 11 11 16 17 16 15 17 19 18 27 22 18 17 18 17 21 13 16 14 16 9 17 19 21 20 22 23 25 26
26 23 26 24 23 21 19 19 18 19 16 9 10 8 19 14 10 9 10 15 17 16 16 20 19 18 20 19 18 19 21 20 20 17 13 16 6 18 19 20 20 22 23 25 27
28 26 26 24 23 21 16 9 9 5 14 18 13 13 6 9 9 11 11 14 18 20 18 24 18 23 26 26 23 23 21 19 15 24 19 18 15 15 16 17 19 24 24 26 27
28 28 26 25 21 14 10 8 7 8 16 24 34 35 31 19 17 20 13 17 20 19 21 17 24 24 24 26 24 28 23 19 14 17 21 18 19 19 19 16 18 22 26 27 28
26 28 27 23 15 5 13 7 3 13 10 22 31 33 33 29 33 26 26 25 18 22 23 24 21 24 25 25 27 25 25 19 17 27 22 16 17 17 15 23 19 20 23 28 30
27 26 27 25 6 11 5 3 9 11 7 13 10 12 18 18 18 29 29 33 25 23 24 25 21 25 28 28 26 25 25 24 19 12 12 19 15 21 19 20 19 23 25 27 30
28 24 27 18 18 9 7 8 10 5 7 9 12 12 20 21 14 21 27 33 26 22 18 25 25 24 29 30 29 26 24 24 23 17 23 24 17 11 21 21 21 21 26 28 30
27 26 24 14 14 15 13 9 6 7 14 9 11 14 19 23 16 12 20 32 30 22 23 25 25 26 23 27 23 24 23 24 23 18 18 22 17 19 16 18 17 23 28 28 29
28 25 23 22 11 3 5 6 7 12 3 11 16 19 21 18 20 14 18 25 23 24 23 23 28 23 25 24 25 29 24 16 19 18 19 21 19 20 16 16 18 17 24 30 31
32 27 20 18 13 14 8 9 16 12 28 1 17 20 24 19 19 20 17 21 28 24 17 21 20 29 22 28 28 32 28 20 24 18 18 23 23 22 18 13 14 17 16 18 29
32 22 19 15 16 15 18 16 14 22 18 19 13 20 24 23 19 20 22 22 25 26 25 19 25 18 29 26 27 30 29 28 27 24 20 21 26 23 10 17 18 19 23 15 24
28 23 22 12 14 16 14 30 23 32 15 16 24 20 21 24 20 20 20 22 24 27 26 20 18 22 24 26 26 34 24 27 22 28 26 24 23 18 21 19 18 14 21 17 20
19 11 6 4 9 19 17 25 28 46 38 27 23 25 27 24 26 25 24 23 21 24 26 25 19 16 23 30 30 20 27 23 26 24 21 20 19 20 15 14 19 21 28 22 19
16 7 3 4 13 15 19 27 31 31 32 30 24 27 25 25 22 20 20 25 21 20 27 25 16 16 22 24 25 29 28 32 19 29 21 22 19 13 16 19 16 17 18 20 21
14 21 22 18 14 15 22 29 31 31 31 31 28 30 26 27 24 23 20 20 10 16 20 21 19 17 22 21 23 28 29 31 33 23 26 22 21 23 15 13 17 16 22 29 11
12 7 18 21 23 21 23 26 24 29 26 26 26 26 27 31 26 23 25 22 21 15 2 10 21 23 18 22 19 25 30 31 29 23 23 27 26 24 23 14 12 18 14 15 9
10 13 13 11 12 10 15 21 19 21 28 27 23 31 28 29 26 27 26 20 28 23 20 17 20 23 26 25 19 23 27 28 32 31 28 26 30 27 26 23 21 27 21 24 22
9 10 13 20 25 20 18 20 20 19 17 24 23 23 26 26 24 25 27 24 20 24 22 21 19 19 22 24 24 25 22 28 29 31 33 32 32 25 29 34 23 24 24 24 24
13 17 13 12 17 15 13 21 26 14 11 23 13 17 20 14 20 22 23 26 24 18 23 22 18 18 21 22 21 23 28 26 24 26 27 28 30 28 29 25 25 33 30 30 32

GFSSW_850_spd_012.txt.gz
Wind_Speed
17 17 17 17 17 17 18 19 18 18 16 17 19 19 19 21 21 23 22 13 13 16 16 10 11 17 19 17 19 24 7 5 7 9 13 11 12 15 20 22 24 4 30 30 29
18 18 18 18 18 18 19 19 19 19 19 18 18 19 19 22 25 28 22 15 15 18 17 15 19 16 21 19 23 5 6 7 19 6 10 15 16 13 13 15 15 28 29 30 30
18 19 19 19 19 19 20 19 20 20 20 19 18 19 18 20 24 9 8 16 18 22 23 18 20 20 22 19 22 14 9 18 23 21 16 9 19 13 20 12 17 34 31 30 32
20 20 20 20 20 20 21 20 20 20 20 19 19 19 19 16 6 3 2 8 5 15 21 21 23 23 19 17 21 10 21 24 8 19 19 14 20 13 17 17 23 26 28 30 29
21 21 20 20 21 21 22 22 21 21 20 19 19 19 18 12 27 19 16 15 16 11 22 23 25 24 20 18 22 16 21 17 6 9 11 10 17 16 10 23 23 25 29 30 28
22 22 22 22 22 22 22 22 23 21 20 20 18 18 15 19 10 11 11 12 11 15 21 24 22 22 24 22 21 20 13 14 13 9 14 18 18 18 15 20 25 27 30 30 28
24 24 23 23 24 24 23 22 23 22 21 19 18 17 15 32 11 9 8 13 10 15 20 23 23 22 24 20 25 26 19 9 11 11 9 13 17 12 23 19 24 25 28 29 28
24 24 24 23 24 26 26 23 23 21 21 20 16 13 14 20 16 21 17 17 15 16 17 19 21 24 24 22 24 22 20 16 18 17 11 15 11 12 26 20 23 25 27 29 28
25 25 24 24 24 24 24 23 24 21 20 19 11 7 17 10 19 19 19 21 18 17 18 18 21 24 23 19 18 21 18 21 21 13 17 14 16 5 18 22 25 26 27 28 28
28 27 26 25 24 25 22 19 20 20 16 12 13 9 25 19 14 15 15 20 20 18 19 20 21 16 18 17 16 19 21 19 18 18 18 19 12 13 24 15 24 27 27 28 29
29 29 28 25 23 22 19 13 11 6 7 17 12 16 15 14 17 15 13 18 20 20 18 23 16 20 24 24 23 22 20 22 15 10 17 22 13 10 38 32 25 27 28 29 29
32 31 30 26 21 13 10 8 13 12 18 25 36 36 35 16 14 19 16 17 21 18 20 19 23 24 23 25 26 27 26 24 14 21 20 19 26 31 31 31 28 29 28 29 29
32 32 31 27 14 6 13 17 12 14 13 25 39 41 42 33 29 24 23 23 16 22 22 23 22 23 24 25 27 27 26 23 20 20 22 17 18 23 28 26 25 28 30 29 32
31 31 31 30 4 8 9 7 10 13 7 11 21 26 35 35 36 36 31 29 20 22 23 24 24 24 26 27 27 26 26 27 25 15 12 16 12 4 18 21 21 27 29 32 33
28 27 29 17 22 16 10 12 15 8 7 4 17 6 18 36 6 36 39 34 27 24 19 23 25 26 26 28 28 26 26 26 25 12 18 20 12 12 26 20 25 21 30 31 35
28 25 25 17 14 11 11 15 10 7 11 7 12 12 18 26 30 11 34 36 32 27 25 25 25 27 26 22 27 25 25 25 22 19 17 22 15 21 17 22 20 24 30 31 33
29 25 20 21 20 9 5 8 6 11 8 14 16 15 21 21 27 17 23 27 22 24 25 25 26 25 24 25 25 28 23 16 17 17 16 19 21 13 23 23 20 4 29 33 32
30 29 21 18 16 8 8 8 16 12 28 16 15 19 21 22 25 24 22 22 27 26 18 21 20 27 22 28 24 26 26 16 21 17 19 22 20 16 23 23 21 40 65 37 39
32 26 25 16 16 14 17 15 11 19 19 20 23 20 23 25 24 26 27 23 25 29 25 20 24 19 30 23 26 26 25 27 26 23 17 18 23 22 17 23 20 25 22 27 37
31 28 22 13 16 21 14 29 17 25 25 22 23 22 26 25 27 27 27 27 25 28 28 24 18 23 22 24 28 29 18 23 20 25 25 21 21 13 19 19 17 11 16 19 20
21 16 20 7 14 19 17 24 26 42 40 29 29 30 28 25 28 28 28 24 27 25 27 26 22 19 24 26 26 18 22 23 20 21 17 17 17 15 17 16 20 21 29 23 17
18 9 2 7 14 16 18 27 32 31 41 31 29 33 31 30 28 28 30 27 24 21 29 26 17 19 25 24 27 29 27 27 17 21 19 20 16 16 9 20 17 15 22 20 30
16 25 25 25 15 16 24 30 31 28 29 32 32 31 29 30 28 30 29 27 29 27 25 20 21 16 24 23 23 30 27 24 24 21 24 18 17 20 6 12 16 17 22 25 12
10 6 20 22 31 24 23 26 27 33 24 28 27 24 32 32 29 29 28 29 24 22 7 14 18 27 18 21 18 24 29 28 26 18 20 22 19 27 9 16 15 16 26 22 18
7 8 18 12 18 21 13 23 18 24 28 25 22 21 19 21 29 29 30 30 27 23 14 15 17 21 28 28 25 26 27 27 26 24 23 20 26 20 23 15 20 21 24 22 15
6 12 15 22 27 24 19 17 25 23 23 19 19 20 21 19 14 18 22 27 25 25 19 21 17 18 22 24 27 26 26 27 28 29 27 25 26 21 23 26 18 21 30 21 21
11 17 11 13 16 16 18 20 19 23 18 25 19 11 21 17 29 37 36 36 29 23 21 20 16 16 20 24 24 24 28 22 21 24 24 22 23 19 20 16 14 16 16 23 24

GFSSW_850_spd_015.txt.gz
Wind_Speed
18 18 17 17 18 18 18 18 18 18 17 19 20 20 20 22 22 26 29 23 15 14 16 9 9 9 15 27 32 10 4 3 11 11 4 14 25 24 36 41 32 12 39 40 38
19 19 19 19 19 19 19 19 19 19 18 18 19 19 20 23 26 30 23 19 19 14 14 18 15 16 20 20 29 7 5 12 14 7 6 19 27 25 25 28 13 38 31 44 40
20 20 20 20 20 20 20 20 20 20 19 19 19 18 18 20 25 9 9 11 18 18 17 17 16 19 23 27 23 10 6 11 11 22 24 18 20 27 29 14 35 41 41 45 38
21 21 20 20 20 21 21 21 22 21 20 19 19 18 17 15 5 2 8 6 5 11 21 23 21 22 13 13 28 5 14 15 20 21 9 13 23 21 26 29 39 47 46 44 38
23 23 22 22 21 22 23 23 23 22 21 20 20 18 16 9 28 15 15 12 10 13 15 26 23 22 12 16 22 13 14 25 26 24 28 22 20 22 21 41 43 41 39 43 36
25 25 23 24 23 23 22 22 23 24 22 21 20 18 14 11 18 7 16 22 19 15 17 22 16 24 17 19 14 23 20 21 16 34 26 17 5 19 34 44 44 41 36 38 38
26 26 25 25 26 25 24 23 21 22 22 21 20 19 19 36 9 8 14 13 9 16 15 20 25 23 19 12 29 24 14 16 13 6 12 32 17 6 35 40 41 39 36 31 32
29 28 26 24 25 26 26 25 23 21 20 20 18 17 17 28 22 15 24 19 16 11 14 17 17 25 23 20 22 13 9 6 10 10 10 12 8 12 32 39 36 37 36 32 30
32 32 29 26 26 26 25 22 21 21 19 18 12 10 18 12 17 23 21 21 19 17 21 13 19 25 19 7 7 7 9 11 13 9 7 9 7 20 30 36 35 38 37 35 33
30 31 32 28 25 26 25 19 14 16 11 8 10 6 22 21 16 14 18 27 24 20 19 20 20 7 8 7 10 9 7 11 14 10 16 12 7 6 21 31 34 37 38 38 38
33 33 31 29 24 23 22 15 10 4 3 9 9 14 28 19 14 18 22 20 21 24 11 21 7 16 12 14 11 14 14 16 19 10 9 8 13 12 17 16 19 35 37 39 41
32 33 33 29 24 13 11 11 14 18 18 24 34 43 42 24 16 20 23 21 20 14 9 10 18 11 12 11 17 20 19 19 15 10 10 13 14 15 14 18 20 32 37 40 41
30 31 32 30 15 5 10 15 18 19 10 23 36 32 44 38 34 27 27 24 10 13 14 17 9 17 18 17 18 21 20 17 11 8 7 11 3 2 9 5 16 21 41 43 45
29 28 29 33 6 9 7 11 8 17 5 8 9 13 23 33 14 40 34 23 14 16 15 12 17 19 22 21 19 18 22 22 20 14 7 16 5 3 5 2 11 24 33 41 44
30 28 26 21 26 18 15 10 12 14 6 6 9 9 15 29 11 33 39 28 18 17 9 17 16 20 19 22 19 20 14 21 22 15 7 20 1 13 15 20 27 24 40 41 45
32 28 27 23 22 16 11 6 11 2 9 7 10 8 13 24 18 4 42 39 25 15 14 17 17 17 18 15 21 15 14 16 18 13 11 16 16 6 18 24 25 26 36 40 42
33 30 25 25 24 11 14 8 2 7 8 7 6 11 14 13 21 23 20 26 22 16 19 16 20 21 16 17 13 18 8 12 10 12 8 11 14 11 15 21 28 24 25 25 15
36 30 26 24 23 5 4 3 11 9 13 18 8 13 14 14 17 21 14 22 24 17 7 14 17 23 14 19 15 15 15 12 12 12 9 8 14 9 15 22 35 33 35 40 49
37 32 24 18 10 8 13 9 6 9 9 13 18 12 16 15 12 18 18 20 21 23 19 14 16 9 23 20 17 11 18 15 5 8 6 7 9 11 17 13 18 28 43 46 44
34 31 25 3 8 22 11 16 7 12 23 20 9 8 12 16 16 17 20 19 22 27 22 11 7 18 19 22 17 19 7 12 14 14 17 16 10 10 6 17 16 16 26 36 22
23 14 5 11 16 19 16 12 17 29 29 11 16 25 24 25 19 22 17 23 25 23 25 23 15 18 10 17 22 13 16 11 7 12 12 9 15 7 9 17 16 18 31 39 43
12 5 13 24 9 9 14 16 24 25 32 25 20 25 26 26 28 25 24 20 17 26 21 22 15 15 24 18 21 21 10 12 9 6 4 9 14 9 13 8 25 32 37 44 40
14 20 19 10 5 8 12 20 24 22 21 22 25 22 20 24 24 22 25 29 30 20 23 13 17 10 14 13 17 20 19 11 17 5 12 4 11 18 17 7 5 6 12 27 24
8 5 11 27 13 13 15 12 15 23 20 25 19 19 17 20 18 19 24 21 30 24 25 11 14 27 17 12 6 8 22 20 15 14 16 21 15 20 7 9 9 24 26 23 19
5 5 15 7 13 20 15 6 16 14 12 18 13 17 21 14 23 18 14 18 23 26 14 5 18 16 21 16 16 24 16 24 22 18 14 10 16 12 10 10 10 27 28 24 23
5 6 8 18 19 17 17 15 16 19 11 15 18 11 18 11 17 19 21 15 12 16 15 14 10 9 10 8 24 20 18 19 24 23 19 18 22 7 6 22 11 16 29 29 15
9 12 8 5 10 9 11 18 18 17 7 10 19 12 15 16 11 26 31 32 25 26 23 10 6 4 9 7 6 15 26 19 11 17 16 18 19 8 11 8 8 23 22 24 31

GFSSW_850_spd_018.txt.gz
Wind_Speed
18 18 18 18 18 18 18 18 18 18 17 18 18 17 17 20 21 23 28 23 18 21 13 10 15 16 20 17 11 4 3 4 4 2 9 23 18 20 17 33 17 6 32 39 38
19 19 19 19 19 19 19 19 19 19 19 19 19 18 18 20 23 26 14 14 20 22 22 22 16 20 20 14 11 6 3 6 9 3 8 27 30 26 19 27 14 30 35 38 40
20 20 20 20 21 20 20 20 20 20 20 20 19 18 17 18 21 3 10 3 22 27 21 12 17 18 22 20 16 14 10 9 21 19 18 28 30 31 33 15 38 40 42 44 42
24 23 22 22 22 22 22 21 21 21 20 20 20 18 17 15 6 3 2 6 10 22 18 16 18 13 5 8 19 9 24 25 34 12 19 22 32 22 36 20 42 48 50 49 46
25 25 24 23 23 23 23 23 22 21 21 20 20 18 16 12 28 13 11 2 10 18 18 19 19 17 6 7 6 8 9 23 26 25 9 28 25 29 24 30 37 44 44 47 45
24 24 25 25 24 24 24 22 22 22 22 21 19 18 14 11 17 6 11 19 18 18 16 18 17 26 8 11 7 9 13 16 25 28 17 9 13 24 25 43 38 47 44 43 44
26 25 25 25 25 26 26 24 23 22 22 21 20 18 20 37 8 7 6 11 10 19 22 17 21 15 4 8 14 15 7 11 13 31 4 23 7 14 41 47 45 45 43 45 44
30 30 28 26 26 25 25 24 24 23 20 20 19 16 19 24 19 22 25 23 17 19 15 10 14 24 19 18 12 5 2 5 7 10 17 16 13 14 40 45 42 43 42 42 44
29 30 30 28 26 25 25 23 22 19 17 15 13 10 17 13 19 18 26 24 21 16 21 12 16 22 11 4 5 4 6 6 12 13 12 3 6 12 41 43 41 40 42 41 45
30 31 30 27 25 24 23 19 13 10 5 4 8 6 17 15 5 8 22 28 24 20 24 21 12 5 1 4 6 6 4 6 7 4 7 4 6 18 39 37 37 40 39 39 39
32 32 32 28 24 22 17 11 10 3 15 15 17 18 24 13 12 12 19 29 24 17 8 13 4 12 9 7 6 5 6 8 14 5 6 17 15 23 35 34 34 35 36 37 42
32 32 33 30 27 14 7 9 13 16 18 23 32 42 44 36 12 11 23 23 14 11 6 4 12 7 8 7 9 10 12 18 12 7 5 8 22 20 23 33 42 39 36 39 39
33 32 34 32 21 4 9 5 14 19 7 16 31 31 32 30 24 32 11 30 9 9 9 12 8 13 10 11 10 14 15 19 10 6 1 8 3 7 11 17 26 33 41 42 46
34 33 34 35 7 22 9 9 12 10 4 8 7 10 18 14 11 42 28 28 6 18 12 8 14 12 18 14 11 10 12 19 10 2 4 4 4 6 9 9 20 34 36 40 43
32 31 31 26 30 26 19 12 8 2 5 3 5 3 14 19 10 25 40 23 15 9 8 8 17 17 15 16 16 13 9 14 13 9 2 8 2 7 11 12 15 22 35 39 44
34 29 28 27 29 16 17 10 2 4 8 7 6 7 8 8 3 4 25 25 9 8 10 11 15 13 15 13 18 14 6 9 3 9 7 14 13 6 8 20 19 28 37 44 44
36 34 23 30 27 19 17 8 3 5 4 4 5 7 3 8 7 2 20 16 14 7 11 10 17 7 8 9 9 8 7 6 6 7 11 10 7 11 16 17 23 24 29 39 49
37 35 29 25 29 19 6 3 6 5 9 7 10 12 5 4 7 7 7 17 14 5 4 11 12 14 8 17 10 9 13 9 10 4 5 5 8 11 15 29 41 42 34 37 43
37 34 28 18 8 6 4 4 7 6 6 12 11 4 7 8 13 7 14 16 15 18 12 8 12 3 19 11 15 11 7 13 6 3 1 5 7 6 8 18 23 27 26 37 47
34 26 23 13 11 8 2 5 6 3 12 9 3 3 10 13 9 17 5 7 13 23 22 11 4 9 21 15 20 11 7 4 1 12 15 5 6 8 7 10 16 22 31 42 51
28 14 12 7 22 8 6 7 6 30 14 8 14 14 16 11 9 10 10 15 7 9 22 20 8 10 3 11 15 8 10 2 4 6 10 4 15 8 11 9 12 25 47 49 49
12 4 23 22 7 2 5 6 13 18 32 12 10 18 16 16 17 10 12 9 26 17 9 12 14 16 23 10 11 21 13 11 8 9 6 15 24 3 9 10 10 26 40 50 58
17 13 20 19 4 6 10 9 8 11 8 7 5 7 8 5 6 8 8 12 24 14 8 10 6 10 7 8 2 7 14 16 6 4 16 8 6 7 6 5 8 15 18 29 36
7 4 7 10 9 9 8 7 11 14 9 4 5 4 7 2 2 6 12 10 31 23 23 14 7 12 19 21 6 6 12 14 19 13 13 19 6 6 5 4 6 15 36 33 36
3 4 7 4 6 9 9 8 10 10 11 7 4 10 4 4 6 5 4 12 12 7 14 8 6 7 15 19 20 11 11 19 20 23 20 19 10 10 9 9 12 20 26 36 32
4 4 6 12 11 6 4 3 8 12 8 7 5 11 3 3 10 16 11 4 4 7 11 6 5 8 8 16 25 22 19 21 18 21 21 10 8 10 14 22 14 20 24 23 34
9 10 9 6 5 3 3 7 14 17 9 11 15 8 11 13 15 14 21 19 14 6 5 4 4 9 6 7 20 14 31 20 13 13 14 12 10 10 9 10 12 18 17 27 32

GFSSW_850_spd_024.txt.gz
Wind_Speed
17 17 17 16 16 16 16 17 18 17 16 16 16 17 18 19 19 22 27 21 15 21 13 27 24 21 22 14 6 1 3 3 4 3 2 14 5 13 5 19 7 11 11 28 37
19 19 18 18 18 17 17 18 19 18 17 17 16 17 17 19 22 26 22 21 20 18 24 34 31 28 13 9 8 5 4 6 5 3 3 10 14 16 6 17 3 8 16 37 37
23 22 21 20 20 19 19 18 18 19 19 17 17 16 16 16 20 6 1 7 18 22 20 30 27 22 9 9 10 7 6 5 5 8 11 12 10 12 15 7 13 26 37 43 40
23 23 24 24 23 23 21 20 19 19 19 19 16 16 15 11 6 3 3 3 17 28 30 29 28 11 7 6 12 3 13 14 6 1 14 11 13 9 21 7 19 27 48 47 44
25 24 23 25 25 24 24 23 21 19 18 18 18 15 14 11 27 12 5 1 20 33 35 31 31 12 7 6 10 8 8 13 23 10 16 16 19 10 21 6 14 34 44 46 44
25 25 25 26 26 26 26 26 26 22 19 18 18 16 15 8 13 8 19 13 16 34 30 34 22 24 3 4 8 6 18 22 14 13 10 15 15 14 15 10 26 38 39 40 42
28 28 29 28 29 28 27 27 26 23 21 19 17 17 20 30 9 7 13 24 13 30 32 32 15 22 9 4 12 15 7 6 10 11 9 19 3 17 13 23 31 34 39 37 39
31 30 31 32 32 32 28 28 21 21 20 17 14 17 14 9 22 31 11 19 25 20 27 28 27 16 5 3 5 2 1 2 2 8 7 20 18 19 25 32 29 32 34 37 37
32 33 33 32 33 35 23 22 16 15 13 9 8 12 10 11 21 23 33 21 23 19 21 14 24 11 6 3 4 3 5 6 4 10 3 8 9 12 30 34 29 31 32 36 34
33 34 34 34 34 24 25 16 8 7 3 3 5 4 15 6 3 11 22 32 23 24 15 15 9 4 3 5 11 5 4 4 4 3 6 12 6 8 31 32 30 34 32 34 37
33 35 34 33 32 21 23 7 7 2 6 11 4 7 3 9 7 7 13 27 18 20 8 10 5 13 10 6 5 6 4 3 3 2 4 13 8 9 24 26 26 31 33 35 42
34 35 36 31 31 18 11 11 12 12 16 21 30 40 29 6 3 14 15 19 13 7 9 4 20 10 9 9 8 6 6 7 4 7 2 3 9 7 15 28 35 36 35 38 37
34 34 36 32 22 19 5 14 18 20 6 15 20 20 26 31 20 22 22 16 6 9 17 18 6 11 12 7 9 6 11 5 4 2 1 3 6 5 15 11 23 28 35 38 39
35 34 35 37 12 27 4 14 19 12 3 7 5 5 12 11 8 35 29 20 5 21 8 8 6 13 8 12 10 8 8 7 7 4 4 5 5 5 6 19 18 26 34 35 37
34 33 33 34 31 24 12 17 14 2 6 1 2 7 12 10 0 13 32 17 10 9 9 10 13 15 12 9 8 10 7 8 5 6 2 4 1 6 8 10 16 21 32 37 43
34 32 37 31 23 20 23 14 1 3 9 4 4 1 4 5 3 5 18 9 10 6 1 9 6 13 11 7 9 7 4 5 5 4 5 9 8 5 7 15 18 21 33 34 36
33 32 34 14 26 22 20 6 3 5 6 5 4 5 5 4 3 4 10 13 11 7 9 5 16 3 6 7 4 5 8 2 2 3 10 9 8 15 8 15 18 25 39 38 40
33 32 21 14 23 24 8 3 5 2 4 4 5 7 3 8 4 5 9 16 5 5 6 9 6 16 5 9 9 8 9 6 8 5 6 7 9 6 13 16 28 35 40 40 40
32 29 15 21 24 19 8 1 4 3 6 10 8 4 4 5 2 4 4 2 7 2 7 8 9 3 7 5 16 6 11 9 4 1 2 5 8 5 7 10 11 26 24 29 38
34 24 19 24 24 6 4 4 5 8 14 6 4 6 5 6 5 6 5 8 10 7 4 3 2 7 16 6 8 10 8 4 2 6 6 4 5 6 8 14 13 9 20 33 40
25 12 16 23 10 6 3 5 6 16 17 4 5 6 4 4 5 4 5 6 12 9 7 6 3 2 7 10 20 3 6 3 6 6 6 0 7 8 10 11 13 16 30 37 39
13 4 17 17 8 4 3 6 11 13 19 5 5 6 4 5 4 4 4 4 15 10 4 1 2 7 6 2 5 21 11 8 6 11 4 4 9 5 10 12 11 17 29 36 35
18 6 11 14 4 4 7 6 4 9 9 8 5 4 4 4 3 5 4 5 17 9 4 6 2 2 4 5 1 4 13 7 13 3 16 8 9 10 5 7 15 19 25 25 27
9 5 7 8 6 3 6 5 6 8 4 10 6 7 6 6 5 4 6 5 11 7 7 3 1 4 3 1 3 6 5 8 16 12 18 19 14 6 6 8 8 19 27 27 24
4 2 3 4 4 5 5 4 7 7 7 4 5 9 5 3 5 3 5 5 4 7 4 4 0 2 2 12 7 11 14 12 10 22 15 21 24 11 9 10 17 34 27 24 24
4 3 3 7 9 8 3 3 3 5 4 6 1 11 12 3 3 3 6 2 4 5 4 4 2 2 4 9 10 12 13 14 14 10 10 21 11 9 17 26 13 22 26 28 26
6 9 7 4 3 2 3 4 4 12 11 12 6 11 8 8 9 16 17 16 11 4 3 3 3 2 4 6 12 15 9 15 9 8 12 17 11 8 7 10 17 32 34 35 36

GFSSW_850_spd_027.txt.gz
Wind_Speed
19 19 19 18 18 18 18 17 17 16 17 17 17 17 18 18 18 21 25 17 12 18 10 21 23 18 17 10 5 2 3 2 0 2 3 12 5 7 6 16 7 7 10 18 31
20 20 20 20 20 20 21 20 19 17 16 17 17 17 17 19 21 25 20 19 19 19 23 28 24 22 11 8 6 5 3 3 2 2 2 13 10 13 6 14 7 8 15 29 30
22 22 21 21 22 22 22 22 22 20 18 17 17 17 15 16 20 9 3 4 18 21 23 26 25 20 10 9 9 6 5 5 3 6 4 13 10 10 11 10 14 18 25 34 33
23 23 23 23 23 23 23 24 22 22 20 18 16 16 15 10 6 4 1 2 13 23 25 25 26 16 10 9 14 5 12 10 2 4 5 10 13 10 13 3 13 18 31 35 34
23 23 24 24 24 24 24 26 25 23 21 20 17 16 14 10 26 9 3 2 18 29 31 30 31 17 12 10 7 15 10 8 12 14 13 9 17 9 19 9 10 20 33 34 32
25 25 26 26 26 25 26 29 27 23 20 19 20 17 14 9 10 12 20 13 16 31 30 27 22 16 9 7 13 5 10 12 10 15 11 15 13 11 13 14 19 26 34 34 32
28 28 29 28 27 27 28 23 26 22 17 17 18 18 19 27 12 10 15 19 12 32 34 33 14 21 7 4 11 11 12 11 13 9 8 16 9 16 13 21 24 28 31 31 31
29 29 30 30 29 29 23 26 23 16 13 14 16 17 13 9 29 15 16 19 19 27 26 29 17 19 5 1 2 5 4 5 1 10 6 15 16 15 23 26 26 30 31 30 32
30 31 29 30 30 26 25 21 15 12 7 6 9 13 8 11 23 28 19 22 27 29 19 20 16 11 6 8 6 6 10 8 7 9 3 11 12 6 27 27 27 31 32 32 31
31 32 31 30 30 22 21 16 11 11 4 3 4 6 13 5 8 19 33 23 26 24 14 9 11 12 10 12 14 10 10 9 12 3 8 13 15 2 25 27 29 32 31 32 33
32 34 34 30 29 21 18 8 7 3 7 10 4 6 5 6 6 15 36 28 18 21 13 22 13 22 23 18 15 8 16 10 5 7 9 14 16 9 21 25 25 28 31 33 35
33 33 36 33 25 15 10 7 10 12 15 18 24 34 23 3 4 14 34 23 18 17 16 9 25 21 16 15 17 16 18 16 8 9 4 6 10 9 16 25 31 34 34 36 32
34 33 34 35 18 22 9 5 14 22 7 13 14 13 18 28 9 20 34 21 23 23 27 24 6 19 19 16 18 22 23 19 13 2 4 7 12 6 14 21 26 29 31 31 35
33 34 34 34 13 22 4 10 19 16 5 6 5 5 10 12 10 24 30 22 11 26 22 21 20 22 22 25 22 22 17 15 15 9 14 6 13 7 13 18 18 26 31 34 34
33 34 32 26 19 20 22 18 13 1 6 4 4 6 8 12 1 13 34 17 20 20 17 18 23 19 25 24 23 17 12 16 15 14 10 14 9 13 4 12 19 25 33 34 36
33 32 28 18 19 24 25 14 2 4 9 1 4 3 5 11 3 4 17 20 14 10 21 20 10 25 16 19 21 13 12 7 4 9 15 19 13 17 14 15 15 20 30 33 35
34 31 15 17 23 23 24 5 4 6 7 5 4 6 4 2 5 5 18 25 17 16 17 21 14 10 18 17 17 20 15 7 10 11 15 12 14 21 10 18 20 19 31 35 36
33 27 12 19 21 21 18 3 8 4 6 11 9 15 3 4 1 2 15 22 20 17 15 18 16 23 16 17 15 25 21 9 13 13 11 7 14 13 16 22 26 26 24 26 32
33 24 15 25 24 19 6 5 5 9 9 13 14 4 1 3 4 3 5 19 19 9 12 17 18 6 20 12 22 14 23 22 6 1 4 14 15 11 9 19 19 24 21 25 31
34 21 18 27 18 8 2 2 3 11 14 8 5 7 6 9 4 2 3 6 5 3 5 6 6 13 18 21 22 15 17 10 13 12 12 8 9 13 19 19 18 19 23 26 28
25 9 20 21 11 6 3 5 5 10 15 7 9 7 7 7 7 4 6 7 9 8 5 1 5 3 14 19 22 9 17 10 11 9 7 6 9 8 16 19 22 22 29 29 28
16 3 19 17 9 4 4 11 9 11 11 5 6 6 5 6 5 4 3 6 17 9 3 5 2 12 15 12 21 24 19 21 11 11 12 9 6 4 11 8 13 19 20 19 22
13 5 11 16 5 7 10 7 7 11 10 7 6 9 5 5 3 6 6 6 15 12 6 5 3 10 12 11 8 18 23 21 21 10 15 12 4 9 8 3 8 12 14 18 20
7 4 6 7 4 6 9 6 8 13 4 7 6 6 7 3 3 3 4 4 10 10 9 4 1 7 13 7 4 4 6 19 23 16 19 21 17 7 3 5 10 14 18 16 17
6 2 2 5 6 10 11 5 11 9 8 9 1 8 8 4 5 5 8 7 4 11 7 4 1 4 5 8 8 10 12 12 15 21 23 23 27 20 17 16 15 16 15 17 17
5 3 3 11 10 8 6 2 7 7 10 9 6 10 9 5 8 7 10 5 3 6 6 6 1 3 8 9 8 14 15 14 16 19 17 23 26 17 9 22 25 32 30 29 24
6 8 6 5 4 5 3 6 10 15 8 5 7 10 12 11 11 15 16 17 15 10 5 5 3 3 6 6 14 16 23 19 17 15 16 23 18 13 15 16 19 27 29 30 29

GFSSW_850_spd_030.txt.gz
Wind_Speed
19 19 19 19 19 19 19 19 19 19 18 18 17 19 18 17 18 21 25 17 11 17 10 20 21 18 18 12 9 5 6 5 8 0 7 11 7 6 6 14 8 4 13 24 31
18 19 19 19 19 20 21 20 20 19 19 19 18 17 19 17 19 26 24 19 17 18 20 26 27 23 21 15 9 9 8 5 5 5 6 10 6 10 7 13 13 10 16 30 32
20 20 20 20 20 21 22 22 22 21 20 19 19 17 16 15 15 11 9 11 23 23 23 22 22 22 18 13 14 11 10 7 6 6 5 9 8 10 8 11 15 16 26 31 32
22 22 22 22 22 22 22 23 24 24 21 20 20 16 13 9 5 5 7 8 14 26 24 23 25 24 17 13 17 9 13 8 2 3 2 3 9 10 11 7 14 17 26 32 32
23 23 23 23 23 24 24 25 24 22 21 20 20 16 11 10 18 8 8 1 18 29 29 30 29 27 18 17 12 17 9 6 11 9 8 5 7 4 11 10 18 21 27 31 29
25 26 27 25 25 26 28 25 24 21 19 19 19 15 10 16 11 12 20 13 22 29 29 29 29 23 14 12 16 8 17 11 11 12 11 11 9 11 11 13 19 25 28 31 31
27 28 29 29 27 28 28 24 25 19 16 17 17 15 14 23 13 10 14 18 23 28 31 29 19 25 9 13 13 13 11 12 15 13 9 10 11 14 9 17 21 25 27 30 31
29 29 30 30 29 28 26 24 23 16 11 11 13 12 12 11 20 13 15 18 20 21 23 24 13 27 13 3 7 15 17 14 17 18 14 13 10 18 17 22 23 25 28 31 32
31 32 31 32 32 26 25 23 20 16 9 4 7 10 8 13 19 22 19 21 23 19 20 20 18 22 22 14 13 13 14 19 13 13 9 15 13 8 18 23 23 26 29 30 30
31 33 32 32 33 23 21 22 17 13 4 1 3 7 12 6 10 24 20 16 27 22 19 21 19 16 17 17 18 18 18 17 17 13 14 14 16 4 15 21 22 25 28 29 30
32 33 34 32 31 16 23 14 8 4 7 11 3 7 1 5 9 18 32 23 24 27 19 25 19 25 27 23 18 18 19 19 17 15 12 14 13 13 15 20 22 25 28 30 31
33 33 32 31 24 20 13 5 8 8 18 20 27 30 20 3 11 17 34 25 28 27 23 17 26 23 22 21 20 21 19 20 15 10 8 13 12 11 10 18 22 25 29 31 28
33 33 33 32 16 20 10 8 13 14 9 15 16 21 19 25 14 25 39 36 27 28 31 26 13 23 22 22 22 23 24 21 17 12 15 15 18 16 10 15 21 24 25 28 31
32 31 31 29 10 19 6 19 16 10 6 7 8 6 15 17 14 22 39 39 19 29 28 27 21 21 24 26 23 24 24 20 19 16 15 15 15 18 20 17 19 24 28 28 31
31 29 28 22 18 11 20 22 14 2 6 7 7 7 8 21 7 27 33 37 23 23 26 22 27 22 27 27 25 21 18 17 20 17 18 22 14 16 13 18 20 22 27 29 32
31 27 21 17 13 17 24 20 2 6 10 5 6 7 9 17 9 12 29 33 29 23 25 27 17 24 22 18 21 15 16 13 16 17 20 24 20 19 19 19 19 20 24 29 32
31 24 14 15 16 25 22 8 7 9 5 5 6 4 8 10 19 13 27 31 21 23 29 26 28 18 19 21 20 22 17 9 11 15 19 21 19 19 11 21 20 18 24 26 31
31 21 10 15 22 23 13 8 12 3 12 18 11 17 12 6 11 18 19 25 32 26 16 20 21 30 25 28 19 27 23 10 16 14 16 16 16 22 24 26 13 26 24 25 27
28 13 9 19 20 15 11 9 7 12 13 14 19 10 10 6 5 11 20 22 32 28 25 21 26 29 20 21 25 24 25 27 4 3 8 16 19 16 10 18 26 27 23 22 26
24 9 11 22 16 9 8 6 9 11 18 13 14 6 7 5 8 7 14 6 17 32 1 15 18 19 26 26 24 21 25 21 14 15 18 11 19 12 21 21 19 22 26 24 27
15 8 14 19 11 9 5 8 12 15 14 10 14 13 11 10 9 5 3 8 8 4 8 15 14 22 22 25 24 22 16 22 18 17 11 9 11 15 16 16 22 21 26 27 26
14 6 16 17 4 5 6 8 13 12 15 12 10 12 13 11 10 4 4 10 10 6 12 11 10 11 24 24 26 28 24 27 14 23 18 14 6 4 7 14 17 20 24 23 24
14 7 13 14 6 7 9 8 8 12 11 12 10 12 13 14 5 3 2 4 12 10 2 2 13 15 16 19 23 30 29 25 24 15 21 16 4 11 8 3 5 7 8 11 14
10 5 7 6 4 11 11 11 10 8 6 17 9 14 17 14 11 5 4 5 10 10 9 6 13 21 19 18 17 25 29 28 27 19 18 17 12 12 3 3 4 6 6 5 7
7 6 6 7 10 13 12 12 11 9 11 12 5 11 10 7 10 10 7 11 2 9 9 7 12 7 12 4 5 12 27 29 30 27 25 19 21 17 8 9 9 12 11 7 5
8 5 5 15 12 11 5 6 10 12 12 10 9 11 7 9 10 9 12 9 6 8 9 6 3 5 13 10 8 11 14 15 20 23 25 26 24 13 10 5 15 17 20 23 25
5 6 4 7 10 9 7 10 14 14 9 6 13 14 14 7 12 15 17 18 16 12 9 6 6 6 14 9 10 15 22 20 19 19 17 23 17 16 17 17 21 22 23 22 21

GFSSW_850_spd_033.txt.gz
Wind_Speed
18 18 18 18 18 19 20 19 18 18 19 19 20 19 18 19 18 20 25 16 13 17 12 16 21 20 19 21 21 15 9 6 4 9 13 10 14 10 11 16 11 4 23 30 32
19 20 20 20 20 21 21 21 21 20 18 19 19 19 17 18 19 25 26 20 18 17 17 25 28 24 24 21 20 15 6 8 7 5 11 9 17 10 13 13 12 20 27 31 32
20 21 21 21 22 23 23 23 23 22 22 19 19 17 15 12 16 21 18 21 22 20 20 23 23 24 24 19 22 18 8 25 6 9 1 13 17 10 15 11 15 22 31 33 33
23 24 24 24 24 24 25 25 26 25 21 20 17 14 12 6 6 1 6 10 21 27 24 25 27 27 22 21 20 16 11 21 9 7 1 7 17 13 5 15 18 21 30 34 33
25 26 26 26 26 27 27 26 25 22 23 20 18 12 9 12 21 14 8 6 17 30 30 30 31 29 23 20 16 18 17 12 4 5 5 2 7 5 9 14 19 23 28 31 31
26 27 27 28 28 29 29 26 24 24 22 19 16 13 11 19 10 16 12 14 16 31 31 31 30 30 25 21 19 16 19 12 11 12 10 10 8 9 13 15 22 26 28 30 30
28 28 29 29 30 30 30 27 24 23 18 16 13 12 15 24 9 10 16 19 19 29 30 29 26 27 25 16 19 23 8 16 15 14 9 10 12 15 19 19 22 25 28 30 30
29 29 30 31 31 30 29 27 23 23 18 12 7 10 13 6 22 13 16 20 20 24 24 24 27 26 28 18 8 19 19 17 20 18 16 13 16 17 18 22 24 25 27 31 31
32 33 33 32 32 31 23 26 25 19 13 4 3 10 12 11 18 24 20 25 24 23 23 22 26 21 27 18 14 17 18 23 20 22 16 16 16 20 22 22 23 25 26 29 31
31 32 32 33 33 27 27 21 24 14 8 2 6 7 17 12 14 22 24 25 27 23 23 23 23 18 20 20 20 22 23 21 22 17 18 19 19 15 23 23 22 25 27 29 31
30 31 31 31 29 25 27 18 9 4 10 16 7 16 4 9 8 21 28 25 28 26 19 29 20 26 29 27 24 22 21 23 22 17 22 19 20 18 18 17 21 26 28 30 30
31 31 30 29 21 25 19 16 10 12 19 27 37 35 29 11 13 20 30 28 30 26 25 19 27 26 25 27 25 27 25 23 21 14 13 17 18 16 15 20 20 27 28 30 29
29 29 30 26 16 18 11 18 16 15 11 22 33 33 30 31 19 28 40 38 29 30 29 27 20 27 26 26 27 28 27 23 19 21 17 16 18 17 16 16 18 25 27 29 33
29 27 25 24 9 17 10 22 18 12 7 9 10 10 28 25 22 29 40 42 21 33 31 29 25 25 27 27 26 26 26 23 20 19 18 23 16 20 18 17 18 24 28 29 32
30 28 22 18 12 13 20 22 18 5 7 13 10 7 12 29 9 35 37 45 27 26 29 31 28 23 27 27 25 25 20 25 23 22 20 24 17 18 25 26 22 21 28 29 32
28 25 20 12 12 15 22 20 7 8 10 7 7 10 14 26 28 27 36 43 40 25 27 30 25 24 22 23 23 21 16 19 22 19 21 25 21 20 19 18 24 25 30 31 30
26 21 13 10 15 21 19 12 8 11 1 9 11 10 12 17 24 17 32 32 29 29 29 28 32 24 22 22 24 18 19 12 16 18 20 24 25 20 20 21 20 21 31 31 28
25 17 9 10 18 17 15 12 14 19 15 21 19 22 20 19 22 24 27 26 35 30 19 22 24 33 21 28 24 26 25 15 21 18 17 25 27 24 26 18 23 28 28 29 29
23 10 4 17 17 13 14 12 12 13 18 19 26 20 18 22 7 25 27 28 30 34 31 25 32 31 31 24 27 23 25 27 22 23 14 19 27 24 21 26 20 17 30 30 31
20 15 4 21 15 10 10 15 13 12 17 16 20 16 22 15 9 16 23 24 26 34 30 28 18 31 31 26 29 27 25 23 17 18 16 15 15 18 20 15 27 25 21 32 29
17 13 9 19 10 13 9 11 17 19 15 13 20 21 18 19 25 17 20 8 10 14 33 32 20 18 25 29 27 26 22 24 20 18 13 11 12 15 19 20 19 20 35 28 27
15 7 17 17 16 2 7 9 8 13 15 14 15 19 18 13 18 20 16 10 13 14 15 22 14 20 31 28 26 27 28 27 17 24 17 12 3 9 6 7 19 22 24 32 30
16 16 6 15 7 9 9 13 9 12 9 9 12 13 19 17 8 14 11 9 12 11 8 8 14 16 21 25 28 31 31 24 27 18 21 15 6 9 5 1 15 18 20 22 24
12 5 13 12 10 12 13 15 14 6 8 13 7 8 16 17 16 11 10 12 8 9 16 10 16 23 17 24 23 28 28 30 24 19 18 20 13 12 9 10 8 6 9 14 9
9 6 7 7 11 12 13 13 12 7 10 14 1 7 8 8 17 9 11 15 11 3 11 6 15 20 26 17 8 28 31 31 30 24 24 15 19 16 13 11 13 16 12 10 10
10 8 11 19 9 14 12 13 10 13 14 15 8 15 11 12 12 15 13 13 5 13 11 11 12 18 24 23 6 13 20 33 30 28 25 23 16 18 17 13 8 7 6 7 8
14 15 8 10 11 8 11 13 13 17 12 10 10 13 15 9 16 20 13 21 17 14 13 12 10 8 15 20 11 17 20 19 23 27 24 22 19 14 5 3 5 7 9 12 13

GFSSW_850_spd_036.txt.gz
Wind_Speed
21 21 22 22 22 22 22 22 20 20 20 20 19 17 17 19 20 21 32 21 13 17 14 11 18 21 19 24 22 24 5 9 9 12 4 18 15 22 20 20 12 14 35 39 39
22 23 23 24 24 24 24 25 25 22 22 22 19 16 15 17 20 29 32 21 21 17 21 19 23 23 25 22 21 15 3 6 12 7 8 13 16 20 15 17 31 34 34 38 38
23 23 24 25 25 25 26 27 27 25 22 18 17 15 12 12 16 22 14 20 24 23 22 19 20 24 25 23 19 10 6 19 25 17 5 13 17 19 17 17 30 34 39 38 38
24 24 25 26 27 27 28 28 26 25 22 20 19 14 10 7 6 1 3 11 21 22 22 23 25 28 22 20 24 11 3 23 17 27 18 5 14 17 12 24 29 32 37 40 37
26 27 27 28 29 29 29 29 26 24 22 21 16 12 11 11 21 11 14 4 19 26 27 28 30 30 23 21 23 19 19 24 12 20 30 30 11 4 26 26 27 32 35 36 36
27 28 28 29 30 30 31 30 26 24 21 18 14 11 14 18 14 18 10 13 18 28 30 29 29 29 26 25 21 20 22 23 34 19 7 11 21 32 21 28 28 33 34 34 34
27 27 28 29 30 30 29 28 25 24 21 17 14 10 15 29 7 10 16 16 19 26 31 29 29 28 30 21 28 24 17 17 16 13 10 13 12 16 8 31 30 31 33 33 32
29 29 29 30 31 30 28 29 26 24 21 14 9 9 14 6 18 18 16 21 19 20 27 24 27 26 29 25 21 20 18 17 17 17 13 11 14 15 38 31 29 29 31 33 32
30 31 30 31 31 29 28 25 27 21 17 5 2 8 12 8 23 24 21 24 22 22 23 25 25 29 25 21 19 21 17 22 19 19 17 15 16 12 23 29 33 30 29 31 32
31 30 29 29 28 27 27 27 21 15 11 3 8 9 18 14 14 24 27 23 26 24 24 28 25 20 21 19 21 19 21 18 21 22 23 20 18 14 25 29 33 35 31 31 33
31 31 29 26 22 24 25 23 31 2 11 23 12 19 14 7 6 18 29 26 29 29 23 29 18 25 30 25 24 21 21 24 19 22 26 22 18 19 20 22 25 32 35 33 33
31 31 29 24 17 20 17 22 17 17 28 27 38 42 41 28 20 19 28 32 29 26 25 22 28 26 26 25 27 27 25 24 21 23 17 23 21 22 22 28 30 29 33 34 33
34 32 30 24 13 18 13 20 20 20 15 29 40 38 46 34 32 24 35 39 28 30 29 27 19 26 26 26 27 28 27 24 22 21 17 15 19 19 20 25 27 31 33 34 35
34 34 29 28 9 15 18 24 21 18 8 10 13 11 37 30 34 33 35 38 26 31 30 27 30 29 27 27 26 27 28 26 25 21 17 28 15 18 18 18 22 23 32 34 37
32 31 25 15 18 13 24 24 20 9 7 9 8 4 9 33 6 40 36 40 31 26 30 29 26 28 28 29 28 25 24 24 26 22 18 23 16 15 20 20 20 23 32 35 37
31 30 24 12 15 18 24 23 14 6 9 11 14 24 10 28 34 13 45 42 38 27 28 31 32 25 25 23 26 24 23 23 23 18 18 23 20 19 19 23 21 22 30 35 37
31 23 12 9 10 23 21 17 6 8 16 17 29 28 28 22 24 30 30 31 27 29 27 28 34 29 26 21 25 23 21 13 16 17 16 22 22 16 16 19 26 24 30 35 34
34 11 11 8 17 20 17 12 10 12 20 25 25 28 22 20 23 26 25 27 33 31 18 22 25 35 26 29 24 27 25 15 21 18 16 22 24 22 22 24 23 27 36 36 37
30 17 12 6 19 16 16 10 7 14 15 19 24 20 20 28 23 25 30 29 30 34 31 24 29 28 33 24 27 23 26 24 20 20 16 19 28 25 24 25 23 19 30 37 39
30 22 16 9 18 12 11 14 13 11 17 20 20 21 23 26 24 25 15 27 27 32 31 30 18 30 32 28 29 31 22 21 17 21 20 19 21 19 24 23 24 19 19 32 36
20 16 6 17 14 17 11 11 16 23 19 18 20 20 21 13 21 24 11 21 25 18 30 31 25 22 28 31 28 22 21 24 19 17 15 13 13 13 25 22 19 21 25 25 32
15 9 19 15 20 10 9 11 17 17 25 16 18 17 7 11 16 13 18 12 34 25 18 19 23 22 27 28 31 28 28 25 13 22 15 14 4 11 5 20 16 15 31 23 27
19 25 10 17 8 11 14 15 18 7 12 13 20 16 18 12 10 10 17 22 35 26 12 12 14 19 25 23 30 33 30 27 22 18 19 14 7 7 9 7 18 16 20 31 23
14 8 18 15 17 19 17 14 13 20 5 3 18 15 14 19 11 4 15 14 32 28 18 8 10 20 18 22 18 28 30 28 27 18 16 18 9 8 6 4 9 17 16 18 24
11 6 12 7 15 17 15 15 8 16 6 32 14 2 15 14 13 8 14 23 20 23 22 8 14 16 23 25 16 27 26 30 31 21 22 18 18 15 12 9 9 9 11 16 16
7 7 9 21 19 18 17 10 12 18 14 18 15 15 16 14 9 14 12 15 9 18 18 18 6 12 20 22 20 20 31 30 29 29 23 24 18 20 15 19 12 14 12 14 11
8 10 8 10 15 10 11 16 19 18 16 17 17 13 18 17 16 19 20 21 18 20 16 11 11 9 18 16 20 19 14 26 24 24 24 20 16 18 21 17 16 15 9 5 1

GFSSW_850_spd_039.txt.gz
Wind_Speed
23 23 23 24 24 24 24 25 24 23 21 20 20 17 17 18 19 22 33 27 16 21 11 9 15 22 16 21 22 15 5 5 6 11 5 2 21 28 26 33 14 16 37 40 41
24 24 25 25 26 26 27 27 26 24 21 21 16 15 15 18 21 30 31 23 23 17 19 18 19 20 26 24 16 8 2 9 9 10 9 11 24 26 28 27 27 36 38 40 41
24 25 26 27 27 27 27 28 28 25 21 20 18 15 14 14 19 19 4 16 23 24 21 20 17 24 24 24 25 16 9 11 20 20 16 22 5 23 29 17 40 44 45 39 40
25 26 26 27 27 28 28 27 27 25 23 19 17 15 11 9 4 2 3 5 21 24 22 21 24 26 16 18 31 11 17 13 13 11 9 8 10 14 34 21 42 48 48 44 40
26 27 27 27 28 28 28 27 26 24 23 20 16 12 9 9 26 9 5 4 17 27 28 26 27 25 19 20 23 18 11 23 15 18 27 42 28 21 32 40 43 44 42 41 36
28 27 28 28 28 28 27 27 27 25 22 21 17 11 11 9 15 8 19 11 14 32 29 27 20 26 17 23 17 21 19 17 14 28 15 18 7 18 38 45 44 43 43 41 37
29 29 29 29 29 29 26 25 25 26 21 20 18 13 16 32 8 7 21 15 14 27 31 30 27 24 28 12 32 26 11 14 20 24 11 15 6 11 41 43 40 41 42 41 43
31 31 30 30 29 28 26 27 24 28 20 17 13 10 15 11 11 20 24 19 12 17 26 25 26 29 29 22 23 17 16 15 22 19 24 20 8 18 43 47 40 38 40 43 44
32 31 30 29 28 25 25 28 29 30 11 10 1 5 16 7 19 26 24 26 16 19 19 21 25 31 26 15 13 10 12 9 13 15 9 7 8 17 36 36 30 37 39 40 45
34 33 31 28 25 20 22 29 35 11 17 14 4 9 14 10 10 21 26 23 26 19 24 24 20 14 14 11 16 10 7 11 12 16 12 7 8 27 37 45 44 27 36 38 41
35 35 32 28 23 19 23 30 29 7 16 23 28 31 55 14 15 20 25 26 24 28 16 25 10 21 22 18 11 11 17 11 12 15 11 15 10 26 33 35 31 27 33 39 39
35 36 34 28 21 17 20 26 22 23 31 33 42 43 46 40 22 16 25 26 24 20 17 12 23 18 14 15 19 18 21 17 15 17 10 16 14 16 25 35 40 37 27 28 38
37 36 35 29 16 15 16 26 26 27 13 29 24 26 36 26 28 42 20 35 16 22 24 23 13 19 19 20 23 22 18 17 14 13 17 16 18 9 25 33 34 42 42 42 44
39 35 33 31 11 19 18 31 30 23 5 9 5 8 12 20 11 38 34 32 20 23 23 26 20 24 26 23 21 19 18 21 20 14 7 11 6 10 16 22 29 44 45 54 47
36 33 31 17 21 19 29 34 25 20 5 12 20 15 49 14 8 19 37 29 26 21 20 25 24 24 26 26 21 15 17 21 22 15 8 11 11 12 12 20 27 27 46 52 52
37 32 24 11 11 19 23 28 26 2 6 9 24 24 30 28 23 30 16 33 27 22 23 24 20 23 25 20 17 16 10 11 16 14 13 14 9 9 15 18 16 31 46 46 49
39 33 11 9 12 20 26 26 4 3 12 12 23 22 23 21 19 23 17 19 19 19 25 18 28 22 17 20 20 18 12 7 9 13 13 8 7 8 6 16 14 22 39 44 52
38 25 11 11 11 17 23 10 5 8 13 19 17 20 16 20 23 28 29 12 21 22 5 20 19 31 23 21 16 22 21 6 8 8 10 7 15 9 11 9 19 25 36 46 51
37 26 11 14 9 16 16 4 5 9 13 15 23 15 22 22 16 26 22 13 16 21 23 13 28 14 28 15 18 17 19 11 3 7 3 4 8 12 20 15 13 14 22 46 45
36 27 5 6 14 12 5 10 16 14 15 15 17 14 20 12 13 16 14 14 24 26 25 27 12 18 20 24 20 20 11 12 9 9 9 11 14 16 16 21 17 12 14 44 48
26 15 4 19 19 15 8 7 14 18 20 11 13 19 16 8 13 15 10 27 23 29 29 18 11 29 14 25 28 11 12 15 5 6 6 4 8 18 22 23 21 16 21 34 45
17 5 15 21 13 10 9 15 20 17 12 9 9 11 15 16 4 8 15 8 33 30 25 17 8 15 29 17 26 18 19 13 11 13 7 6 11 9 8 27 23 19 27 29 45
16 11 17 15 5 6 13 15 19 11 10 8 7 12 14 8 4 8 11 13 18 24 13 15 6 6 18 13 19 28 20 20 8 6 14 7 6 5 10 18 22 16 22 30 39
9 4 12 16 20 15 13 14 15 12 5 4 8 5 14 11 2 2 8 9 24 27 35 29 11 13 12 16 6 11 24 19 13 12 15 11 6 5 8 8 8 17 11 36 25
6 5 8 6 11 17 17 13 14 16 6 12 5 5 8 8 12 5 10 15 19 18 20 15 8 14 15 15 14 18 27 23 22 17 16 12 6 7 2 7 6 13 14 24 26
7 4 5 12 17 14 15 10 15 19 20 13 11 9 6 8 6 10 12 9 6 13 17 19 7 17 7 11 10 8 12 26 23 20 17 12 8 8 9 20 22 24 27 27 25
6 8 6 5 9 9 6 13 20 18 12 28 19 13 13 10 21 16 27 17 14 9 13 18 11 10 5 3 6 6 9 8 21 19 16 13 8 8 5 8 14 26 24 21 22

GFSSW_850_spd_042.txt.gz
Wind_Speed
23 23 23 24 24 24 25 24 23 21 19 16 16 15 14 16 17 21 29 24 17 12 10 19 17 16 19 16 7 4 1 2 4 9 1 6 7 21 8 22 5 6 19 37 51
23 24 24 25 25 25 26 25 24 21 19 18 15 15 15 17 19 27 22 19 19 20 19 26 25 23 13 10 8 3 2 7 8 6 13 3 2 12 11 15 16 25 38 42 49
24 25 25 26 26 26 26 25 24 23 21 20 16 14 15 15 17 8 1 12 26 25 26 20 21 26 15 11 16 12 6 7 8 14 7 4 16 7 23 8 33 42 42 43 43
25 25 25 25 26 27 27 25 25 25 24 20 18 13 12 8 4 5 5 3 28 29 30 24 21 19 9 12 22 8 20 12 9 16 14 8 21 16 13 10 34 51 52 48 48
27 27 27 27 27 27 27 25 25 26 25 23 17 14 9 8 23 9 8 4 26 34 32 33 28 22 9 13 21 14 16 22 18 20 13 9 16 13 11 24 36 39 42 45 44
28 28 28 28 27 26 25 26 27 24 25 25 20 13 9 6 7 9 21 8 17 34 33 32 27 30 11 14 15 9 24 15 13 11 4 11 1 13 22 37 39 39 39 39 41
30 30 29 28 27 25 22 25 28 33 27 18 18 15 14 27 5 4 10 20 13 28 36 35 27 26 13 6 39 26 14 11 21 25 5 17 6 12 38 39 39 36 36 36 37
30 30 29 28 26 24 21 27 31 27 17 15 13 12 13 6 10 25 18 20 16 17 26 30 31 23 13 14 13 7 11 12 17 13 14 19 10 16 38 41 37 36 35 36 35
33 31 30 28 24 21 21 26 32 14 14 23 6 6 15 7 11 11 24 27 20 19 25 23 24 18 9 5 5 3 8 8 17 20 12 12 6 23 33 35 35 38 39 36 34
36 35 31 29 26 19 20 25 28 14 13 18 5 8 10 2 10 9 17 25 27 22 19 20 16 5 9 5 11 5 5 6 10 14 24 21 10 25 39 38 40 41 43 41 39
37 36 33 28 23 18 22 25 33 9 33 24 35 29 46 31 29 16 11 27 26 24 9 19 10 16 23 13 5 6 8 10 9 11 9 24 20 27 38 35 35 39 40 43 43
38 38 39 30 21 13 15 19 20 22 20 32 20 26 34 30 19 22 7 26 17 17 9 4 18 19 6 9 12 13 10 13 14 15 6 5 26 28 25 33 44 40 40 42 39
36 37 40 35 20 13 13 18 19 25 5 19 9 9 12 15 13 30 9 16 6 11 17 20 8 14 15 14 15 14 14 14 9 10 5 4 11 23 25 28 26 32 44 46 49
37 36 39 35 11 19 18 22 18 29 4 7 9 10 26 13 4 26 21 14 8 14 12 16 23 20 19 19 18 16 18 17 15 6 7 5 5 18 21 21 18 33 38 45 45
37 36 35 22 19 19 23 24 25 6 2 6 8 13 27 15 18 26 23 18 15 13 10 20 22 24 21 25 18 18 11 14 18 5 2 16 2 14 28 21 26 24 37 41 46
36 32 27 15 12 20 24 26 8 5 3 5 9 16 18 23 16 24 24 30 14 18 20 14 16 24 26 18 21 9 11 9 10 3 9 20 7 7 22 29 28 26 39 38 43
36 34 23 12 10 20 24 25 5 3 11 8 8 10 8 16 11 14 15 14 9 5 16 15 19 22 13 18 12 15 7 7 7 7 10 13 6 12 19 30 37 34 50 43 43
40 27 11 4 10 17 21 5 6 13 5 6 8 7 9 17 6 17 11 11 17 18 8 16 19 22 18 14 18 13 11 6 13 5 11 5 8 6 15 26 45 52 58 50 44
39 11 9 10 12 13 8 4 1 5 7 9 8 5 6 9 5 10 8 4 11 21 15 9 17 7 24 20 17 13 17 12 6 3 3 4 5 4 11 11 12 39 39 41 46
39 7 8 21 9 10 4 4 3 4 6 6 6 5 6 6 6 10 6 5 7 18 18 6 8 14 25 17 20 17 9 8 4 7 5 6 5 6 9 14 8 12 36 47 49
29 9 11 17 12 5 3 3 4 11 12 5 3 4 5 6 6 4 8 11 16 20 20 11 5 10 2 11 27 6 16 6 6 6 7 4 9 9 10 13 13 12 38 50 51
20 4 19 22 8 4 2 6 11 6 7 2 1 2 2 6 4 4 6 4 16 18 12 8 6 6 12 10 5 21 7 10 9 10 4 5 11 5 11 16 18 24 33 46 58
16 8 17 14 4 4 7 7 5 9 1 2 3 3 1 1 4 2 4 6 8 12 7 9 4 8 8 5 3 6 11 9 6 5 9 12 12 2 11 12 22 33 34 44 52
9 4 9 8 11 3 6 5 9 11 6 4 3 2 3 4 3 3 3 4 8 9 6 12 5 8 7 14 14 7 13 12 10 8 10 14 12 9 12 14 10 11 31 39 43
5 2 2 5 6 11 7 5 10 7 9 13 4 3 4 3 2 1 4 12 10 7 3 4 6 12 19 25 25 23 17 13 16 17 14 12 7 10 9 12 6 12 26 34 39
5 3 3 9 10 8 5 3 9 7 8 7 7 16 6 6 7 4 3 6 6 4 1 2 5 18 22 14 18 13 9 7 16 19 7 9 8 8 5 21 8 14 23 28 36
5 7 6 5 4 3 3 10 15 17 8 11 15 15 6 8 13 20 21 26 12 8 7 6 4 6 6 8 5 5 15 6 11 11 11 8 9 3 10 10 16 17 29 22 30

GFSSW_850_spd_045.txt.gz
Wind_Speed
22 23 23 23 23 24 24 22 19 18 17 17 16 15 16 15 15 20 26 18 20 15 14 19 19 17 17 15 7 4 2 3 5 6 2 6 4 5 1 10 5 6 18 36 50
24 24 24 24 25 25 25 24 22 21 21 18 17 15 15 17 19 25 18 16 19 18 20 27 25 23 11 9 6 3 2 5 6 8 1 2 10 14 7 15 5 14 26 48 49
24 24 25 25 25 26 25 24 23 24 24 22 19 16 13 14 16 2 1 14 28 25 20 23 23 23 9 8 9 7 4 3 3 11 1 6 15 15 15 3 9 34 47 54 49
25 25 25 25 24 24 24 22 23 24 26 20 20 16 12 9 2 3 3 7 31 28 27 28 28 14 6 6 14 3 11 14 3 11 7 8 12 7 17 7 22 37 60 58 50
26 26 25 24 23 23 21 20 23 27 30 24 21 13 10 8 12 6 4 7 33 33 35 34 32 16 8 8 8 12 11 12 24 26 19 10 15 7 19 5 26 39 45 50 48
28 27 26 24 24 23 19 19 25 31 24 18 15 10 8 4 3 7 16 3 32 36 38 35 23 26 12 5 15 8 19 22 23 20 11 10 6 13 10 26 35 38 42 42 46
30 29 27 25 24 22 19 20 27 30 15 20 22 10 11 20 5 3 7 13 21 34 39 38 12 24 8 2 22 18 9 10 16 15 2 14 3 4 26 31 36 35 35 36 37
34 33 30 26 24 24 20 22 27 23 14 19 25 9 9 5 5 8 12 13 24 34 31 32 25 29 5 5 5 5 5 3 9 7 9 10 3 13 28 33 32 33 34 37 37
35 36 33 31 26 25 21 23 23 15 12 24 12 11 10 5 9 2 6 18 20 32 30 20 30 6 8 2 4 3 4 7 8 11 4 8 4 16 30 30 30 33 35 35 35
34 37 33 35 30 25 23 25 18 9 13 13 10 8 5 16 25 18 9 19 19 20 21 10 12 5 2 4 9 6 4 4 6 4 11 11 6 18 28 30 32 31 35 37 38
35 36 37 35 31 19 23 19 17 4 27 8 17 7 19 25 15 6 7 17 18 16 8 14 6 17 28 18 3 4 4 6 6 6 8 15 9 20 30 25 26 31 32 36 38
36 36 36 34 26 14 14 16 14 12 14 19 7 9 16 14 9 15 8 12 13 9 6 5 17 21 7 7 12 8 5 6 10 5 6 7 17 18 21 31 39 40 38 38 35
37 36 33 31 16 16 12 15 17 17 2 11 6 18 21 12 2 15 15 7 6 12 15 10 4 14 10 12 13 13 13 9 9 5 3 4 7 14 20 10 21 27 34 36 42
35 34 31 27 8 18 11 16 17 7 4 5 10 13 23 8 3 12 21 5 5 17 15 14 17 15 16 17 11 12 12 14 14 3 4 5 4 11 16 22 21 30 35 38 40
34 34 30 17 8 18 20 20 8 2 3 5 6 11 17 18 16 13 16 4 5 11 8 16 15 19 19 23 16 14 6 9 8 3 3 9 3 7 15 19 22 27 38 41 44
34 31 22 10 8 17 23 22 2 4 3 5 6 8 8 14 6 19 14 11 1 6 14 9 15 16 23 12 15 4 4 3 1 3 10 17 8 5 13 25 22 27 39 42 43
34 20 13 13 16 19 22 10 4 3 7 5 5 7 6 8 8 12 8 15 6 7 7 9 22 10 6 18 10 11 7 4 4 5 13 7 7 13 22 25 28 28 44 44 43
32 8 9 15 13 16 19 4 4 3 3 3 3 2 5 8 4 8 7 5 14 4 2 5 11 19 13 12 15 12 15 6 8 4 8 6 8 6 14 24 40 39 48 41 41
33 2 6 11 12 13 10 5 3 2 3 4 2 4 5 5 2 7 6 2 6 9 4 7 7 9 16 14 17 8 19 12 5 3 2 4 5 6 7 13 19 30 35 34 35
34 3 3 12 12 7 4 2 0 3 2 3 3 1 2 4 6 2 4 6 3 10 2 2 6 5 12 11 11 15 8 7 4 10 5 4 5 7 12 12 14 19 29 36 41
25 5 14 24 6 3 3 4 3 7 1 2 4 2 3 1 2 2 1 6 9 10 4 4 2 9 8 7 25 8 11 4 6 5 13 1 8 8 9 14 19 19 36 38 42
16 3 19 17 7 4 2 5 6 6 3 2 1 4 2 2 3 2 1 1 7 8 3 4 4 6 10 16 16 9 11 8 10 13 1 3 16 5 11 13 15 22 36 40 45
17 7 11 15 4 4 7 5 4 4 3 2 2 3 3 4 2 3 3 3 7 3 1 3 2 6 9 1 6 4 5 7 5 4 9 13 17 6 4 4 8 14 34 36 43
7 4 6 11 7 3 5 5 4 8 2 6 4 1 0 3 4 3 4 6 11 5 8 2 4 6 6 9 13 11 23 18 9 8 7 14 19 14 14 10 7 10 25 32 46
4 2 4 4 2 3 4 5 9 5 6 7 3 4 1 4 3 5 5 2 7 6 5 3 5 6 11 19 21 22 23 24 13 12 14 11 12 12 8 6 8 20 21 28 45
4 4 2 6 7 6 3 2 7 5 4 6 3 10 7 5 7 7 6 5 6 3 3 3 3 3 14 20 17 18 18 19 20 19 6 5 12 3 4 10 17 21 14 23 34
2 3 3 4 2 2 2 2 6 13 9 11 5 11 12 9 9 15 17 16 8 8 5 4 2 3 7 8 12 6 7 11 4 17 4 9 4 4 6 12 16 24 18 21 36

GFSSW_850_spd_048.txt.gz
Wind_Speed
22 22 22 22 22 22 21 20 19 20 21 20 17 17 16 13 13 17 21 16 21 14 21 26 19 17 18 15 6 3 1 3 5 1 6 11 8 5 6 12 7 12 11 30 39
23 23 23 23 23 22 21 19 19 20 21 23 18 16 17 16 15 20 12 13 16 21 25 31 26 24 10 8 5 4 2 5 4 6 5 7 13 14 7 14 3 10 17 41 45
24 24 24 23 23 22 20 18 19 22 26 25 20 15 15 15 13 1 3 13 23 26 23 28 25 21 8 6 8 6 4 3 6 9 8 10 8 11 12 8 13 27 40 48 49
26 25 24 23 22 21 19 18 20 23 28 24 15 13 11 10 1 2 2 5 30 27 25 28 31 16 7 6 12 4 11 9 5 11 3 3 8 6 17 4 17 27 48 57 51
29 27 24 23 22 21 18 19 20 24 26 16 18 12 8 6 7 8 6 3 32 33 31 31 33 12 6 8 7 9 7 7 13 17 16 13 9 7 15 2 13 34 48 51 49
29 29 27 26 24 23 19 19 21 24 22 17 19 19 7 3 3 7 7 3 33 36 33 33 22 18 11 5 7 8 15 17 15 19 13 7 5 11 7 14 25 44 43 41 43
29 28 28 29 27 24 20 20 22 24 18 14 25 8 7 6 1 4 8 6 29 36 35 34 4 21 6 1 11 10 5 5 9 7 6 10 4 4 23 22 34 37 39 38 41
32 31 30 31 31 25 20 19 21 21 15 21 17 13 2 7 8 7 10 4 25 34 21 29 17 23 4 2 3 4 3 1 4 7 7 10 3 5 27 31 32 35 35 35 38
33 34 32 32 32 26 21 22 19 12 12 13 15 8 5 5 13 12 14 8 14 30 23 9 21 5 8 1 4 4 4 7 3 8 3 6 1 10 23 25 27 33 35 35 35
33 34 31 29 29 23 23 22 15 7 20 7 16 6 12 19 14 8 12 12 11 24 18 5 8 2 2 4 6 7 4 4 5 3 7 6 1 13 25 27 29 29 33 34 36
31 32 30 27 23 21 21 12 11 2 13 7 8 3 18 24 18 11 8 15 10 17 7 7 4 15 26 10 3 4 4 6 4 6 5 8 7 16 23 21 25 29 32 35 39
33 34 31 25 14 16 17 13 12 13 9 8 6 12 18 20 6 25 12 9 7 5 7 3 14 14 6 8 7 7 2 4 5 2 4 5 10 12 18 28 36 35 33 35 33
33 34 34 22 5 17 14 17 20 10 2 6 4 15 20 13 5 19 22 1 5 6 11 7 5 11 9 6 10 12 8 5 1 4 2 4 5 6 14 15 23 25 31 31 36
32 33 30 16 3 14 11 18 18 2 5 4 8 10 18 6 3 13 23 3 3 9 7 10 7 10 13 15 10 9 14 14 5 1 3 2 5 6 8 17 19 24 32 33 36
30 28 18 12 4 9 15 20 8 5 2 3 6 9 14 8 8 19 14 5 4 4 4 8 7 12 11 20 13 12 8 11 11 5 1 5 1 7 10 11 16 24 32 35 39
27 20 10 9 9 13 16 15 7 5 3 3 5 6 7 9 6 16 10 14 2 5 3 8 7 8 19 9 15 4 1 3 3 4 8 11 10 6 7 12 18 19 30 33 36
26 16 7 10 19 14 16 2 4 3 3 3 3 5 3 6 6 8 5 8 6 8 7 6 11 4 4 10 14 10 10 2 3 5 12 8 12 9 8 9 14 22 36 41 41
27 18 3 12 13 13 14 4 3 2 1 1 3 1 3 7 3 7 3 3 6 6 3 5 7 8 5 12 9 14 11 6 8 4 14 6 7 6 20 12 27 31 41 35 32
28 14 1 9 10 12 6 4 4 1 2 1 1 4 3 3 3 6 3 2 3 3 4 5 6 5 5 4 7 6 14 11 4 1 1 9 4 8 3 13 12 24 26 30 36
27 8 6 18 13 10 5 3 3 1 2 3 2 1 1 3 4 5 1 4 2 5 3 3 6 3 7 4 8 11 9 8 3 6 5 4 6 8 8 9 10 8 20 27 37
17 2 14 17 5 4 3 3 2 2 3 4 5 3 3 2 2 2 2 2 3 4 7 2 5 8 6 6 10 6 11 4 7 7 6 1 6 8 11 14 14 14 26 32 35
12 3 18 15 6 4 2 6 6 3 3 2 3 5 5 6 3 4 5 2 4 2 1 3 2 6 8 5 7 3 4 5 9 12 4 4 6 4 10 11 13 21 28 34 37
15 6 12 14 4 3 6 5 4 3 3 3 2 2 2 5 2 4 2 6 7 1 2 2 2 4 6 4 4 5 3 5 6 2 20 12 5 5 7 7 18 23 33 25 32
7 4 7 13 7 3 5 3 5 12 2 4 3 5 2 2 4 2 3 3 10 6 5 3 3 6 5 3 2 6 14 7 4 3 3 12 11 6 7 7 4 12 17 20 24
6 2 3 4 4 2 3 4 5 4 5 5 1 5 3 1 2 4 4 3 1 5 3 3 5 6 11 12 10 10 16 17 6 12 3 6 10 10 10 10 7 10 13 19 28
4 4 3 4 5 3 1 2 5 6 3 5 7 8 1 5 5 4 4 4 6 3 4 2 4 4 5 12 14 15 16 15 18 18 11 17 10 4 5 5 6 9 14 18 25
5 2 1 4 2 2 2 2 4 9 7 15 12 4 5 10 9 16 18 13 6 7 7 5 3 2 5 4 8 6 15 8 6 9 3 6 2 7 1 6 11 14 17 21 25

GFSSW_850_spd_051.txt.gz
Wind_Speed
22 22 22 21 20 18 17 15 15 17 18 22 20 15 13 12 11 13 13 10 18 14 24 23 20 17 15 11 5 3 2 3 4 3 2 4 5 4 6 15 5 9 9 23 34
25 24 23 22 21 20 18 16 15 17 19 24 20 15 13 12 12 13 6 8 14 18 29 29 23 20 10 9 4 5 3 3 4 7 4 6 6 8 5 14 6 8 17 33 34
26 26 24 24 22 21 20 18 17 18 20 19 18 11 12 12 6 3 3 7 21 23 24 27 23 17 10 10 8 5 4 2 6 8 6 1 7 7 7 10 11 22 29 36 37
26 26 25 25 24 21 20 19 18 20 23 15 14 16 13 7 1 0 3 5 25 28 26 25 21 13 9 8 14 4 11 5 1 7 4 5 3 4 13 2 12 23 32 41 40
25 24 24 25 24 22 20 18 19 21 22 14 12 19 10 3 3 6 4 4 26 31 28 24 26 14 10 10 9 14 5 6 7 7 9 9 10 6 13 3 11 25 34 39 37
27 26 25 25 25 22 19 17 18 19 19 12 18 14 1 1 3 7 5 10 28 29 26 23 18 13 8 6 10 6 16 11 10 9 9 10 9 9 5 12 20 28 36 39 38
29 29 28 26 25 22 17 18 20 18 13 17 15 9 6 3 10 14 7 11 29 22 25 20 6 17 6 5 9 9 5 8 10 10 7 4 4 9 15 17 24 28 35 37 35
31 30 29 27 24 21 19 19 18 14 11 12 15 10 6 8 9 9 9 4 23 21 18 17 7 14 1 4 1 5 5 5 4 11 7 9 2 6 18 22 23 27 34 36 34
31 30 28 26 23 21 22 21 14 8 11 11 13 7 6 10 12 6 5 5 16 26 11 12 8 5 7 2 5 5 8 13 4 8 5 12 1 8 17 19 24 28 33 35 34
29 27 26 23 19 20 21 16 7 7 9 6 17 4 16 14 14 5 7 8 9 21 9 7 11 7 7 10 12 12 13 7 13 8 11 13 6 11 19 19 24 28 32 32 34
28 28 28 22 11 15 19 5 6 3 10 6 5 7 10 7 21 17 5 9 13 15 11 9 10 21 20 15 10 5 6 12 10 7 10 13 10 13 19 19 21 26 31 33 35
31 32 29 21 8 11 15 11 13 6 5 6 11 10 11 12 5 22 7 4 6 8 11 6 18 16 12 13 13 17 7 12 10 2 9 9 14 11 19 24 29 31 32 35 33
30 31 26 15 6 9 14 16 15 5 2 1 5 12 13 7 6 14 12 1 6 8 16 15 2 15 14 14 18 19 19 11 6 5 10 7 13 12 15 17 21 24 25 27 34
27 27 20 10 2 9 9 16 13 2 0 2 3 6 12 3 4 14 11 2 4 12 12 13 20 8 15 20 18 19 17 18 12 5 11 10 13 14 14 19 20 26 29 31 33
25 23 12 9 4 10 13 15 5 3 4 4 3 5 10 7 8 12 11 2 1 3 5 10 9 17 16 18 19 15 8 18 19 14 11 12 8 16 10 15 20 27 32 32 34
24 22 11 7 7 11 11 10 5 2 5 2 3 5 4 7 5 10 9 7 1 3 3 13 10 13 19 13 18 9 4 13 14 14 16 21 13 16 12 18 18 24 30 32 34
23 21 6 5 9 10 10 3 2 4 1 3 3 3 3 5 5 7 4 9 5 2 1 3 13 12 14 12 17 20 15 6 7 10 19 19 16 17 13 13 15 21 32 36 37
24 18 5 8 5 8 9 2 6 2 2 2 1 1 2 5 3 5 1 2 7 3 1 3 10 10 15 20 10 22 19 9 12 12 16 16 13 14 24 26 15 20 26 26 32
24 5 3 12 8 7 3 4 1 1 2 3 2 3 3 1 3 2 2 2 4 6 3 2 6 3 5 9 19 15 22 21 13 3 10 15 19 11 13 16 24 22 18 23 29
20 4 14 16 13 6 1 0 1 0 1 2 3 4 4 2 2 1 2 1 4 4 1 2 7 2 4 4 14 19 12 18 13 19 14 8 19 14 21 15 17 18 22 23 27
12 3 17 13 6 5 1 1 2 2 2 4 5 3 4 4 4 4 3 3 2 1 1 1 2 3 6 7 17 14 13 14 18 16 14 15 8 13 19 20 19 15 28 28 28
9 1 20 11 6 3 2 6 6 4 4 2 2 6 7 6 5 6 6 3 7 2 1 1 1 5 8 9 7 9 13 25 13 22 19 11 11 5 13 19 25 29 26 28 32
7 6 15 10 4 4 6 4 3 6 4 3 2 4 4 6 5 7 5 4 7 2 2 3 2 4 6 8 3 2 1 4 9 6 20 18 14 13 13 10 10 13 18 16 22
5 3 8 14 7 3 4 4 7 10 1 5 4 2 2 4 5 2 6 6 7 4 4 2 3 5 10 12 13 8 7 5 7 14 17 19 19 20 22 14 14 13 12 11 15
6 3 4 4 6 7 5 4 7 7 6 8 2 2 0 6 5 6 6 5 7 7 5 3 6 7 16 19 18 21 21 15 11 10 12 17 10 19 18 17 20 10 10 8 9
4 2 3 1 2 4 2 4 5 5 3 4 7 9 6 7 8 3 3 7 8 7 6 3 4 5 19 19 18 21 22 19 17 18 10 14 14 8 9 8 5 4 9 14 14
6 4 2 4 3 2 1 2 3 11 7 13 8 4 6 8 14 16 13 16 12 6 8 5 1 5 11 13 14 15 24 19 13 6 13 13 7 10 8 1 6 7 9 13 17

GFSSW_850_spd_054.txt.gz
Wind_Speed
23 22 20 20 18 16 16 14 12 13 15 19 19 15 10 9 8 7 7 9 16 16 20 21 20 17 18 13 6 5 5 4 1 7 7 11 8 11 8 12 7 11 8 22 36
23 23 22 22 21 19 17 16 14 13 16 19 14 15 8 8 7 6 6 8 14 19 23 26 22 20 17 14 7 7 5 3 2 8 9 9 12 11 9 13 10 8 13 34 37
23 22 22 22 22 21 19 17 15 15 16 18 11 13 13 7 2 5 3 9 19 22 23 20 19 20 14 14 12 9 5 3 4 4 8 5 6 8 6 9 11 17 30 35 38
23 23 23 22 21 22 19 17 16 16 17 16 9 14 13 0 1 2 5 7 20 25 23 22 22 20 15 12 16 9 11 8 7 10 8 8 4 6 5 5 9 20 30 38 39
23 23 22 22 20 21 19 16 16 18 17 14 12 13 3 2 2 7 4 6 25 26 27 25 26 19 14 13 7 16 9 10 7 7 4 3 5 3 6 5 14 23 30 37 37
25 24 24 23 21 19 18 16 16 17 14 13 10 9 4 4 7 8 4 14 25 25 25 23 18 16 11 8 14 2 17 6 6 11 7 9 6 5 7 11 18 25 30 37 37
26 25 24 23 21 17 16 17 16 13 9 9 10 13 6 6 8 9 5 13 18 22 23 20 6 17 4 10 13 11 8 11 14 14 12 7 11 10 13 16 20 23 28 34 34
27 26 26 24 21 17 16 16 12 8 6 8 12 13 7 5 6 5 6 11 17 15 19 15 10 18 8 3 8 14 14 13 17 14 10 10 8 12 16 18 19 23 27 33 34
28 26 26 23 19 17 17 15 4 12 4 10 9 2 5 9 4 2 2 9 17 10 16 13 11 13 15 11 11 14 14 18 14 19 11 16 7 14 16 16 18 23 28 33 32
25 24 24 21 15 15 16 8 3 10 4 5 10 3 10 7 7 4 4 14 16 16 10 18 13 11 12 14 15 15 18 14 17 13 18 16 8 12 16 16 18 22 25 31 34
25 24 23 17 9 12 14 6 3 1 6 6 6 6 5 3 9 6 9 7 10 20 12 17 15 19 19 17 17 10 13 19 13 6 14 16 15 13 15 16 19 22 26 30 33
24 23 21 12 7 10 14 6 5 2 1 3 3 5 4 3 1 11 6 7 13 16 17 10 18 18 14 14 17 14 10 14 8 5 11 16 16 14 15 17 20 22 26 29 30
23 21 17 8 6 8 7 8 8 1 5 4 1 4 4 1 4 8 3 5 11 15 18 18 4 17 13 16 17 19 19 14 13 4 14 15 18 17 16 16 18 21 24 27 31
24 20 13 5 2 10 4 14 10 4 5 8 5 3 4 3 3 6 6 3 7 11 14 17 21 6 16 19 18 19 18 15 15 11 14 19 14 22 18 19 18 23 27 28 31
23 19 13 3 1 6 10 13 3 2 5 5 5 1 3 1 3 5 5 3 7 9 10 12 13 18 17 16 19 16 14 16 17 16 15 14 13 13 23 19 19 23 27 28 31
22 18 10 2 4 6 9 7 2 6 4 5 3 1 4 2 2 4 2 1 2 7 13 17 9 15 21 20 12 9 14 14 15 16 18 23 18 19 18 20 21 24 27 28 31
21 15 4 0 3 5 6 1 5 6 2 5 2 1 1 2 2 3 2 2 5 8 15 16 19 17 16 17 19 16 16 10 12 15 22 22 21 19 16 18 20 20 27 29 31
21 9 3 2 3 4 2 5 7 5 1 3 1 1 3 3 2 2 2 5 2 6 10 9 14 20 19 22 20 23 19 13 21 14 19 24 27 23 25 20 19 20 25 26 28
16 4 5 10 5 3 9 7 5 2 2 3 4 6 5 4 5 4 3 3 1 3 7 6 12 3 6 16 21 21 23 24 23 17 13 18 22 21 19 26 24 18 19 23 26
8 5 10 11 5 6 7 1 1 1 1 4 6 2 6 5 5 2 2 4 4 1 4 3 8 9 5 7 20 21 16 21 17 23 24 15 20 19 20 21 24 25 25 21 26
4 4 11 7 4 7 4 4 0 1 4 3 6 7 7 8 7 7 3 5 3 3 5 4 5 6 5 13 20 17 21 19 19 20 19 19 15 14 21 25 21 23 32 30 24
4 2 15 4 3 1 3 3 3 3 2 5 6 10 11 9 9 8 7 4 4 2 5 1 6 11 16 8 6 13 15 29 15 26 22 18 11 9 9 17 26 24 26 30 30
5 4 12 5 1 4 4 3 2 4 4 4 5 3 6 9 6 8 5 2 7 4 2 3 5 9 14 17 18 13 15 18 17 20 26 20 19 11 5 9 18 25 30 24 23
4 1 7 16 13 7 3 7 5 4 3 6 7 7 9 11 10 5 8 6 8 8 4 3 11 12 13 10 10 7 11 7 16 17 21 21 19 22 16 9 9 12 12 13 13
6 5 3 5 9 6 2 3 2 5 5 9 4 7 8 8 12 13 10 10 10 8 9 7 13 12 13 16 14 15 17 18 19 17 23 20 23 17 21 19 18 15 10 6 7
4 3 4 7 5 8 9 8 5 5 4 7 6 9 6 8 13 8 13 15 14 14 13 10 10 9 15 17 18 21 21 20 21 21 20 22 23 21 5 11 13 14 6 8 8
6 6 3 5 3 1 1 2 4 8 5 11 11 7 7 13 17 17 19 16 13 9 14 14 10 11 15 15 10 15 23 23 22 22 20 23 20 18 7 9 6 7 9 7 8

GFSSW_850_spd_057.txt.gz
Wind_Speed
19 19 18 18 18 17 15 14 12 12 13 16 16 14 9 6 6 6 6 9 14 13 16 17 21 18 16 13 14 10 6 2 4 4 8 15 7 7 3 9 9 9 11 25 37
20 20 20 20 19 19 17 14 12 12 14 16 16 10 11 6 5 10 12 15 17 19 20 23 24 20 19 20 9 9 8 5 12 9 8 16 18 17 11 12 11 11 21 32 39
20 20 20 20 20 19 18 15 13 12 14 15 14 8 12 4 2 5 12 13 20 22 19 20 18 19 20 16 19 13 12 12 8 7 13 5 6 15 12 12 16 17 30 36 39
21 21 20 21 21 19 17 15 14 14 16 13 7 12 9 5 0 4 6 10 19 24 19 21 20 21 19 16 19 15 12 5 4 11 13 7 13 10 11 2 15 22 29 37 38
21 21 21 20 20 19 17 15 15 16 14 9 10 8 2 7 1 7 6 10 19 28 23 24 22 21 17 17 13 16 11 4 10 11 13 13 4 3 22 13 20 27 29 36 35
22 22 22 21 20 19 17 15 15 15 11 9 10 4 3 11 3 6 1 10 22 26 23 23 19 21 12 17 15 7 17 6 9 14 12 14 10 13 13 18 23 28 29 34 34
23 23 23 23 21 18 17 16 13 12 7 6 5 9 5 3 3 1 4 11 19 22 22 21 16 18 13 14 16 18 10 15 21 13 12 11 15 13 14 22 24 27 28 33 33
24 24 23 24 22 18 16 15 10 6 1 4 6 4 2 0 2 1 6 12 15 18 18 18 16 15 19 10 8 16 16 15 18 14 17 14 9 17 21 24 25 26 27 32 32
23 23 23 23 21 16 15 12 2 6 6 6 2 3 7 4 2 4 6 12 16 14 17 16 15 18 20 13 13 15 14 20 12 22 14 14 3 17 24 23 24 25 28 32 33
23 21 20 19 15 14 14 7 1 4 2 2 2 7 3 2 1 3 7 11 17 13 16 15 13 16 16 15 15 17 18 17 15 22 20 15 13 22 24 23 22 24 27 32 34
23 20 18 15 10 11 12 8 4 4 9 6 5 3 5 2 2 3 9 14 16 16 16 22 14 18 20 19 20 20 14 19 18 15 15 15 13 30 19 20 23 24 27 31 34
22 18 15 12 6 9 12 4 4 5 6 4 2 3 3 3 6 5 10 15 14 17 19 13 20 19 17 17 17 19 14 16 18 15 12 9 16 11 20 18 23 25 27 30 32
21 17 12 8 4 7 3 5 5 3 8 10 5 3 4 5 1 4 7 13 13 19 20 20 10 20 20 18 16 18 18 16 14 14 15 10 12 17 17 22 22 23 25 29 34
24 18 11 4 2 4 1 8 6 4 6 13 10 5 5 4 7 2 1 7 11 16 19 21 22 8 19 20 17 18 17 18 17 16 12 19 12 17 14 20 20 24 27 29 32
22 18 10 5 4 4 7 8 2 4 6 7 8 2 4 9 4 7 3 7 13 13 11 17 18 22 17 20 17 17 16 16 17 18 16 19 18 17 21 16 23 24 28 29 32
21 15 4 3 3 4 7 5 3 7 4 7 4 4 10 5 4 0 4 6 6 9 13 17 15 16 21 17 16 16 17 15 14 15 18 24 18 21 15 16 24 27 31 30 31
19 10 1 5 3 7 6 4 7 9 3 8 5 6 5 5 7 3 3 10 9 11 15 18 20 17 14 17 22 17 16 13 14 14 19 24 24 18 23 27 14 23 33 34 32
16 4 4 1 6 5 5 9 9 4 5 5 1 4 9 3 8 4 8 10 9 12 13 14 16 21 19 21 19 24 22 15 22 15 20 24 26 23 25 19 14 19 38 35 33
8 4 1 6 5 3 10 9 4 8 7 3 7 10 11 6 6 3 9 11 4 3 12 9 20 5 6 19 21 22 24 25 25 24 17 19 26 24 26 26 26 32 24 36 37
5 3 3 8 4 5 7 11 4 7 6 6 10 1 8 9 4 8 6 6 2 3 8 8 13 13 5 9 18 21 18 21 18 24 27 20 22 19 27 24 26 20 18 22 27
3 7 4 9 2 11 7 6 4 5 7 4 6 9 6 10 5 13 7 5 4 3 8 14 8 16 17 12 19 16 20 18 18 23 21 19 17 15 21 25 24 24 28 24 27
3 3 11 4 12 4 6 5 3 4 1 6 4 8 10 11 11 10 12 5 8 6 9 6 10 14 21 13 18 24 22 26 18 22 21 21 16 14 13 21 24 24 29 36 31
7 4 11 6 4 5 4 3 3 4 5 5 5 4 9 9 9 10 13 3 4 8 4 7 10 13 17 15 16 16 21 16 20 26 24 20 20 22 3 9 11 23 32 30 35
7 1 5 13 8 5 0 4 3 5 3 6 9 10 10 12 11 8 11 3 7 12 6 4 13 15 14 8 11 14 24 23 20 16 21 24 21 26 9 4 11 17 24 30 30
7 5 4 7 7 6 6 2 1 7 7 5 3 6 7 7 10 13 12 12 10 8 8 10 16 16 17 18 13 16 15 13 18 14 18 21 25 23 15 13 8 7 11 17 16
6 3 6 9 7 3 5 10 11 4 8 5 7 9 8 11 11 14 9 11 14 10 14 14 17 15 18 16 15 18 19 18 21 20 20 24 26 21 23 17 16 9 11 5 8
6 5 5 3 10 6 7 6 6 9 2 5 7 9 8 10 13 15 19 17 14 14 12 14 13 14 19 17 18 20 21 20 22 23 22 22 23 20 19 10 19 15 11 4 11

GFSSW_850_spd_060.txt.gz
Wind_Speed
19 19 20 19 19 17 17 15 15 13 14 14 15 13 11 8 6 7 10 9 17 9 17 12 17 20 14 17 15 4 4 4 5 1 9 18 13 15 8 10 16 14 21 32 37
20 20 21 22 20 19 17 16 13 14 13 16 14 12 10 11 8 13 11 16 15 14 21 18 21 21 22 21 16 10 3 6 10 4 13 22 17 19 15 15 13 15 23 35 38
22 22 22 22 21 20 18 16 14 13 15 15 14 5 10 9 5 6 17 18 18 18 19 17 18 21 19 18 20 16 15 16 13 19 7 8 7 6 3 12 21 26 33 39 39
22 22 22 22 22 20 18 16 15 15 15 14 9 9 9 4 2 5 5 12 18 22 19 20 21 21 18 19 21 18 13 4 3 3 10 10 10 8 14 10 17 29 33 40 38
22 23 22 22 22 21 18 16 16 16 14 12 10 8 4 5 4 6 5 9 18 26 20 20 22 21 18 19 20 17 16 10 7 5 7 9 23 15 23 12 8 29 34 39 37
22 22 23 22 21 20 18 16 15 15 13 10 11 9 5 9 1 2 3 9 17 26 20 21 19 19 18 21 17 18 14 13 7 16 12 10 16 12 4 21 26 30 34 40 38
24 23 23 23 22 19 16 15 14 12 7 7 2 6 9 7 1 3 3 10 17 25 20 20 18 16 19 12 18 18 17 11 11 9 10 18 5 7 26 28 29 29 34 36 36
23 23 23 23 22 17 14 14 11 8 4 2 1 3 7 3 6 3 7 8 14 20 19 15 17 15 19 17 17 12 17 15 15 16 15 18 5 17 31 23 30 30 34 32 31
23 22 22 22 20 14 13 10 2 2 2 6 1 4 7 4 2 6 7 12 14 17 18 16 17 17 15 16 13 14 14 19 15 21 13 14 3 8 7 30 29 29 33 35 33
23 22 20 20 15 12 9 7 2 2 3 3 9 9 9 4 1 5 7 11 16 16 15 16 14 13 13 14 14 16 17 16 17 17 14 15 11 8 16 16 30 27 31 34 34
23 21 20 17 10 7 8 8 4 4 12 11 2 6 3 3 4 5 8 12 16 14 14 22 12 17 20 21 20 20 19 17 17 17 18 17 14 12 22 18 19 30 30 33 37
23 20 18 15 7 3 7 8 5 6 9 11 7 5 2 5 5 5 10 13 15 14 17 13 19 19 18 20 18 19 20 19 12 15 18 17 12 17 9 14 27 29 31 34 36
25 20 16 12 6 1 4 6 7 6 8 15 12 10 6 7 6 9 10 16 15 16 18 20 13 21 20 17 17 18 17 16 17 9 19 13 15 10 6 13 28 25 30 34 38
25 21 15 7 3 7 4 7 8 5 5 15 10 7 7 7 7 5 5 9 16 16 19 21 22 14 20 20 17 18 15 18 19 17 12 18 10 20 23 21 25 13 33 35 38
23 19 12 8 7 8 6 8 6 3 5 12 11 4 4 13 10 9 4 7 13 14 11 18 21 20 18 15 20 17 16 14 16 18 19 21 12 12 29 21 8 27 24 35 38
21 17 5 1 4 2 7 7 1 6 5 6 7 8 10 11 6 4 7 8 9 10 14 15 20 17 19 18 15 16 15 17 17 14 16 21 18 14 13 13 17 28 30 35 39
20 9 2 7 4 7 8 6 6 9 11 8 9 6 11 12 5 6 9 12 9 9 13 14 17 17 14 16 19 15 14 12 13 13 17 18 19 15 14 26 30 26 38 39 40
14 5 7 3 6 9 7 9 7 8 8 8 2 2 5 7 7 4 5 9 10 9 13 13 13 20 16 17 16 21 18 13 16 14 17 20 20 19 23 17 50 49 46 27 45
7 4 5 4 9 4 11 9 3 13 14 4 6 7 9 9 4 3 9 12 10 5 7 10 16 19 11 18 18 20 19 22 23 22 16 17 18 23 21 22 18 20 20 26 16
10 2 2 7 6 5 8 12 7 16 12 5 6 8 9 8 12 5 8 6 0 8 8 9 14 16 16 9 14 20 19 18 15 22 24 18 21 13 20 18 17 19 21 21 24
6 7 3 9 2 8 8 6 11 11 11 10 10 12 8 12 10 5 10 4 2 3 2 11 11 18 17 13 13 13 15 20 19 17 18 16 16 18 14 22 18 20 30 31 23
7 3 11 5 9 7 7 12 4 9 6 4 4 6 7 12 14 9 8 8 11 10 6 14 10 12 17 19 19 17 21 20 14 18 16 15 17 21 10 9 21 23 25 36 41
9 6 10 6 4 7 8 10 9 12 9 8 6 6 7 7 6 8 10 12 4 3 9 9 7 10 15 15 20 13 19 20 21 19 22 16 15 25 17 13 9 19 22 26 44
8 2 8 13 12 11 7 7 7 9 6 8 8 8 8 9 8 6 7 5 10 6 6 4 12 17 14 11 13 12 15 19 21 16 17 20 24 21 16 8 13 10 6 18 34
7 7 5 9 9 9 13 10 6 8 11 5 2 6 8 9 8 9 9 4 7 6 7 6 15 18 21 24 20 18 17 18 20 23 20 19 22 22 9 21 20 28 29 15 19
11 8 7 9 9 5 10 9 9 12 9 11 10 12 10 8 12 15 14 12 9 6 6 15 15 17 20 22 21 21 19 18 20 20 22 18 21 20 21 8 27 29 32 42 11
8 6 7 8 9 7 6 6 7 6 3 5 7 9 7 10 12 15 19 18 17 13 13 10 7 12 18 17 21 21 20 19 20 20 18 18 19 18 15 16 11 20 23 30 35

GFSSW_850_spd_063.txt.gz
Wind_Speed
21 21 22 21 20 19 18 16 15 14 13 13 15 14 11 10 8 10 14 10 15 10 15 7 15 20 12 18 23 17 2 4 3 3 3 11 6 10 12 13 21 14 30 44 39
22 22 22 22 21 20 19 16 15 15 15 14 15 15 8 12 12 16 10 15 12 14 17 15 17 17 24 19 16 6 3 4 4 2 4 18 18 17 8 14 12 20 34 41 37
23 22 22 23 22 21 20 17 15 15 16 16 14 11 11 13 6 6 9 12 15 15 16 15 13 18 20 25 20 13 8 7 12 18 7 8 5 6 4 7 20 37 39 43 38
24 24 23 23 22 21 20 17 16 15 15 14 13 9 11 5 2 1 3 7 15 17 20 19 20 23 15 13 24 17 21 14 10 17 15 18 6 5 2 5 10 42 49 45 35
23 24 24 23 23 22 19 17 15 15 14 13 10 10 8 3 7 4 7 7 14 21 25 19 16 25 14 14 21 18 20 20 11 9 14 21 14 6 15 8 4 31 40 40 34
23 23 22 22 22 22 19 15 15 14 12 10 11 10 5 5 3 3 4 5 14 23 26 19 13 20 19 20 15 22 18 16 19 17 21 12 8 9 4 15 14 29 37 35 34
24 24 23 22 21 21 17 15 15 12 8 7 5 2 5 11 2 4 5 9 12 23 25 21 22 23 18 11 22 18 11 12 19 22 7 11 8 3 20 19 19 28 34 32 36
23 24 22 21 21 19 16 15 13 7 5 4 1 6 7 2 10 9 9 8 9 16 24 13 13 24 20 17 21 10 7 5 6 17 18 20 11 13 22 26 17 27 35 36 36
23 22 22 21 19 17 13 11 8 3 2 4 0 5 8 4 2 8 10 11 8 13 21 17 21 19 16 5 7 6 5 8 14 21 12 12 11 21 31 24 23 31 35 37 38
24 23 21 19 17 14 10 11 6 4 5 6 6 9 9 5 5 5 10 12 15 13 17 24 21 5 5 3 6 9 6 9 11 11 16 16 16 19 30 17 5 32 32 38 36
25 24 22 19 13 9 8 8 6 1 10 11 6 7 9 3 4 6 8 10 17 17 9 16 4 8 8 10 13 16 15 13 12 9 15 13 24 22 26 21 17 31 35 32 30
26 24 23 18 11 5 8 8 8 6 10 18 17 13 2 5 5 6 9 10 12 6 9 6 12 9 12 15 16 18 14 14 13 11 11 17 17 22 21 22 24 17 37 42 38
26 23 22 16 8 3 7 4 9 7 5 12 20 14 10 8 9 15 10 16 9 9 9 11 12 18 16 15 15 13 9 11 11 10 6 16 3 12 9 19 26 20 19 26 44
24 22 19 12 2 6 8 1 9 6 3 5 12 5 8 4 4 11 4 5 6 9 12 8 18 16 16 15 12 7 10 12 11 7 2 7 5 9 9 8 10 16 12 14 43
22 21 14 9 7 5 11 9 13 2 3 11 9 6 7 8 9 5 3 5 8 8 6 8 13 13 14 11 14 9 10 8 9 7 5 11 2 6 12 6 10 24 35 30 25
19 18 6 2 3 6 14 12 7 1 5 6 6 7 4 7 6 8 5 6 8 6 9 9 15 9 12 13 9 6 8 9 7 5 6 8 4 1 9 12 9 27 42 28 21
18 9 3 5 3 10 12 11 2 4 9 6 6 8 10 7 5 3 6 6 4 2 4 7 11 9 11 6 7 6 2 3 4 5 6 7 5 8 12 17 20 23 35 37 24
11 4 7 6 5 12 10 5 3 11 9 6 8 3 3 9 3 6 4 4 8 8 2 3 7 8 5 5 3 7 8 5 6 6 5 8 5 7 16 32 39 29 26 24 23
8 4 1 7 9 6 10 3 6 10 13 10 4 2 4 5 5 4 2 6 7 13 4 6 6 17 13 7 11 8 5 9 7 9 4 6 8 13 11 19 30 33 29 28 27
10 3 1 7 4 4 3 5 9 11 11 10 8 9 7 4 5 7 5 9 6 9 11 7 6 6 15 17 6 9 4 3 3 7 7 6 8 6 6 13 25 22 26 21 21
9 5 6 8 3 8 2 3 9 15 14 9 9 8 9 9 12 6 6 14 14 10 10 6 3 10 11 4 8 7 4 4 1 2 6 6 7 9 9 6 15 24 35 44 41
5 1 12 6 3 7 5 3 7 12 16 6 3 5 7 9 8 8 8 5 9 13 6 6 1 5 13 19 18 13 9 4 4 8 3 4 8 13 10 14 30 25 39 49 53
11 2 15 17 4 5 7 14 15 11 12 12 11 12 10 8 5 7 7 17 17 7 4 6 3 4 10 7 5 7 13 13 3 2 8 4 7 3 13 17 22 31 14 36 50
7 2 11 18 20 14 9 9 8 19 15 9 6 9 8 8 7 4 7 4 14 12 6 3 1 2 5 11 10 14 21 18 9 2 5 5 7 15 13 13 21 23 33 4 19
5 4 10 5 8 10 11 10 14 10 13 21 12 15 10 5 8 7 12 9 7 5 4 1 4 6 10 14 15 20 20 20 14 8 3 9 15 6 8 8 16 20 23 28 21
7 6 11 11 15 14 9 9 12 8 10 10 9 10 7 8 8 8 8 8 4 9 4 4 3 6 10 12 15 18 19 21 17 13 12 11 15 10 22 26 21 28 21 25 28
12 11 11 12 13 8 8 7 10 10 9 14 10 7 6 11 16 19 21 22 17 7 5 5 1 4 5 9 12 11 12 16 17 12 9 10 10 15 17 19 24 29 26 25 22

GFSSW_850_spd_066.txt.gz
Wind_Speed
21 21 21 20 19 17 17 16 14 13 13 13 13 13 14 9 10 12 16 8 13 12 17 11 13 19 17 11 16 8 2 3 2 1 4 12 5 8 6 16 13 3 23 41 37
21 21 21 21 20 19 17 15 14 13 13 14 14 13 11 10 14 16 5 13 18 13 17 16 21 21 11 10 7 9 3 4 4 3 4 11 12 11 9 15 13 8 31 32 35
23 23 21 21 20 20 19 16 14 14 13 13 13 11 8 12 10 2 8 15 19 16 13 11 16 17 13 12 11 10 7 5 5 10 7 5 8 2 11 9 9 15 34 33 43
23 23 23 21 20 20 19 17 14 13 13 12 12 9 9 7 2 3 4 8 15 13 15 19 16 10 5 8 14 7 18 15 4 14 11 10 9 5 4 4 12 29 43 40 36
23 22 21 22 22 19 18 17 14 15 13 11 9 9 7 5 6 1 3 9 15 16 20 23 17 15 5 6 16 12 14 16 14 23 18 14 5 5 12 10 13 29 29 36 33
23 22 22 20 19 21 19 15 14 15 13 9 8 8 6 4 4 2 5 5 12 20 23 27 17 24 9 12 9 10 14 21 22 21 18 15 8 4 3 16 14 29 32 31 28
24 24 22 20 20 18 19 16 14 14 11 7 4 3 5 9 4 1 4 3 6 17 25 28 20 6 4 7 19 17 5 8 20 20 9 20 7 3 10 14 24 32 32 31 24
22 23 23 21 19 19 16 14 12 10 7 4 3 4 6 8 8 10 7 3 3 12 20 24 16 14 12 15 12 6 2 0 8 14 12 7 5 16 18 18 15 26 29 30 26
24 23 21 20 20 18 15 11 10 6 3 2 2 4 5 5 7 11 13 11 4 11 20 18 5 10 10 3 5 6 4 5 3 22 10 4 5 11 19 17 11 23 32 29 30
25 25 23 19 18 17 12 12 6 5 4 4 6 7 6 4 8 10 9 14 8 10 6 8 6 2 3 4 4 4 3 6 5 7 8 8 7 16 20 17 18 18 30 31 33
26 25 24 20 14 14 5 6 3 2 6 8 2 6 2 8 6 10 15 10 11 10 4 6 3 5 9 6 6 3 5 11 15 7 6 17 10 19 21 20 23 24 26 29 36
26 25 23 19 12 7 8 5 7 6 8 14 19 21 16 6 2 11 13 5 9 5 3 3 6 9 7 6 8 7 8 15 13 7 8 14 13 16 21 24 20 25 31 30 31
25 23 22 16 6 1 5 5 8 11 3 12 14 13 11 8 4 13 16 13 4 6 6 6 10 8 7 7 8 9 8 15 11 6 11 8 9 16 13 7 7 15 21 24 33
21 22 20 9 4 4 9 9 8 8 4 6 6 5 11 6 2 17 11 3 3 8 6 6 16 10 10 12 6 7 8 11 5 5 2 6 3 7 6 8 12 19 29 28 30
19 21 13 7 2 7 13 8 7 2 1 3 5 8 11 6 11 3 6 3 1 2 4 7 5 7 7 12 7 11 13 6 2 2 5 4 6 5 16 9 16 24 44 45 36
18 17 8 4 9 12 12 9 6 5 2 4 5 5 5 3 1 8 2 3 2 2 1 7 5 4 8 9 8 9 2 6 4 3 3 4 5 4 10 25 20 25 38 48 44
14 8 5 3 8 10 10 10 4 2 6 4 4 5 5 5 4 4 3 2 3 3 2 5 5 4 2 3 6 4 7 3 4 4 5 4 4 8 20 15 25 34 43 44 30
4 4 8 10 9 8 14 4 6 7 5 6 4 5 5 5 2 3 3 3 5 1 2 1 4 8 9 5 2 1 8 5 5 2 3 5 3 5 9 24 36 48 50 38 26
1 3 6 6 10 8 8 5 1 5 6 8 5 4 8 5 6 4 8 8 4 5 5 3 4 5 9 5 1 5 1 6 5 1 4 3 8 7 1 4 16 26 31 37 37
8 4 7 10 8 6 5 5 3 6 7 7 7 6 7 8 7 4 6 7 4 9 5 3 3 3 7 9 13 7 4 3 3 3 3 4 4 5 12 16 8 12 20 33 42
8 4 14 4 2 2 2 2 8 22 19 8 7 6 5 4 6 5 5 3 5 5 14 3 4 8 4 6 3 7 6 6 2 5 5 2 5 1 7 9 10 6 21 29 30
6 4 20 5 6 2 3 4 9 13 22 8 9 8 5 6 6 6 7 6 9 5 4 6 3 3 4 6 2 4 5 6 4 7 1 4 4 6 4 4 11 18 15 36 38
5 5 26 14 4 5 5 12 20 10 11 7 11 8 6 6 5 6 6 12 22 7 3 5 4 4 12 6 8 6 7 5 5 2 2 5 5 9 15 14 20 27 18 26 30
5 4 9 20 16 4 5 7 5 18 20 16 9 11 8 9 8 5 8 12 14 12 12 7 4 4 4 3 4 6 13 10 4 2 5 2 8 13 16 15 16 25 27 7 21
9 3 7 4 9 9 14 5 13 7 9 22 8 12 5 7 5 6 9 8 9 19 8 4 2 4 2 6 8 9 12 11 7 4 4 6 6 8 10 10 20 22 26 30 24
5 5 7 15 19 15 7 6 7 6 7 5 5 7 10 5 3 3 6 5 3 10 6 5 2 4 7 7 10 13 10 11 11 5 5 9 3 8 10 18 23 24 25 28 22
12 10 4 9 5 5 4 4 5 4 11 12 8 4 7 5 9 12 12 10 9 0 3 1 4 3 1 5 7 9 2 3 7 9 1 2 5 10 9 16 18 21 23 24 21

GFSSW_850_spd_069.txt.gz
Wind_Speed
19 19 20 19 18 17 17 16 14 13 12 11 11 12 11 12 9 11 15 9 16 17 20 19 16 17 19 13 9 5 2 3 1 2 2 12 5 4 7 17 11 7 23 36 36
20 19 19 19 19 19 17 17 16 13 13 12 11 11 11 8 13 17 7 15 20 16 25 22 21 21 9 8 7 5 2 4 3 4 7 14 10 11 6 8 4 24 31 34 35
22 21 20 19 17 17 19 17 16 14 13 13 11 10 8 10 10 2 9 19 21 18 18 17 19 17 4 5 7 6 4 2 2 7 14 15 12 8 17 5 14 30 33 36 35
21 22 20 19 19 17 16 18 15 13 13 13 11 9 7 6 2 3 5 19 22 20 18 18 22 11 4 5 8 3 9 16 6 8 9 14 11 9 13 7 22 25 34 38 38
22 21 21 20 19 18 16 15 15 14 13 12 10 8 7 5 6 4 5 17 23 22 22 22 21 12 5 5 7 6 12 12 18 13 10 16 7 6 10 15 15 28 33 36 35
23 23 21 20 20 19 17 16 14 14 12 10 8 9 5 3 7 6 3 15 21 23 24 26 18 22 3 4 1 5 10 16 22 18 14 11 7 7 9 16 9 35 33 38 37
22 22 22 21 20 19 17 16 14 12 11 6 5 2 6 7 8 6 2 4 11 23 26 28 9 13 2 4 9 18 10 6 4 14 6 18 5 5 14 18 22 25 32 32 35
23 23 22 21 20 19 17 15 12 10 7 5 5 5 6 6 8 11 7 6 7 12 20 26 22 5 3 6 6 3 3 3 3 10 9 7 4 7 12 22 20 30 28 29 33
24 24 23 21 20 19 15 13 11 9 4 4 4 4 5 9 13 13 11 9 7 11 16 10 16 6 3 1 4 6 1 2 2 6 6 5 2 9 16 17 22 29 28 29 26
25 25 23 20 18 17 13 12 4 3 4 4 5 4 5 6 7 9 13 11 8 14 10 9 8 2 2 3 4 2 2 2 1 6 4 6 2 8 15 17 17 24 31 30 28
24 24 22 19 16 12 6 1 2 1 5 8 2 5 2 2 11 13 14 16 8 13 5 8 4 5 7 6 5 3 3 3 3 4 5 15 7 12 16 16 19 23 32 32 29
22 22 21 18 11 5 2 4 10 3 8 13 15 18 14 8 4 12 15 12 7 4 5 5 5 8 2 3 4 3 1 5 7 3 7 7 6 6 9 9 15 19 26 33 32
21 22 21 14 3 4 5 13 12 6 3 8 11 12 7 7 5 11 14 9 5 4 4 5 4 5 4 4 3 4 3 4 6 5 3 7 4 5 5 4 7 12 14 26 33
21 22 19 5 5 4 8 10 8 1 4 6 5 6 7 5 1 9 17 9 3 8 7 4 4 6 6 6 6 6 8 8 5 2 2 0 2 5 6 11 7 15 21 25 30
19 19 12 4 4 9 10 4 4 1 2 3 3 7 10 6 10 6 11 5 5 4 6 6 2 5 7 10 6 9 6 7 6 3 4 3 5 3 10 16 19 19 26 34 39
16 14 5 5 8 7 6 5 1 4 1 2 5 4 6 2 2 6 4 5 3 5 1 5 2 5 7 7 9 6 3 5 5 3 2 5 4 5 5 16 14 21 32 35 38
9 9 7 4 6 8 8 1 4 2 7 4 3 4 5 2 2 2 4 4 3 4 1 2 2 6 5 2 3 5 6 2 2 3 5 3 4 7 16 13 16 25 34 39 37
7 6 6 8 7 9 10 5 8 5 4 5 3 4 5 3 1 3 4 4 7 4 3 4 1 6 8 2 1 2 7 5 5 5 3 2 5 1 5 16 25 28 31 38 37
4 7 12 9 11 13 2 6 2 4 5 7 3 7 7 6 4 6 4 4 6 4 5 3 2 5 4 6 2 2 4 1 7 4 3 3 5 5 11 13 6 20 22 32 36
5 6 20 11 10 13 6 5 2 9 6 6 6 5 5 8 5 5 5 5 3 9 1 1 3 2 5 5 9 7 2 3 4 4 3 3 2 3 10 12 11 3 16 22 28
7 4 20 9 10 7 4 3 5 18 11 8 7 6 4 5 5 4 6 4 7 6 13 2 3 5 2 6 4 7 5 5 3 4 5 3 1 5 7 8 8 14 13 24 34
13 4 18 15 7 3 3 5 9 15 18 8 5 6 5 8 8 5 5 7 13 4 4 4 4 4 4 6 6 10 5 4 4 5 2 2 2 8 10 10 17 21 24 15 36
5 11 24 8 4 4 5 5 13 13 9 6 8 7 6 6 6 6 5 13 21 6 2 4 4 3 4 6 8 7 6 4 4 3 3 1 2 10 18 18 26 30 34 22 6
4 4 9 23 6 5 4 6 4 17 11 8 7 5 6 9 10 4 5 8 15 13 15 7 4 4 4 3 3 3 5 5 5 4 4 3 4 11 16 17 24 29 31 29 19
6 3 3 3 8 8 6 5 7 5 6 18 7 10 3 5 3 4 6 6 9 18 8 5 4 2 2 2 2 2 4 5 3 4 4 6 5 7 12 12 19 23 28 29 30
4 3 5 5 5 7 6 5 6 5 5 5 5 5 8 5 3 1 1 2 1 9 6 5 2 2 6 4 5 2 4 5 6 3 2 5 2 6 13 17 21 24 24 25 28
10 9 4 9 4 4 3 2 3 1 7 4 3 3 5 2 3 5 5 4 2 1 2 3 3 3 3 6 6 5 6 5 2 3 3 5 1 5 6 14 17 21 24 24 25

GFSSW_850_spd_072.txt.gz
Wind_Speed
19 18 18 18 16 15 14 15 15 13 12 11 11 11 12 10 9 10 12 9 16 23 21 20 16 15 17 11 5 2 1 2 3 0 5 15 6 2 4 13 7 5 16 27 35
20 19 19 18 17 16 15 14 15 14 11 12 11 11 10 10 10 15 8 14 20 24 25 24 20 19 8 6 4 2 1 3 1 3 5 8 11 9 6 8 15 23 29 34 34
21 20 19 19 18 17 16 16 15 13 12 11 11 10 10 8 10 2 7 19 22 23 24 21 18 17 4 5 5 3 3 1 1 7 18 14 14 8 13 5 14 28 36 35 33
21 21 21 20 19 17 16 15 16 14 11 11 10 9 7 5 1 3 8 20 23 23 24 20 22 12 4 4 7 3 10 10 2 10 11 7 14 7 6 7 18 34 35 36 34
20 20 20 20 19 18 16 15 15 15 12 11 9 7 6 4 4 2 11 21 24 27 25 23 26 9 5 5 4 7 6 9 10 11 11 14 7 12 10 20 23 29 32 33 33
20 20 20 20 19 19 17 15 14 13 13 11 8 6 5 3 6 6 9 23 24 26 24 23 18 13 6 2 2 2 7 17 10 12 13 10 8 14 13 25 25 25 30 32 32
22 21 21 20 19 18 17 16 14 12 10 11 6 6 7 5 9 10 8 17 21 23 24 22 8 12 1 2 6 9 3 4 7 9 5 19 5 5 21 26 28 28 33 33 32
23 22 21 20 19 18 14 15 13 10 9 7 7 6 5 8 11 13 12 14 18 19 18 22 9 8 2 6 6 4 4 4 2 1 10 3 1 6 20 21 27 34 34 32 33
22 22 21 19 18 16 13 10 10 7 6 3 6 5 3 11 13 16 12 11 16 15 12 17 15 2 1 2 4 6 2 3 2 4 5 3 1 7 13 16 18 29 33 32 36
20 20 19 18 17 14 8 6 3 3 5 4 5 3 5 9 14 17 17 9 15 17 13 9 8 3 3 3 4 3 4 2 2 5 1 4 1 7 14 16 16 30 34 31 35
20 20 19 17 15 10 3 3 2 1 6 7 1 6 3 4 10 14 22 16 21 15 5 6 4 6 7 6 4 3 4 0 3 3 2 7 4 9 11 10 16 27 26 30 36
20 20 20 16 11 2 8 5 6 5 7 10 13 17 17 8 5 19 22 11 13 6 6 4 6 8 6 5 5 2 3 3 5 3 5 2 2 4 7 7 13 20 24 25 32
20 20 18 11 3 5 8 11 10 3 2 5 9 9 7 8 7 18 24 13 9 6 5 7 5 8 5 3 4 2 3 3 5 2 3 6 1 2 3 2 7 13 22 25 32
19 18 13 4 4 4 6 11 6 1 4 5 5 4 7 5 2 19 21 11 3 8 8 5 3 7 4 3 6 1 7 6 3 2 1 0 2 3 4 7 7 14 16 25 29
16 14 8 5 4 5 7 7 4 1 1 2 3 9 10 6 8 4 16 8 7 6 6 5 6 4 3 6 6 7 6 6 3 2 3 1 4 5 3 4 10 17 26 29 31
12 11 6 5 5 9 10 7 3 3 1 2 4 4 5 2 2 5 5 7 6 5 3 5 2 5 8 6 9 5 5 7 5 3 2 2 4 4 3 5 5 20 28 33 36
8 11 10 7 7 9 12 3 3 3 5 6 4 4 5 2 4 4 5 6 3 5 3 3 2 5 3 3 3 5 6 2 3 2 4 2 4 6 8 12 8 15 33 33 37
7 11 12 8 11 12 10 5 7 5 4 4 4 5 5 6 7 6 4 5 7 5 4 5 1 6 8 3 5 5 7 5 5 5 4 3 5 1 6 17 24 7 23 27 32
8 8 15 11 13 13 3 6 1 4 6 6 1 7 7 6 5 6 5 3 4 4 5 5 1 5 4 5 2 4 5 3 7 2 3 2 4 6 18 19 29 28 4 17 24
8 5 23 12 13 9 5 4 3 5 6 3 5 3 3 7 5 5 6 5 6 8 2 2 5 3 5 5 9 7 1 3 4 3 2 2 3 4 16 19 19 23 25 18 17
7 4 22 17 9 11 4 3 4 15 8 7 4 5 4 3 5 4 6 2 7 6 11 2 3 4 5 8 5 6 5 5 5 3 5 4 2 7 7 11 17 22 26 28 13
7 3 21 11 8 3 3 4 8 12 17 7 4 5 5 6 6 4 4 4 20 4 4 4 5 5 2 5 4 5 3 3 4 3 2 3 2 6 10 17 21 24 27 31 17
3 7 19 3 4 3 4 4 9 10 8 8 8 7 5 4 6 4 4 9 21 6 2 1 3 4 3 5 5 7 5 3 4 3 1 4 4 9 16 18 24 24 27 32 28
3 4 10 20 8 4 2 5 4 14 8 8 7 5 5 8 9 3 3 6 14 12 13 6 4 3 6 4 3 4 4 4 4 3 3 1 3 6 12 15 23 26 25 28 27
6 2 3 3 9 6 5 4 4 7 8 17 6 9 4 5 4 4 5 6 9 16 8 5 4 3 5 5 3 3 3 1 1 3 3 5 2 3 6 9 15 19 24 27 31
4 4 6 4 4 5 6 5 5 4 7 5 5 4 8 5 2 2 2 4 1 8 5 5 3 3 2 3 2 4 6 6 4 3 3 6 3 4 5 10 17 21 24 25 25
11 9 5 7 4 4 2 2 2 2 8 8 3 3 7 3 0 1 0 2 2 3 3 3 4 3 3 2 2 3 1 3 2 3 2 1 0 6 5 9 11 15 18 21 22

GFSSW_850_spd_075.txt.gz
Wind_Speed
17 17 17 16 15 14 13 13 13 11 10 8 8 8 8 8 9 9 12 9 15 22 22 20 16 16 13 7 3 3 2 2 6 1 4 16 8 4 6 14 5 8 12 22 30
17 17 17 17 16 15 14 13 13 13 10 9 9 8 8 8 9 12 7 14 20 26 26 24 19 17 8 6 3 3 2 2 5 4 10 12 10 11 7 9 7 14 21 30 30
17 17 16 16 16 15 14 13 13 12 12 8 8 8 7 6 8 2 7 18 23 27 23 22 19 13 7 5 4 2 2 2 5 6 16 21 15 8 14 6 10 25 33 31 30
18 18 17 16 16 15 14 13 12 12 11 11 8 7 6 3 1 2 6 22 25 28 24 22 17 12 7 5 5 3 7 7 1 8 12 16 16 10 3 4 11 25 32 32 30
17 17 17 17 16 15 13 13 12 12 10 9 9 6 4 3 4 1 14 23 26 27 27 20 22 11 8 6 4 7 6 4 6 11 7 15 11 10 7 13 21 28 27 28 27
20 18 17 18 17 16 14 12 11 11 10 8 8 7 4 3 4 5 16 25 25 29 26 21 15 8 9 5 5 3 9 10 3 10 12 12 10 11 9 19 27 26 25 25 25
21 19 18 18 18 16 14 14 10 9 8 7 6 5 7 4 7 10 18 23 25 27 24 17 11 6 6 4 3 5 6 3 8 11 6 12 11 8 21 22 27 25 23 23 22
21 19 18 18 18 16 14 13 11 8 6 6 5 4 4 6 10 13 18 23 24 20 19 18 11 7 1 3 1 3 1 2 3 8 6 4 4 9 28 26 22 23 24 24 24
20 19 17 17 17 16 12 11 8 4 5 5 6 5 2 8 14 17 17 21 21 18 12 16 7 7 2 2 4 1 5 4 4 4 6 4 5 9 19 28 25 24 26 26 25
20 18 17 17 16 13 8 3 4 4 6 5 4 3 5 5 13 20 18 14 20 19 9 10 5 7 3 5 9 7 5 4 5 8 5 8 4 9 14 16 21 23 25 26 26
19 18 17 16 14 7 1 4 2 1 8 6 3 3 6 3 13 20 19 17 13 18 8 11 9 14 13 8 2 5 6 4 3 5 3 4 4 9 14 16 18 23 25 25 27
19 17 17 14 6 8 8 3 3 2 7 11 15 15 11 3 5 20 22 9 15 16 12 9 15 12 9 6 4 5 4 3 2 4 3 2 2 6 11 13 18 23 26 27 25
17 15 12 6 8 6 8 8 8 5 4 4 9 10 8 12 9 19 26 11 16 12 13 14 7 14 10 8 9 5 6 3 2 1 3 4 4 5 6 8 12 22 23 26 26
15 11 6 5 4 4 4 12 7 1 3 2 6 6 11 12 6 24 26 14 7 14 11 9 6 16 11 10 9 10 7 4 3 2 1 2 2 2 8 12 13 18 29 26 29
12 10 6 5 3 3 6 11 4 1 2 2 4 9 12 8 18 13 24 8 12 11 5 6 12 16 14 11 8 5 4 5 2 4 3 4 2 5 4 8 11 16 21 30 29
11 11 7 3 3 7 9 9 1 2 1 2 4 7 8 5 4 16 13 6 6 10 4 4 5 7 7 9 12 9 6 4 4 3 5 5 3 8 5 7 8 15 25 28 33
10 12 10 6 5 6 9 1 2 3 6 7 3 4 9 4 6 12 3 4 4 11 13 4 3 2 2 8 7 7 9 5 6 5 5 2 3 7 9 11 12 15 18 31 30
8 7 14 10 10 8 1 2 6 7 5 5 4 5 5 3 6 5 5 4 9 3 6 10 6 3 6 2 6 14 11 6 10 8 7 2 8 7 11 15 18 23 16 11 27
7 7 20 14 11 5 4 6 2 4 8 8 5 6 4 5 6 7 8 5 7 6 3 6 5 3 7 6 2 6 8 2 5 2 8 4 3 6 16 19 27 27 23 14 9
11 6 21 14 10 6 5 6 2 8 8 3 2 4 4 4 5 5 6 5 5 10 2 3 6 7 5 2 11 2 4 6 3 9 9 4 3 4 17 19 18 23 24 22 8
11 2 19 9 6 11 4 4 3 13 9 7 5 4 6 4 7 4 5 3 7 6 7 2 0 3 1 7 7 1 3 3 2 2 6 7 4 6 8 11 14 22 24 24 19
5 2 19 7 5 4 4 4 8 13 13 8 6 8 6 7 7 5 4 6 15 5 4 4 5 5 4 1 4 7 3 1 7 5 2 1 5 5 8 12 15 19 22 24 24
3 7 21 4 3 3 3 3 10 12 10 8 8 9 7 4 5 5 4 7 15 7 3 1 3 6 3 3 1 4 5 3 2 0 2 5 5 5 9 14 16 19 22 24 25
3 2 8 19 7 4 3 5 3 12 10 9 7 4 3 7 8 4 3 6 9 10 12 4 4 3 2 4 2 3 4 5 3 3 7 3 11 6 9 11 16 18 20 22 25
5 3 3 4 8 8 4 3 5 6 7 15 7 11 3 4 4 5 3 3 9 14 6 4 5 6 9 6 3 1 1 3 4 4 2 9 8 5 5 8 11 14 17 20 23
4 3 6 3 2 6 5 3 7 4 6 6 8 12 11 6 5 3 2 3 3 6 4 3 5 5 3 4 3 4 5 4 1 4 3 3 6 3 4 4 10 13 15 18 20
8 6 3 5 2 2 2 2 3 3 7 8 5 8 12 7 5 7 9 7 5 4 4 3 6 3 4 3 0 5 6 6 2 3 4 5 5 6 4 5 7 10 14 16 18

GFSSW_850_spd_078.txt.gz
Wind_Speed
13 13 13 12 12 11 11 10 10 10 10 8 7 7 7 8 7 9 12 11 15 20 21 18 14 14 14 9 4 3 2 7 7 7 8 12 5 3 7 8 5 6 13 29 29
13 13 13 13 12 11 11 10 10 9 9 9 8 7 7 7 9 12 7 14 19 23 22 21 19 18 13 9 4 3 1 6 5 8 15 13 13 10 4 13 8 12 20 31 29
13 13 12 12 13 12 11 11 10 9 8 8 8 8 6 5 5 2 11 17 22 24 20 16 16 16 10 9 6 2 2 6 13 17 19 17 11 11 15 11 13 20 29 33 30
15 14 14 13 12 12 12 11 10 10 9 7 6 7 5 1 1 2 7 19 24 24 21 17 18 14 11 7 5 3 1 4 7 11 15 19 17 8 8 1 11 20 32 32 30
16 16 15 14 13 13 12 11 11 10 10 7 5 5 3 5 5 6 8 23 26 24 23 21 20 15 12 9 8 10 3 1 2 12 9 15 15 11 5 5 15 26 32 31 29
16 15 15 14 14 13 12 12 11 11 9 8 5 4 3 7 3 2 15 23 23 24 22 19 16 11 11 10 10 3 4 4 2 14 11 11 15 10 8 14 23 28 29 28 27
16 15 14 13 12 13 12 11 10 10 10 7 5 5 7 2 3 10 17 18 19 21 21 18 11 13 5 7 7 6 7 7 3 12 10 10 12 5 19 20 25 27 26 25 24
16 14 14 14 13 12 11 10 9 8 7 6 5 5 4 9 8 15 17 18 15 16 16 14 12 10 9 1 8 10 9 10 9 11 8 10 11 15 23 25 24 25 25 24 24
16 15 14 15 14 11 8 7 6 3 4 5 3 5 6 11 13 15 17 20 17 12 14 11 13 14 8 12 10 10 12 7 9 6 10 8 11 17 22 23 24 24 24 24 24
16 16 15 15 13 8 4 2 4 3 3 3 3 6 7 14 18 16 16 19 18 14 13 13 13 11 12 12 14 15 9 7 10 9 11 8 12 16 19 22 23 20 20 25 25
16 14 15 14 10 2 2 3 1 2 7 7 1 4 12 14 18 18 17 20 16 17 14 18 11 18 21 17 6 8 11 10 6 11 7 8 9 11 22 21 17 21 24 27 27
14 14 13 12 5 7 6 1 3 3 8 13 13 11 7 16 15 20 20 14 20 17 16 12 18 16 17 11 9 11 12 12 7 6 5 6 6 11 17 16 22 25 24 26 28
15 13 10 6 9 7 5 2 7 5 7 6 11 14 14 13 21 25 24 12 19 20 18 14 12 12 15 15 14 13 14 12 8 6 3 6 7 9 12 11 15 17 21 26 27
13 11 6 4 4 2 1 9 8 3 5 10 9 12 14 17 13 27 25 14 11 19 18 15 7 17 18 18 17 15 7 4 9 8 8 10 6 7 11 11 7 11 17 23 25
13 12 6 3 1 1 4 9 5 3 5 4 8 9 19 23 22 24 26 15 15 16 12 13 13 20 19 17 16 8 11 9 8 9 4 11 7 7 8 11 11 12 16 17 23
10 11 8 4 5 5 7 8 3 7 2 3 8 13 17 14 22 29 23 9 11 13 16 8 15 16 15 13 13 7 10 9 8 9 10 9 12 7 6 4 5 2 19 23 24
7 7 9 6 4 9 8 4 6 4 5 4 2 16 17 15 15 23 21 16 10 16 16 12 15 7 5 14 16 13 16 11 10 8 8 11 7 10 8 7 8 5 9 22 26
5 8 13 8 7 7 5 10 1 7 6 8 2 11 10 16 16 19 14 10 3 10 15 14 13 14 3 11 13 20 19 11 13 12 12 7 8 8 11 11 13 12 11 5 26
9 8 7 12 5 4 11 1 5 7 6 7 7 10 13 7 10 15 5 8 3 5 9 14 9 7 4 2 7 20 16 7 7 9 9 13 14 15 10 12 16 17 15 13 9
8 4 5 10 4 2 4 5 4 9 6 3 5 3 14 13 14 12 6 3 3 7 8 1 11 2 3 4 2 7 13 10 9 14 13 10 17 10 8 12 14 19 23 19 1
4 7 5 8 5 4 1 5 5 9 5 4 1 2 8 6 9 5 3 6 6 4 3 3 6 8 7 2 2 7 11 10 9 5 14 9 7 8 6 7 11 15 17 20 23
3 3 11 4 5 2 4 4 5 7 7 6 6 6 6 4 7 4 6 6 9 3 2 2 4 11 9 6 1 2 5 9 10 12 6 6 7 9 10 8 10 15 18 18 20
2 4 10 1 1 5 5 6 10 10 10 5 6 7 4 3 5 6 4 5 8 4 3 2 7 9 10 7 4 3 2 2 8 8 13 10 8 10 12 11 12 15 16 19 22
2 1 7 11 6 4 5 5 3 9 12 9 4 3 5 6 5 6 7 5 6 9 6 5 2 5 4 7 6 8 3 1 7 10 8 4 18 13 10 11 13 14 15 18 19
5 4 3 3 7 6 5 3 5 3 6 8 6 5 3 5 10 7 4 5 8 7 4 4 4 6 9 8 6 4 4 3 1 5 5 17 16 12 11 11 13 14 15 16 18
3 1 6 7 3 4 2 6 7 5 7 8 9 9 5 8 6 7 7 3 4 5 4 4 3 4 3 3 3 4 4 3 3 3 6 10 14 11 11 11 12 13 14 16 17
7 5 2 2 2 1 4 3 4 3 8 7 6 8 10 9 9 9 9 8 7 3 4 1 6 5 4 1 2 8 11 9 6 5 6 9 13 11 10 9 9 11 14 15 15

GFSSW_850_spd_081.txt.gz
Wind_Speed
12 12 12 12 11 12 12 11 10 8 8 7 7 8 8 8 9 10 12 9 16 15 20 13 16 13 13 12 8 6 3 3 2 13 10 12 7 2 3 10 7 4 25 31 31
12 12 13 13 12 12 12 12 11 10 8 7 7 7 8 8 10 16 14 18 17 19 20 20 18 16 16 12 3 4 2 8 5 7 15 15 10 9 6 7 10 13 28 31 29
14 12 12 12 13 13 12 12 12 10 9 8 7 6 6 6 9 5 13 16 21 21 17 17 14 16 16 10 5 4 2 7 13 14 18 18 10 8 14 10 15 23 32 32 29
13 14 13 11 12 12 12 12 12 11 9 8 7 6 4 4 2 2 7 15 20 22 19 18 17 17 15 10 7 4 11 14 12 16 13 15 16 10 13 5 18 21 30 31 29
15 14 13 12 12 12 12 12 12 11 9 8 6 6 4 7 12 8 8 15 22 23 22 20 20 19 14 9 3 8 5 7 17 9 10 14 11 11 9 6 17 22 30 29 27
15 15 14 12 12 11 11 11 11 11 9 9 6 6 4 14 2 9 9 20 23 22 22 20 18 18 11 11 9 7 13 10 12 9 18 12 15 11 9 8 19 26 30 28 25
14 14 13 12 12 12 11 10 9 9 8 7 7 6 9 6 2 6 14 20 22 21 22 19 14 14 13 9 16 9 8 9 9 19 14 16 15 9 15 16 22 29 29 27 24
12 13 13 11 11 10 10 8 7 6 6 5 4 4 8 9 6 11 14 18 19 19 18 17 13 17 12 7 9 13 14 12 10 14 14 12 11 18 22 23 24 28 29 25 23
13 12 12 13 12 9 7 5 4 1 3 4 1 8 9 6 14 15 17 19 19 17 16 14 13 20 15 13 14 14 14 12 12 13 12 12 14 13 18 22 25 26 27 25 23
14 13 13 12 9 6 2 1 2 3 4 4 6 8 12 13 17 17 18 18 19 18 15 14 14 16 15 15 16 18 18 13 16 12 12 17 11 20 19 21 24 26 28 26 24
15 14 13 12 6 1 3 3 2 4 11 11 3 7 3 13 19 18 19 21 19 20 15 22 14 19 22 22 23 12 17 22 17 15 21 13 14 17 18 13 13 25 24 26 27
13 11 10 7 7 6 6 5 6 7 11 14 13 15 4 17 19 20 21 19 19 17 21 14 19 19 17 21 17 16 18 9 14 13 12 19 17 20 22 20 18 11 17 23 27
13 12 8 7 6 4 2 3 5 8 9 11 15 17 16 20 21 25 27 24 20 21 22 16 16 18 19 18 14 18 13 14 12 7 13 12 10 22 17 22 27 28 25 27 25
13 11 6 2 2 1 0 4 7 6 6 14 13 14 20 19 21 25 27 23 13 21 21 19 17 20 15 21 18 20 18 12 10 14 13 16 3 15 17 15 15 31 33 25 29
9 8 5 4 3 5 4 7 5 4 6 5 12 12 18 23 19 26 25 22 17 17 17 18 19 17 17 18 18 16 16 11 12 14 11 19 5 6 12 16 11 15 27 29 31
7 7 5 4 4 6 7 6 5 7 2 5 8 15 21 26 19 28 26 25 16 16 15 20 17 13 19 18 17 17 17 13 12 13 13 14 13 7 7 16 19 14 11 9 20
6 6 8 6 6 7 7 8 7 5 12 3 8 18 20 19 17 20 24 22 16 18 18 21 18 18 21 18 14 16 13 11 12 14 11 17 10 5 9 12 9 11 9 17 19
5 7 10 8 8 6 5 10 9 10 2 7 9 14 19 19 18 21 21 18 23 19 15 17 18 24 14 17 14 19 20 13 14 14 15 13 11 10 12 15 12 8 3 10 27
8 6 4 6 5 5 11 6 6 7 4 6 7 12 10 13 15 19 20 20 16 19 15 18 18 10 12 14 6 19 20 24 15 16 15 13 15 15 10 14 10 9 7 4 18
6 9 7 5 4 8 8 13 6 7 8 7 8 10 9 11 10 15 9 8 4 6 9 13 15 15 9 7 14 12 17 20 9 17 17 15 18 13 11 9 9 10 12 13 3
6 8 4 3 8 18 7 2 6 10 5 1 4 14 4 11 9 14 9 7 5 4 12 4 14 11 9 16 17 11 13 18 14 15 13 12 8 13 14 9 8 9 12 15 19
8 7 5 5 12 6 7 5 3 6 2 3 3 3 6 6 8 9 3 10 5 9 12 4 5 13 19 5 5 10 13 17 12 19 13 6 7 12 13 16 13 11 12 14 17
8 4 6 5 8 5 5 8 6 4 5 3 3 2 3 5 7 8 7 5 7 4 8 4 9 9 7 7 8 11 10 11 17 15 11 15 11 14 16 17 15 13 15 17 19
7 2 6 3 6 7 4 2 5 4 6 2 4 3 6 4 2 6 7 4 7 6 9 7 15 6 6 17 17 18 6 11 11 10 11 4 23 18 14 17 18 15 16 18 21
6 5 4 5 6 4 1 1 1 1 2 2 3 5 8 6 6 5 7 8 5 3 3 7 6 5 6 6 4 15 14 9 14 15 7 17 19 18 16 14 17 17 16 18 18
6 2 6 6 1 3 3 6 4 7 7 2 1 3 8 8 8 9 6 3 3 2 3 6 1 6 8 4 5 6 5 5 4 2 6 20 18 17 19 18 16 16 16 16 16
4 3 6 2 3 2 7 5 5 2 6 6 4 3 8 6 7 7 5 3 4 2 3 3 2 5 9 5 4 9 11 10 8 5 5 13 19 18 16 17 16 15 14 15 15

GFSSW_850_spd_084.txt.gz
Wind_Speed
13 13 14 13 13 13 13 13 12 10 10 10 10 10 10 10 9 11 14 10 12 8 15 11 14 15 14 15 16 7 4 3 1 17 10 13 6 2 2 12 4 15 29 32 29
13 14 13 13 14 14 13 13 12 11 10 10 9 9 10 11 12 18 14 13 18 11 19 19 18 16 17 15 10 3 3 6 4 17 17 16 11 5 4 14 8 31 30 31 29
14 13 14 14 13 13 14 12 11 11 11 10 9 9 8 9 10 7 12 12 14 17 17 15 15 15 19 17 11 8 2 4 16 19 24 20 13 6 11 10 24 34 35 31 28
13 13 13 13 13 13 12 14 12 10 10 9 9 8 6 6 2 0 3 12 13 18 18 17 18 17 18 9 12 4 4 9 16 22 20 17 13 9 3 6 21 30 32 30 27
15 13 11 12 12 12 12 13 13 11 9 8 8 7 5 7 13 8 5 12 17 21 19 20 19 18 17 9 9 8 2 14 20 20 19 22 17 14 3 1 20 30 29 28 25
16 16 14 13 11 11 12 12 12 11 9 7 7 7 5 13 2 7 7 12 19 23 18 21 17 21 15 5 9 4 5 15 13 14 18 16 20 20 13 17 14 30 30 28 25
15 15 15 13 13 12 11 11 10 9 8 6 5 6 9 19 3 4 10 15 18 22 18 19 18 19 11 11 11 11 9 16 18 19 16 16 13 13 15 30 24 31 31 28 25
13 14 13 13 13 12 11 9 8 5 5 5 5 5 10 6 11 7 10 14 18 19 17 16 17 16 20 16 17 19 9 9 16 22 16 14 13 16 17 24 25 31 29 28 26
12 11 11 12 12 9 7 6 5 2 3 4 4 6 12 9 14 12 13 16 19 17 17 15 15 15 19 16 12 15 15 17 8 22 22 12 11 4 18 23 28 28 29 29 27
13 11 10 9 9 6 2 2 3 1 3 5 4 9 16 13 12 16 16 16 18 18 16 16 11 13 15 15 15 18 20 16 18 15 14 15 19 18 22 24 28 26 26 28 27
13 10 7 5 2 0 1 4 3 4 12 13 4 14 4 10 15 18 19 18 18 20 15 19 12 16 21 22 22 21 20 13 6 11 22 17 19 19 25 24 26 25 26 26 27
13 12 7 5 5 5 1 5 6 9 12 22 18 14 13 13 17 18 20 18 20 15 19 13 19 19 21 23 23 24 9 10 11 5 9 12 17 5 20 18 15 25 24 25 26
12 10 5 2 1 1 4 7 7 9 13 18 22 20 15 12 17 21 23 24 19 20 21 21 15 22 20 22 22 24 17 14 13 16 12 21 12 10 19 21 10 19 16 21 27
10 8 5 4 8 6 9 6 9 9 7 10 15 15 19 15 17 20 24 24 14 19 20 22 21 21 20 21 22 22 18 16 27 23 11 30 8 24 21 20 17 20 21 16 22
9 8 7 7 9 9 7 9 9 6 5 5 13 6 17 20 11 21 22 25 20 16 16 21 22 20 21 20 21 19 18 22 18 13 13 19 8 9 13 18 17 20 23 28 24
9 8 6 5 12 6 10 9 8 6 3 2 5 8 15 21 25 22 22 25 22 17 19 23 23 19 18 17 21 17 21 9 11 11 13 15 13 7 7 5 19 21 25 26 39
9 9 10 11 11 8 10 8 6 6 15 7 7 9 15 17 19 21 19 19 18 17 19 21 22 21 14 16 17 18 19 11 10 12 11 16 16 8 6 11 6 24 22 38 46
11 11 12 8 8 8 6 9 6 8 12 14 12 9 16 20 23 21 19 18 22 22 14 15 17 22 14 20 20 19 21 11 16 14 13 19 3 9 14 28 9 13 30 29 21
13 14 15 9 3 4 11 4 3 11 8 8 14 8 13 17 16 16 18 18 23 21 20 17 22 20 20 22 23 17 20 19 15 17 15 9 14 17 19 11 10 5 8 10 11
12 14 20 9 6 4 8 1 7 22 10 10 10 3 5 12 9 14 20 9 7 14 3 6 15 19 17 21 14 12 19 16 15 16 14 12 16 13 17 13 9 7 12 14 21
14 9 10 4 6 6 4 8 9 3 10 11 3 9 13 4 18 11 11 10 4 3 13 7 8 14 14 13 12 13 12 17 19 15 13 8 7 14 14 10 7 10 17 17 16
14 13 3 7 11 9 5 11 3 5 3 2 3 7 2 10 5 11 6 3 15 9 12 13 8 6 17 15 17 17 17 16 13 19 12 6 6 11 13 11 11 11 18 19 18
8 5 4 3 2 4 19 8 5 2 3 4 3 4 3 7 2 13 11 17 11 10 6 8 5 6 15 14 16 11 17 16 19 19 14 7 8 12 16 13 13 13 19 22 21
8 3 4 1 2 12 10 7 5 1 1 3 3 4 4 6 5 5 8 2 5 6 8 7 9 7 11 7 16 17 17 12 12 11 10 12 19 17 16 13 16 15 19 23 23
7 6 5 8 10 9 9 4 4 3 2 4 1 9 8 4 6 5 3 4 2 6 4 6 11 10 19 15 20 20 19 7 12 14 15 14 18 17 16 15 16 19 19 23 23
10 9 1 7 2 4 3 8 8 7 8 1 7 6 10 5 3 5 2 5 6 4 6 10 7 9 5 9 15 23 21 13 14 14 13 8 18 20 26 23 18 17 17 20 22
9 3 11 4 5 5 10 8 6 2 5 11 13 8 8 9 8 7 12 7 5 5 6 8 10 6 3 1 5 3 5 2 8 4 21 17 10 22 18 19 17 15 16 18 19

GFSSW_850_spd_087.txt.gz
Wind_Speed
14 14 14 13 13 13 12 11 11 11 10 9 10 10 10 9 10 14 17 5 15 7 16 5 14 15 17 18 19 5 3 4 5 15 7 11 5 8 10 23 18 14 30 41 37
14 14 14 14 14 13 12 12 11 11 11 10 9 10 10 11 13 19 12 13 13 13 16 14 16 15 20 14 7 5 4 3 7 12 12 12 7 5 7 13 14 31 31 41 37
14 14 14 14 13 13 12 12 11 10 10 10 9 8 9 10 12 5 6 15 13 16 16 17 14 17 21 20 6 1 3 1 15 19 21 17 8 4 7 11 35 36 36 41 36
12 13 13 13 13 13 12 12 12 11 9 9 9 7 7 6 1 1 3 6 11 15 18 18 24 24 15 13 13 9 2 4 16 22 16 14 14 4 14 7 27 38 34 40 32
14 13 13 12 12 11 11 12 11 10 9 7 8 7 5 4 12 7 6 6 12 18 23 18 21 23 13 8 9 4 1 7 25 23 20 15 10 5 11 16 25 35 31 36 31
16 15 14 12 11 11 11 11 11 10 8 7 6 7 4 5 4 6 6 6 15 21 24 18 16 20 17 7 9 5 10 18 27 22 25 15 15 9 13 21 16 33 25 29 28
17 17 16 14 13 11 11 10 9 8 6 6 6 6 10 18 3 3 9 10 15 23 20 16 18 20 16 11 14 22 6 11 16 21 21 29 5 11 21 26 15 30 27 25 23
16 16 15 15 14 13 9 7 7 6 4 5 5 6 9 8 10 9 3 7 15 19 17 12 15 20 23 19 8 6 7 5 12 24 25 11 4 18 33 27 25 27 29 26 21
14 13 13 14 13 11 8 5 3 3 1 4 3 4 10 5 16 9 11 14 16 14 16 15 15 19 17 6 7 7 7 13 16 21 17 5 11 11 20 21 25 28 29 27 29
14 13 11 12 11 8 5 3 3 1 0 3 5 7 12 15 13 16 13 16 19 18 18 17 13 4 5 2 7 8 10 5 2 13 19 9 13 17 22 25 29 28 27 27 32
16 14 11 9 6 4 4 5 6 2 8 11 9 11 14 6 12 17 20 20 20 19 8 16 3 6 10 11 17 15 9 10 17 7 14 11 14 13 18 20 24 29 25 28 32
15 13 8 4 4 3 7 8 10 13 10 18 25 24 24 9 11 17 20 19 15 8 10 6 8 10 13 17 19 20 8 6 12 10 5 22 11 17 17 14 28 27 24 24 34
12 13 10 5 3 5 6 4 6 11 9 22 27 24 19 15 16 19 19 21 10 11 14 9 13 19 18 17 19 18 14 15 8 10 16 20 14 7 13 16 18 15 21 14 24
13 12 11 10 10 9 17 9 13 12 3 7 9 17 21 14 7 19 21 19 7 12 10 11 21 15 17 15 15 12 11 14 20 11 7 18 10 12 7 10 16 22 23 13 12
14 11 10 11 12 11 12 11 11 11 4 5 12 12 14 12 6 15 22 23 14 8 8 11 13 17 16 17 13 13 5 6 12 9 5 16 4 6 8 10 9 13 23 25 5
15 13 10 13 15 8 16 15 12 2 3 9 6 7 9 16 18 14 22 21 18 13 11 12 23 15 16 13 14 13 11 4 2 4 4 17 7 6 13 12 13 9 14 32 28
16 14 13 14 16 7 13 10 2 2 13 11 7 9 10 9 14 11 14 10 11 5 8 11 17 15 20 7 10 11 5 3 4 4 7 8 7 2 11 18 16 17 23 29 33
17 16 14 12 9 4 12 4 3 3 4 8 7 15 13 9 12 14 12 9 11 13 6 8 9 15 12 9 10 9 7 5 7 7 6 4 5 6 6 20 25 33 38 31 29
17 13 18 9 4 1 10 4 1 2 7 9 14 11 8 5 7 10 11 13 13 15 9 5 11 9 16 7 5 8 8 9 6 7 3 6 4 9 7 9 21 20 22 27 31
16 11 16 9 10 3 6 1 4 6 10 15 14 6 9 9 7 17 9 6 10 5 5 2 4 11 16 10 11 10 3 8 2 2 4 5 6 10 12 11 12 12 12 9 17
12 5 5 7 15 16 3 3 9 20 25 6 9 6 6 6 7 5 12 11 20 7 9 7 2 10 12 10 13 3 1 3 2 3 4 5 2 4 12 12 11 11 9 9 9
5 3 8 6 7 7 5 5 7 5 4 2 7 6 9 5 6 5 1 4 25 19 8 1 3 6 6 5 6 4 7 4 4 8 1 4 2 10 11 16 15 11 12 11 12
6 10 7 5 4 3 2 6 12 11 3 3 2 2 6 6 3 2 6 4 28 10 3 5 3 4 6 4 9 4 5 4 4 2 5 5 6 10 20 20 12 10 12 16 14
5 3 2 7 11 6 3 4 9 4 3 3 4 1 3 3 8 5 7 8 14 11 1 3 5 7 2 4 3 4 9 8 3 1 3 6 12 15 15 15 18 13 14 17 18
2 3 3 3 6 4 4 2 6 4 5 1 3 5 2 1 3 5 8 6 8 1 3 2 2 12 11 10 13 16 8 11 5 6 5 10 13 15 17 16 21 20 18 19 20
8 7 16 4 5 2 4 5 11 11 10 13 12 12 4 5 2 6 7 5 6 6 9 4 3 8 7 11 13 13 13 15 3 12 11 13 14 17 27 29 24 24 21 20 20
15 15 10 13 8 9 5 6 7 6 7 12 9 3 12 9 12 13 17 6 4 4 2 8 2 4 5 8 10 5 4 5 9 14 19 11 10 26 18 25 25 25 24 22 23

GFSSW_850_spd_090.txt.gz
Wind_Speed
14 14 13 13 12 11 11 11 10 10 11 10 9 9 8 10 11 14 16 7 13 11 15 10 12 14 10 8 14 3 1 2 6 8 6 9 9 24 25 36 29 7 34 41 40
14 14 13 13 13 11 10 10 10 10 10 10 10 8 10 10 12 17 9 12 19 12 16 13 19 17 8 9 5 3 1 4 2 15 11 13 12 14 19 26 25 34 33 45 40
13 14 13 13 12 13 10 9 9 9 10 10 9 9 8 10 9 2 0 15 18 18 11 14 13 14 8 10 9 6 4 6 8 17 17 12 12 10 20 7 34 42 43 45 38
13 13 14 13 12 11 12 10 9 8 8 9 9 8 7 7 3 3 4 8 19 17 14 18 15 9 6 7 12 4 6 7 9 21 18 15 12 8 15 17 35 47 46 45 39
14 13 13 12 11 11 10 10 10 9 8 7 8 7 6 7 9 1 3 6 16 19 21 22 18 12 4 4 10 2 8 10 16 17 20 16 9 8 20 28 37 42 42 42 37
15 14 12 11 11 11 11 10 9 9 8 6 6 7 5 4 4 2 2 4 16 20 23 26 12 9 10 9 7 13 12 13 15 19 15 14 9 7 10 28 33 43 40 36 34
18 17 16 13 12 11 10 9 7 7 7 6 5 7 10 12 7 4 5 5 10 19 25 26 19 10 5 7 12 14 7 7 12 14 7 20 5 9 19 25 30 36 39 35 34
17 17 17 15 14 13 9 6 6 6 4 4 5 6 10 4 10 10 5 8 13 16 23 19 13 16 16 13 8 5 4 9 9 12 13 5 2 5 15 17 21 27 31 32 30
17 17 16 15 14 11 7 4 4 4 1 1 2 5 9 7 15 13 9 5 14 14 21 16 8 12 10 1 4 2 4 4 9 21 10 3 8 18 20 16 19 22 27 21 37
17 18 16 14 11 7 5 4 5 4 1 2 5 7 7 5 11 17 12 6 14 12 9 10 6 2 3 4 4 3 2 4 8 11 4 4 5 15 26 22 25 26 26 22 33
15 16 15 12 10 7 7 6 6 2 7 10 9 15 17 4 9 14 18 13 13 11 5 6 2 5 8 6 5 2 5 10 4 12 7 3 8 7 22 21 21 24 25 24 36
14 14 12 11 9 7 8 6 7 7 11 17 16 24 25 16 7 14 21 16 10 5 3 4 5 8 6 5 6 3 5 2 15 12 8 10 3 1 11 24 26 29 23 29 27
14 13 12 11 10 8 6 3 9 17 7 16 15 18 20 4 11 18 20 24 7 7 5 6 7 6 5 7 7 5 6 6 6 9 8 11 10 8 5 9 21 22 19 28 37
16 12 10 9 8 6 5 11 14 18 5 8 1 6 12 8 5 19 17 18 3 10 4 6 14 6 10 10 5 5 12 8 17 7 5 11 5 4 7 11 16 20 18 22 25
19 15 10 11 12 11 11 17 15 2 3 7 3 6 7 8 3 15 19 18 8 4 7 9 8 9 8 12 8 11 12 10 17 5 6 10 3 4 7 8 12 17 19 23 21
19 15 11 11 10 7 14 17 9 5 3 9 6 7 2 5 5 1 19 21 10 3 4 7 17 7 10 12 11 14 4 2 7 5 1 8 5 4 11 18 12 16 22 26 25
18 17 12 12 6 9 15 13 5 4 5 6 5 5 2 5 4 4 3 6 6 2 4 7 8 7 10 5 6 5 6 1 2 2 6 7 8 8 17 17 23 29 35 30 31
15 14 10 9 4 8 12 5 5 4 2 5 4 7 2 5 5 4 6 4 4 5 2 2 7 5 5 10 8 6 8 6 5 3 2 6 6 2 7 14 17 22 28 25 40
14 8 6 6 3 4 1 5 3 2 4 7 10 6 7 7 5 4 7 9 9 9 7 2 5 7 5 8 10 7 3 9 6 2 4 3 4 4 8 4 9 12 15 19 26
14 8 7 11 6 3 5 3 3 3 6 4 2 4 6 6 6 6 7 5 9 10 13 6 5 5 9 5 6 8 6 2 3 6 4 3 5 4 3 6 6 6 10 6 17
10 8 9 16 9 2 3 5 4 13 1 3 2 4 1 2 2 1 2 5 7 8 9 4 3 7 4 2 8 1 3 4 4 5 6 4 1 3 9 10 9 10 8 4 6
5 2 6 22 5 3 3 4 2 6 14 6 4 3 2 1 2 1 3 4 4 3 4 4 3 3 8 9 7 5 8 7 5 5 3 4 2 5 8 13 16 10 7 3 2
11 6 3 23 4 2 3 2 4 2 5 1 1 2 4 4 1 2 3 6 15 1 0 5 3 4 8 7 6 4 2 5 5 4 3 6 4 7 10 10 18 19 11 7 7
3 3 3 8 8 8 3 1 4 7 6 8 3 1 2 2 4 4 4 4 9 3 10 5 3 6 4 8 6 8 7 2 5 4 5 2 13 12 11 10 10 16 14 11 9
4 3 8 1 2 3 4 3 2 4 6 12 3 6 2 0 2 5 3 4 2 15 4 5 1 4 7 10 8 4 6 10 3 6 6 15 16 15 14 11 16 17 15 12 12
5 5 9 8 8 8 5 4 7 2 4 5 5 10 7 5 3 3 4 4 2 4 6 2 1 7 7 7 13 7 13 9 5 9 14 16 14 11 19 21 20 18 19 17 16
10 5 3 7 5 6 3 4 6 4 11 13 7 2 6 5 11 15 9 10 5 6 2 3 3 3 5 13 13 7 11 10 8 11 22 15 11 24 18 20 21 19 20 21 21

GFSSW_850_spd_093.txt.gz
Wind_Speed
12 11 11 11 12 11 11 10 10 10 9 9 9 10 10 9 10 13 15 8 14 14 17 17 14 13 11 8 11 1 2 0 4 5 6 4 12 14 11 27 15 3 26 35 33
12 12 12 12 11 10 10 9 10 10 11 9 9 9 10 11 12 16 7 10 17 17 22 20 19 15 6 6 5 4 1 1 5 10 5 8 17 18 13 16 22 29 26 32 32
12 11 12 12 11 10 9 9 8 9 10 10 8 8 8 11 11 1 2 15 20 19 17 14 16 14 5 6 6 4 2 2 3 19 16 13 11 19 26 10 31 37 35 34 31
12 12 11 12 12 10 9 7 8 8 9 10 9 8 7 7 2 3 3 15 21 19 18 16 15 8 3 3 7 2 6 6 5 15 19 16 13 17 16 14 38 39 38 36 34
13 13 12 11 11 11 11 9 8 8 8 8 9 8 6 5 7 3 4 15 22 23 21 20 20 8 3 2 7 4 5 9 8 14 20 16 13 15 10 31 38 38 39 39 36
16 15 13 12 10 10 10 9 8 7 7 6 6 7 5 4 5 5 3 10 19 22 23 22 14 15 4 6 8 10 4 12 9 15 14 15 10 12 17 35 37 40 40 39 35
19 18 17 14 11 10 9 7 6 7 6 6 6 7 9 10 5 7 4 5 14 19 24 24 11 8 2 6 4 9 7 6 10 7 7 27 7 11 15 35 36 37 37 35 34
20 20 18 15 13 10 6 5 5 4 4 4 5 6 8 2 9 12 7 8 14 14 16 19 19 7 5 7 4 8 4 7 9 10 10 3 3 10 23 31 30 33 30 31 32
19 20 19 15 12 9 5 4 3 4 3 1 3 4 6 7 17 13 8 4 11 13 12 12 6 6 3 1 4 1 3 4 7 6 7 3 4 12 18 22 28 29 30 29 32
17 18 17 14 11 9 7 5 6 5 1 1 5 4 3 2 5 15 12 7 9 12 7 8 6 2 3 4 4 3 4 2 4 10 6 2 2 13 18 19 20 24 26 29 30
15 16 15 12 9 6 8 5 4 2 9 11 14 14 19 4 3 10 13 14 7 9 5 7 4 5 7 6 4 3 2 4 6 7 7 5 6 15 19 11 18 23 21 30 35
14 14 14 11 7 5 6 8 7 11 10 19 21 22 20 15 5 7 16 11 6 4 4 5 4 7 3 6 4 3 1 5 11 8 9 10 7 4 10 19 22 33 18 31 30
14 13 12 12 9 7 9 9 17 21 2 10 7 10 6 4 5 7 21 13 5 4 4 5 4 5 5 2 4 1 3 7 5 8 8 9 6 11 4 19 24 34 14 30 36
18 14 11 8 7 7 4 15 20 10 4 5 3 4 8 3 3 9 21 17 1 8 6 4 5 4 3 3 5 2 5 5 16 8 4 2 3 10 10 13 20 32 18 28 37
19 15 10 8 7 7 10 14 12 2 3 12 4 1 5 6 0 8 23 16 8 5 7 7 3 4 6 5 6 7 3 5 9 4 6 4 1 5 6 12 14 28 23 22 36
21 17 11 8 7 3 9 11 4 5 3 7 6 6 2 2 2 5 11 13 9 4 2 6 3 5 7 6 9 3 1 6 6 4 1 8 6 4 7 14 17 31 29 28 35
21 15 11 7 4 4 9 8 5 3 5 6 4 6 5 6 2 2 3 2 5 3 3 4 5 3 6 3 2 4 5 1 2 1 5 9 7 6 5 11 19 31 31 35 36
17 11 6 4 5 5 9 4 4 1 2 3 5 5 5 7 5 7 4 2 2 5 3 3 4 7 3 8 6 6 10 5 6 5 3 5 5 4 5 14 16 16 21 23 32
11 4 2 5 5 2 2 4 6 3 3 6 3 6 6 5 3 3 5 1 5 1 8 5 5 2 2 5 9 4 4 9 5 2 4 2 4 1 5 8 15 20 24 26 24
8 3 5 5 2 2 5 3 3 3 2 3 3 3 3 6 5 5 3 3 2 2 4 1 1 2 5 2 4 8 6 4 3 5 4 1 2 3 2 4 8 12 19 18 21
4 1 6 8 2 4 3 4 4 5 5 3 0 3 2 2 2 1 2 2 1 3 7 2 3 5 2 1 4 1 2 5 5 5 5 3 5 1 6 7 9 13 14 14 16
5 2 7 14 4 3 1 3 3 2 3 1 3 2 4 3 2 1 3 4 5 3 3 3 4 2 7 7 2 5 9 7 5 3 1 3 5 2 8 9 14 13 11 9 8
3 1 12 13 2 2 3 3 3 2 4 3 0 1 2 4 1 3 3 6 9 2 4 2 2 3 8 6 7 6 5 3 4 4 6 6 4 4 7 7 7 13 13 13 11
3 2 3 7 1 5 1 3 3 4 4 2 3 3 1 2 2 3 3 3 0 5 13 6 3 4 5 4 3 6 7 7 3 4 6 4 7 9 10 9 10 12 10 13 13
5 1 2 1 1 2 2 2 3 2 5 12 5 4 1 3 5 3 3 4 5 5 5 5 3 2 4 5 2 6 8 7 6 5 6 10 13 17 12 13 15 15 13 11 12
4 4 3 3 0 5 4 5 4 2 4 4 3 4 5 4 1 4 4 5 2 1 2 3 4 3 3 7 7 3 7 10 4 8 8 12 5 6 16 19 17 15 14 13 13
4 4 2 7 3 3 2 2 2 2 2 2 3 1 2 2 6 13 12 8 7 2 3 3 4 2 3 7 6 4 9 6 4 1 16 9 7 13 14 17 18 18 18 19 17

GFSSW_850_spd_096.txt.gz
Wind_Speed
11 11 11 10 11 10 9 9 9 8 9 9 9 8 8 9 10 12 15 8 14 21 20 16 14 13 12 9 6 4 1 2 4 7 4 4 6 8 8 20 6 3 23 29 29
13 12 12 10 10 10 9 9 9 9 7 8 9 9 9 9 12 15 8 11 17 22 24 21 19 16 7 5 4 4 1 2 4 2 3 9 17 11 9 8 14 28 24 29 28
12 12 13 12 11 9 8 8 8 9 9 7 7 8 9 9 9 1 2 13 19 19 22 20 16 12 3 3 5 3 1 6 8 12 2 13 14 9 19 5 23 34 35 30 27
12 12 13 13 12 11 9 8 7 7 8 8 6 6 6 6 2 2 1 16 19 22 22 16 19 7 2 2 2 2 4 8 17 19 7 13 15 14 7 7 37 38 35 32 27
15 14 12 12 11 10 10 9 7 7 7 6 6 6 4 5 4 2 1 17 23 26 22 17 21 7 4 3 4 4 5 9 10 17 13 11 12 12 5 18 35 35 33 31 26
17 16 14 12 10 10 10 8 8 6 6 6 5 5 5 3 3 3 3 19 24 23 21 19 14 11 3 4 4 2 3 10 3 8 20 12 8 10 9 31 30 34 33 31 28
18 18 17 12 10 9 8 6 6 6 5 5 5 5 8 7 3 7 7 12 19 20 19 16 7 8 2 3 3 10 8 10 12 10 5 23 10 9 13 29 30 33 32 31 29
18 18 17 14 11 8 5 3 5 6 5 2 3 4 6 5 8 10 12 13 16 16 7 17 11 4 3 8 4 3 2 4 8 10 12 1 6 11 19 24 26 28 28 30 28
17 18 17 14 11 8 6 4 3 4 4 1 1 3 4 3 9 13 9 7 14 12 12 10 12 2 2 2 4 3 3 1 9 16 8 2 8 13 25 27 24 24 24 25 27
17 17 16 13 10 8 9 7 7 5 1 1 3 2 1 4 4 14 10 4 9 12 12 7 5 2 3 4 3 1 2 1 5 7 6 4 4 12 21 22 22 22 24 24 27
17 17 15 12 9 9 11 4 6 2 12 11 9 11 12 1 2 9 17 12 13 11 4 5 4 5 7 5 4 2 2 8 4 5 5 6 8 8 14 16 19 18 24 26 29
16 16 14 11 8 8 8 4 5 9 8 12 15 18 15 12 3 7 16 9 8 4 4 5 5 7 4 5 5 2 7 6 8 6 5 2 4 1 11 13 26 18 20 29 27
17 17 14 12 10 5 5 7 13 15 2 5 3 4 1 8 5 11 21 9 5 5 4 7 3 8 3 4 5 1 3 6 6 4 3 8 3 5 5 14 16 25 16 21 35
18 17 13 11 7 7 2 12 17 5 4 5 3 2 7 3 1 10 19 13 3 7 7 3 3 7 4 3 4 3 5 6 14 4 3 1 2 5 9 9 15 22 33 17 29
20 19 13 8 7 5 5 13 10 1 3 9 4 4 5 4 3 6 22 14 6 6 6 6 6 4 3 4 5 6 3 7 8 4 3 2 2 4 7 10 14 22 34 36 23
23 21 12 5 4 3 7 12 2 5 3 6 4 6 3 5 3 6 13 7 3 4 2 6 2 5 9 6 7 5 2 7 4 3 2 6 5 4 5 10 14 24 29 36 25
24 17 8 4 4 2 9 5 5 4 4 7 4 5 4 6 5 6 5 2 4 4 1 3 2 2 4 3 2 3 3 2 2 1 5 2 4 7 4 5 21 29 45 40 26
18 9 0 4 4 3 7 4 5 2 2 4 4 2 5 7 4 7 3 3 2 5 3 5 4 6 3 7 7 7 8 5 5 5 3 4 5 4 4 8 19 24 25 27 27
11 5 7 6 3 2 1 4 4 2 3 6 4 7 5 4 3 3 3 2 1 3 6 4 4 3 4 4 9 4 4 7 6 3 4 3 5 2 4 6 18 26 32 31 31
7 7 7 6 2 2 5 2 1 2 2 2 3 2 5 5 3 4 1 2 3 3 2 5 1 2 4 3 2 7 6 4 3 5 3 3 5 4 2 5 8 18 25 28 32
4 4 4 6 1 4 3 4 3 4 4 2 1 2 1 3 2 1 1 1 2 2 4 4 3 6 3 1 6 2 1 5 5 4 6 3 6 2 5 7 8 12 21 33 34
3 3 1 6 4 3 1 3 2 3 1 1 3 2 1 2 2 1 2 3 3 2 3 1 5 3 9 1 3 1 2 5 5 4 2 4 5 1 6 12 16 15 17 23 27
3 4 8 2 2 3 3 2 1 3 3 2 1 2 2 2 2 1 2 4 7 2 6 6 2 2 7 5 5 5 3 2 3 2 6 6 5 4 8 11 15 18 19 19 21
2 3 2 2 2 4 1 2 2 3 3 3 2 2 2 2 2 3 2 3 2 2 1 4 3 5 6 3 2 4 4 3 4 3 5 5 6 9 11 11 15 18 18 17 17
4 1 2 1 3 2 2 2 2 4 5 11 3 3 2 1 1 2 2 5 3 3 2 3 4 5 4 3 2 3 5 7 5 5 6 7 9 12 15 11 16 20 19 18 15
3 2 3 3 2 2 5 4 2 2 5 5 3 5 3 4 4 2 2 1 2 3 3 4 2 0 3 2 3 3 9 11 2 3 2 6 1 5 16 17 16 15 16 16 17
5 4 2 4 2 3 2 1 1 0 2 2 3 2 3 2 5 6 7 6 3 3 1 3 4 2 3 4 2 3 8 4 6 4 4 5 6 14 15 15 16 16 13 14 17

GFSSW_850_spd_099.txt.gz
Wind_Speed
11 10 9 9 10 9 9 9 8 7 7 7 7 7 8 7 9 10 13 7 12 20 19 17 14 15 13 7 4 3 2 3 6 7 4 10 7 6 7 17 8 2 21 23 29
11 10 10 9 9 8 8 10 10 7 6 7 6 7 8 9 10 13 7 10 16 23 23 20 17 17 7 5 4 4 1 2 4 5 10 11 12 11 10 13 12 21 20 28 27
12 12 11 10 9 9 8 7 8 9 7 6 6 6 7 7 8 2 2 14 19 24 21 17 16 9 4 4 4 1 1 6 11 4 6 16 13 9 18 8 15 29 29 26 25
13 13 12 11 9 8 7 7 7 7 7 7 5 5 5 4 2 3 0 13 20 22 22 18 17 6 3 3 1 3 2 7 3 5 6 14 13 14 5 3 19 30 32 28 24
14 14 12 11 8 7 8 8 5 6 6 6 6 4 4 5 4 2 2 16 21 22 23 18 17 6 4 3 1 5 5 15 11 5 3 11 11 14 6 18 25 26 26 24 21
15 16 15 12 10 8 7 6 5 3 3 4 5 5 4 3 3 2 3 19 22 26 22 16 12 7 5 3 3 4 8 11 7 10 7 7 8 12 7 25 24 25 23 22 21
14 15 15 13 11 9 6 4 4 4 4 2 3 4 6 6 3 4 10 19 21 22 22 14 14 6 4 4 3 7 10 12 5 14 7 8 3 5 15 25 25 22 21 19 18
14 14 14 12 11 9 6 5 5 6 5 2 3 4 4 5 5 7 13 18 18 16 11 12 13 5 3 4 3 7 4 7 8 12 15 10 8 8 12 24 24 21 20 19 18
15 14 13 11 8 7 8 6 5 5 5 3 0 2 1 3 7 11 13 11 14 13 8 14 6 3 2 2 3 1 3 5 8 10 5 5 1 10 17 20 22 21 19 19 18
16 15 13 10 7 7 9 4 6 3 1 4 3 1 3 2 8 14 14 9 13 14 8 6 4 4 2 4 4 4 2 3 9 7 13 12 14 18 18 16 21 22 20 19 20
17 16 14 11 8 8 7 2 6 3 8 7 6 5 4 5 7 15 13 13 12 11 5 5 7 10 9 4 3 3 8 8 12 10 7 4 6 20 24 17 20 21 20 20 22
17 17 16 12 8 4 4 3 5 5 6 6 9 13 11 5 4 13 19 5 9 11 8 6 14 7 4 3 4 6 8 6 9 8 4 6 6 9 22 24 24 21 20 22 19
17 18 17 13 9 2 2 4 11 11 1 4 3 2 3 9 6 13 22 9 10 9 10 12 5 8 5 6 6 3 1 5 6 6 7 11 2 4 17 15 20 21 17 21 24
19 20 18 13 4 3 4 9 13 4 2 7 2 1 4 5 4 16 20 10 4 11 7 6 4 12 5 5 5 3 3 8 15 8 3 6 4 13 15 18 18 26 26 17 23
21 21 16 6 6 1 2 11 6 2 2 9 3 2 1 1 7 9 21 5 9 8 5 5 10 11 8 6 3 2 5 10 8 4 1 7 4 3 18 15 21 27 34 29 19
23 20 11 3 2 2 5 9 2 2 3 4 4 5 3 5 3 7 12 6 4 6 1 3 2 6 7 3 7 6 8 9 4 3 3 3 6 8 12 24 19 27 32 36 27
22 13 3 4 5 2 7 2 1 3 3 6 4 5 4 5 3 3 11 8 4 6 7 3 3 2 2 8 2 6 8 3 2 4 3 2 6 6 8 10 20 28 36 36 34
15 6 7 7 3 3 5 1 4 2 3 3 3 3 4 7 3 3 10 8 3 2 4 7 7 7 6 7 6 11 12 5 6 4 3 2 5 1 3 7 10 25 31 27 31
7 11 10 6 2 6 3 3 1 1 2 5 1 4 4 3 3 1 2 8 5 6 3 5 5 1 6 5 9 5 8 1 2 1 4 2 3 5 3 3 13 23 23 26 31
8 12 9 6 4 5 3 2 0 2 3 1 3 3 5 6 2 2 1 2 2 2 3 6 2 0 3 4 2 6 10 9 4 7 8 3 4 3 5 6 11 19 27 26 26
5 5 4 3 6 5 3 2 2 3 3 3 2 2 2 3 4 3 2 1 0 1 0 6 3 4 2 6 9 6 6 2 6 4 10 7 4 1 6 9 12 16 21 24 26
3 3 2 1 3 3 2 0 2 3 1 1 2 2 3 2 3 3 1 2 2 2 4 1 3 6 6 2 4 2 5 12 8 10 5 7 5 1 3 8 11 13 14 18 21
3 4 4 3 2 3 0 1 2 2 3 1 1 2 1 2 1 2 2 2 3 1 1 2 1 4 5 4 3 2 2 1 2 1 12 12 7 2 6 8 11 13 14 15 17
2 2 3 2 4 2 1 2 2 2 3 2 2 2 2 0 1 1 3 2 5 1 5 2 1 4 6 0 1 3 2 0 5 9 11 9 5 8 11 11 11 12 11 13 16
3 2 2 2 3 4 2 1 2 4 4 10 3 6 2 1 1 1 1 3 2 1 2 1 1 1 3 5 2 1 1 2 7 9 9 12 8 11 15 14 16 14 13 13 15
3 3 5 3 2 1 2 3 4 3 5 4 4 7 1 0 3 4 3 1 2 1 2 2 1 2 3 4 2 4 3 5 1 7 9 7 8 5 18 16 16 17 15 16 17
4 6 3 2 2 0 1 2 3 1 1 1 3 3 1 2 4 6 6 3 1 1 2 0 3 3 5 3 2 5 4 4 3 4 5 6 3 18 17 20 20 16 15 14 16

GFSSW_850_spd_105.txt.gz
Wind_Speed
8 8 8 8 9 9 9 7 7 7 8 9 9 8 8 8 8 9 8 8 12 12 16 10 13 12 12 8 5 4 3 8 10 17 12 13 12 13 8 13 10 7 24 26 24
10 9 9 9 8 9 10 9 7 7 7 7 8 8 7 7 8 14 13 13 13 16 15 16 15 14 15 8 6 7 3 5 4 12 19 20 17 13 13 13 11 18 26 26 22
11 11 10 9 8 8 8 8 7 6 6 6 6 7 6 5 8 7 16 14 16 17 14 14 12 15 12 5 14 3 3 3 6 5 22 19 16 15 15 11 18 24 30 26 22
12 13 12 11 9 8 8 8 7 6 5 5 6 5 5 5 2 4 7 12 17 19 16 15 13 16 9 9 12 2 2 1 9 2 13 15 15 11 9 16 17 23 28 26 23
11 13 13 12 11 9 8 7 6 5 4 4 4 3 4 7 6 4 6 12 19 21 19 18 16 16 8 7 6 4 7 14 8 2 13 14 12 10 7 16 20 24 25 24 21
11 12 13 13 12 10 8 6 5 4 3 3 3 3 4 13 2 3 5 14 18 19 19 18 13 13 2 16 2 7 10 13 5 8 8 12 14 13 15 20 25 24 24 22 20
12 12 12 12 11 10 8 7 6 5 2 2 3 4 9 4 3 3 10 14 16 18 19 17 12 12 9 10 5 7 12 11 3 2 4 3 14 14 17 24 26 24 22 20 19
11 12 13 12 10 8 9 8 6 6 4 0 3 3 9 4 3 7 10 13 14 14 15 15 12 16 15 6 6 9 9 9 7 5 3 7 12 17 20 25 24 24 22 20 19
12 13 13 12 9 8 10 7 7 3 2 3 3 4 5 3 7 9 11 15 13 12 11 12 11 17 14 12 8 2 5 11 8 2 2 6 12 13 22 23 23 23 22 22 21
11 12 13 12 8 7 8 4 5 1 2 2 5 7 6 12 12 12 11 13 15 12 11 13 12 13 13 12 9 5 10 14 10 4 4 3 2 7 20 21 17 21 23 22 22
11 13 14 13 6 5 6 7 2 4 9 9 5 5 5 7 13 11 11 15 13 12 14 18 13 16 16 15 5 21 13 16 11 9 4 11 9 7 7 9 16 17 20 22 21
13 14 14 12 5 4 2 4 8 7 5 1 5 4 2 11 14 14 15 13 14 14 18 11 18 17 7 12 7 8 18 18 10 9 3 7 8 5 10 14 14 19 20 24 25
14 15 15 11 4 5 5 6 6 7 9 6 6 7 9 9 13 17 18 14 13 16 17 14 14 18 9 10 11 7 9 12 12 8 6 10 2 10 11 17 14 20 15 27 28
16 16 13 6 2 3 4 3 7 6 6 9 8 5 6 9 8 17 17 10 10 14 12 15 13 16 7 14 10 6 21 18 15 18 7 16 2 1 14 11 17 24 18 20 28
18 18 9 6 4 5 1 6 7 3 3 3 6 3 9 10 17 14 16 10 11 11 9 13 9 9 13 15 11 9 3 28 29 9 15 20 6 9 20 19 21 30 28 22 24
19 9 0 4 6 4 5 8 4 8 3 5 5 6 11 11 7 12 16 11 10 10 11 13 8 10 17 8 4 5 2 5 7 10 7 16 14 15 19 28 29 36 34 32 31
8 4 6 11 3 4 7 6 8 3 3 5 4 11 13 3 8 12 14 15 10 11 11 13 10 15 16 12 10 9 13 4 4 8 3 1 9 8 23 24 30 34 40 40 31
6 8 8 3 3 6 6 11 5 6 10 3 4 5 6 6 5 14 12 14 17 13 10 13 13 15 11 14 12 14 13 7 6 5 5 14 4 8 16 23 29 37 42 41 36
8 6 1 2 5 7 11 10 5 3 2 2 8 10 8 6 6 7 11 14 10 13 14 12 15 17 13 15 15 15 15 13 8 3 9 11 12 15 13 14 26 33 37 41 37
5 5 4 4 6 8 12 8 5 4 3 9 2 2 4 4 8 6 9 4 0 6 12 9 9 12 10 11 17 17 11 15 13 13 16 12 11 11 5 10 14 18 31 36 35
5 5 2 4 8 15 3 7 6 4 7 10 3 2 1 1 3 5 11 3 1 1 8 14 11 8 9 14 14 12 11 11 16 15 15 7 3 16 21 12 13 17 19 33 32
9 1 1 4 11 4 6 5 5 7 3 1 4 9 6 6 8 3 3 8 7 12 8 13 9 11 15 13 17 18 19 17 11 14 12 15 5 8 10 11 10 12 16 23 27
9 7 2 7 5 6 3 6 4 0 4 4 2 5 2 4 6 5 1 5 4 10 5 8 10 10 12 8 5 10 15 15 18 14 14 12 5 10 10 9 7 10 20 21 22
7 5 6 3 3 6 5 2 8 1 4 3 4 4 5 4 4 5 8 7 4 7 9 7 14 13 4 9 11 17 18 14 16 12 14 12 9 15 12 11 10 10 13 22 23
10 3 5 2 5 6 4 2 3 1 1 2 6 4 5 6 2 3 4 5 9 7 7 9 16 9 1 7 11 10 13 15 14 17 15 10 10 5 16 13 13 14 12 10 15
6 2 4 5 2 6 6 3 5 2 3 3 5 6 6 8 4 6 7 7 3 12 12 12 11 3 12 8 10 13 8 9 8 13 14 18 18 12 19 15 15 14 13 13 14
3 3 9 7 5 7 9 4 6 4 3 4 6 8 9 4 5 9 8 9 7 6 10 10 10 9 13 11 10 13 14 10 13 14 14 15 16 13 6 7 9 12 11 12 14

GFSSW_850_spd_108.txt.gz
Wind_Speed
10 10 10 10 10 9 8 8 8 8 9 9 8 9 9 10 10 10 10 9 14 7 14 10 11 13 11 6 4 5 3 5 6 16 12 20 19 15 22 15 21 13 25 23 21
11 12 12 11 11 11 10 8 8 8 8 8 7 7 8 10 12 17 13 13 16 11 15 14 14 13 16 11 9 5 2 3 5 14 13 18 16 15 5 12 18 27 24 24 22
13 13 13 13 12 10 10 9 8 7 7 7 7 6 6 7 10 4 12 18 14 15 16 12 13 15 14 9 8 5 4 6 9 10 22 23 19 20 20 14 21 30 26 24 21
13 14 14 14 13 12 10 9 8 7 6 6 5 6 5 5 2 1 3 13 15 15 16 15 16 17 9 10 6 7 14 4 20 8 16 17 19 14 14 22 26 24 24 23 21
13 14 14 14 13 12 10 9 7 6 5 4 4 4 4 7 12 5 6 9 16 20 17 17 15 17 8 4 7 7 3 18 3 6 5 17 13 12 19 26 26 24 23 22 21
13 14 14 13 12 11 10 9 8 7 5 4 4 4 3 11 1 6 3 7 16 19 17 17 13 14 3 8 3 6 9 7 2 8 6 4 17 10 23 22 27 26 23 22 20
12 13 14 13 11 9 9 8 8 8 7 4 4 5 8 14 3 4 6 9 14 17 17 16 16 11 9 5 8 10 11 8 3 7 6 1 14 13 17 24 27 24 23 22 20
12 13 14 13 11 9 11 8 6 5 5 3 3 4 8 3 8 7 9 10 13 15 15 14 14 14 17 12 1 7 6 9 2 6 4 4 6 18 21 25 25 24 22 20 19
11 13 14 14 12 9 10 8 7 3 3 1 2 4 12 5 12 10 11 13 13 13 13 13 15 14 18 11 7 4 4 8 0 9 5 3 9 13 23 25 24 23 22 21 20
12 13 14 14 12 9 10 9 7 4 4 6 6 9 13 10 11 11 12 13 13 12 10 9 10 13 15 10 8 8 6 9 3 3 8 3 9 14 22 23 25 24 23 23 22
12 13 14 14 11 7 9 8 5 3 9 11 13 11 2 9 7 12 13 13 14 12 13 17 12 15 18 10 4 16 7 5 13 8 3 5 2 5 8 19 19 22 22 18 22
13 14 15 14 10 6 7 5 9 9 14 13 7 7 4 5 10 13 13 14 13 13 16 13 16 18 18 7 7 12 14 12 9 7 3 4 6 9 9 15 7 5 20 23 19
14 15 14 12 8 5 6 10 9 9 9 4 5 9 6 8 13 15 16 18 14 15 16 17 13 19 20 14 14 8 16 13 9 6 6 3 3 7 8 10 14 7 3 14 25
16 16 14 6 3 5 10 4 7 8 6 8 8 5 5 10 10 14 16 15 8 13 16 15 18 14 17 14 12 12 15 20 24 13 5 15 2 3 9 14 12 13 14 15 9
19 18 8 8 3 3 3 6 8 5 1 4 8 2 5 12 12 15 14 17 14 12 11 11 13 13 13 6 7 9 18 15 17 9 9 16 4 4 14 16 20 21 23 20 16
17 7 1 3 4 3 5 8 6 6 0 4 5 8 7 11 7 14 13 16 14 13 13 17 9 8 14 4 13 21 16 16 9 5 5 15 10 7 14 24 22 30 28 26 22
7 3 4 6 1 3 6 7 5 6 9 4 9 4 14 4 9 7 12 13 11 10 11 13 8 11 7 16 9 8 20 7 6 5 11 15 13 11 28 24 23 26 37 36 32
3 4 2 3 6 5 7 10 8 18 7 1 6 6 7 4 4 9 12 12 16 18 10 12 12 14 16 19 10 12 16 6 4 5 4 11 8 4 22 32 34 25 29 34 36
4 5 2 3 3 4 10 3 5 8 6 1 7 10 5 7 4 6 13 12 15 16 14 9 14 16 11 15 10 13 14 13 7 5 8 5 6 6 18 20 27 32 30 36 40
9 10 5 2 3 5 8 6 7 8 6 8 7 6 0 11 5 7 5 2 7 13 10 4 10 14 14 12 18 15 7 13 11 7 9 4 4 6 12 16 23 26 36 39 42
12 9 1 4 6 12 7 6 3 5 11 9 4 11 10 1 5 8 2 8 6 10 9 8 7 6 10 10 13 12 11 11 15 10 9 4 0 13 12 5 13 28 36 38 42
11 8 3 3 14 12 7 5 6 6 4 7 7 6 8 7 7 7 3 2 11 13 12 11 9 7 12 10 14 16 16 12 7 10 10 7 7 11 10 25 28 12 43 39 40
9 9 5 6 6 1 5 3 8 12 6 8 6 5 9 7 6 7 3 6 3 8 10 11 6 9 13 6 13 14 14 16 16 14 13 9 7 17 21 20 6 15 12 33 31
10 3 7 8 6 7 5 4 6 3 2 6 7 6 6 9 6 3 14 3 4 9 8 6 13 13 7 6 11 8 12 13 14 12 12 10 17 15 19 11 11 17 27 27 25
10 14 4 5 5 8 10 4 6 1 2 2 5 3 9 7 13 7 13 5 10 5 7 5 12 13 6 7 12 15 11 15 18 15 13 9 13 18 13 12 14 17 28 28 24
13 16 2 5 2 9 6 3 8 6 1 6 4 10 9 11 9 3 11 7 8 5 10 12 11 10 8 8 12 11 5 16 9 16 12 12 3 15 13 13 10 8 16 20 23
8 9 10 5 7 9 7 7 8 4 2 5 5 8 12 8 12 12 13 12 4 3 4 12 11 9 12 6 9 10 12 10 10 8 7 10 14 7 7 14 16 4 7 13 13

GFSSW_850_spd_111.txt.gz
Wind_Speed
13 13 13 13 11 10 9 8 8 8 8 7 7 8 10 11 10 13 14 8 7 6 9 10 14 14 11 8 4 9 3 2 5 3 8 24 13 8 22 35 25 15 27 29 29
14 14 15 14 12 11 10 9 8 8 7 7 7 7 8 11 13 17 9 12 13 7 13 14 11 10 17 13 6 4 2 5 10 16 18 25 25 13 17 19 23 29 27 30 38
14 15 15 15 15 13 10 9 9 8 7 7 6 6 7 8 11 6 4 13 12 11 15 13 13 12 13 11 7 6 4 2 16 21 20 21 19 15 20 15 30 29 29 36 29
14 15 15 15 14 13 11 9 8 7 7 6 6 5 6 5 1 4 4 5 11 12 18 15 17 19 8 8 8 5 9 5 15 20 19 11 18 8 19 28 37 32 29 33 24
14 15 16 15 14 13 11 10 9 8 6 5 5 5 5 4 10 4 7 5 12 15 20 15 14 17 10 2 4 7 13 9 10 20 9 22 13 6 27 36 34 32 28 27 19
13 14 15 15 13 11 11 10 9 9 8 6 5 4 3 5 1 5 4 5 10 18 21 14 13 11 6 9 5 13 30 28 25 12 1 15 16 22 28 33 30 30 26 24 17
12 14 15 15 13 10 11 11 9 8 7 5 4 5 8 16 2 5 7 5 11 16 16 12 15 17 8 2 2 8 9 13 9 8 7 17 15 19 31 32 28 24 23 23 26
11 13 14 16 14 10 10 10 8 6 5 5 2 3 8 3 12 2 9 3 12 8 14 16 15 18 9 10 5 4 3 5 7 11 5 13 2 16 32 32 27 28 26 26 23
11 13 14 15 14 11 10 10 7 6 5 5 2 7 9 4 11 13 13 11 8 11 11 13 16 13 15 4 3 7 4 6 8 9 1 4 4 10 28 30 25 27 24 26 26
11 12 14 15 14 11 10 11 9 7 5 6 7 9 7 11 8 12 16 14 15 14 15 17 4 1 5 2 5 6 5 7 5 3 6 4 2 3 25 25 23 26 25 26 27
12 13 15 15 14 11 9 10 8 2 7 10 11 6 8 9 8 6 11 12 14 15 5 6 2 7 12 11 10 8 11 8 7 6 3 3 7 7 15 18 21 24 27 29 28
13 15 15 15 12 8 8 9 11 11 10 15 13 15 8 2 4 9 12 10 9 7 9 4 9 12 14 16 14 12 16 5 6 11 5 5 6 13 10 8 9 10 27 30 30
16 16 15 13 7 2 4 7 8 12 6 11 14 10 11 7 12 13 11 18 9 7 8 9 13 17 15 15 19 2 7 4 5 8 3 2 4 8 4 10 11 5 3 25 33
18 19 15 5 1 4 9 9 11 11 3 6 6 3 7 7 7 15 13 17 6 11 11 9 17 13 14 7 17 10 3 9 15 6 5 3 2 5 10 12 12 12 8 11 20
20 15 7 5 4 4 10 7 10 7 4 11 5 2 4 10 5 16 9 15 12 11 6 11 10 8 8 9 10 10 18 18 15 5 5 8 4 5 14 18 17 19 19 13 15
16 9 2 3 3 5 10 10 7 2 2 6 5 5 5 15 10 20 12 14 19 11 10 9 15 6 6 19 14 27 14 10 4 0 3 10 5 4 8 26 24 24 24 20 19
11 5 1 4 4 7 7 12 2 3 3 5 5 8 8 7 7 9 7 6 4 1 6 8 9 6 3 13 21 21 10 3 1 2 2 6 7 11 12 14 29 30 33 36 31
9 4 3 1 2 4 7 5 2 9 8 4 5 4 6 5 6 6 8 6 11 8 7 5 4 5 5 10 14 14 12 4 4 1 2 4 2 6 11 26 18 13 38 32 33
8 10 12 5 2 2 11 3 1 7 9 11 5 6 6 7 3 3 7 8 9 10 6 5 4 8 12 11 7 6 8 12 5 2 1 4 3 8 14 3 16 17 30 31 33
13 16 16 3 3 7 3 6 4 8 10 11 3 4 3 7 6 4 8 7 11 6 10 7 5 7 13 8 8 6 6 2 1 6 4 5 3 5 3 5 6 17 29 31 32
12 9 4 6 6 11 4 3 4 7 8 5 7 6 6 6 4 2 3 7 14 11 16 7 4 10 1 4 5 3 4 4 1 3 5 5 5 6 7 7 6 10 25 31 37
7 4 6 3 6 7 2 5 1 3 3 3 4 6 4 4 3 4 11 6 6 11 7 8 3 4 8 7 9 7 7 6 4 8 3 5 4 9 3 11 6 8 18 30 35
10 15 10 6 3 4 4 4 5 8 10 9 9 9 6 4 3 3 2 11 5 6 3 7 4 4 9 8 9 1 6 5 4 2 5 1 4 5 9 13 30 27 7 31 42
5 4 4 13 17 6 3 1 5 3 2 7 4 9 6 6 10 5 4 5 5 3 3 3 3 8 5 7 8 9 13 10 1 3 6 4 4 1 4 4 7 14 16 36 41
3 6 22 2 7 7 7 5 6 2 4 1 4 5 7 7 5 7 10 6 9 4 1 0 3 2 6 5 10 10 11 14 8 8 2 3 7 7 2 5 18 41 24 28 32
5 13 21 13 3 6 2 3 6 10 6 7 7 12 9 6 3 7 8 7 2 5 5 6 4 5 5 7 6 6 11 12 10 15 9 16 11 5 17 12 24 31 25 8 20
8 14 10 12 6 3 2 5 7 8 0 3 7 4 8 10 16 15 14 19 12 2 1 0 3 5 5 6 4 3 7 7 10 19 10 10 5 11 9 11 3 17 7 30 18

GFSSW_850_spd_114.txt.gz
Wind_Speed
14 15 15 14 12 10 9 7 7 6 6 6 6 7 8 9 9 11 12 7 10 3 5 10 15 12 7 3 5 8 3 4 2 4 3 17 21 10 21 35 21 9 29 33 33
14 15 15 14 13 11 9 8 7 7 6 6 6 6 7 9 10 12 6 7 11 7 9 14 18 12 4 7 6 4 1 3 4 6 6 16 17 21 18 23 16 25 28 34 34
14 15 15 15 14 12 10 9 8 7 7 6 5 5 6 7 7 3 3 10 14 10 11 14 9 7 8 9 7 4 2 3 9 4 12 10 20 22 23 14 28 37 38 39 38
14 15 15 14 13 13 12 11 10 9 7 6 5 5 6 4 2 2 4 1 11 11 12 15 11 4 7 7 10 7 12 10 7 6 4 14 19 21 27 18 35 36 36 36 37
13 15 15 15 13 11 11 11 10 9 8 6 5 5 5 4 7 1 6 1 11 13 15 16 12 7 4 3 9 8 17 18 12 13 13 22 12 9 15 34 36 35 37 40 38
13 14 15 16 14 11 10 11 10 9 9 6 5 4 3 3 4 2 5 1 8 14 17 20 10 2 9 4 3 11 16 16 11 14 9 7 10 16 27 32 34 37 38 37 33
11 12 14 15 15 12 11 12 10 9 8 7 5 5 7 9 2 2 5 7 7 14 20 21 13 10 12 3 9 15 7 5 4 1 6 7 11 14 33 32 26 34 34 31 33
11 12 14 15 16 13 11 11 10 8 6 7 4 7 6 3 4 9 5 5 8 12 20 13 8 15 10 10 5 5 5 4 4 4 5 3 7 22 35 30 23 31 24 24 33
11 12 14 15 15 13 10 10 10 7 5 4 5 7 6 4 8 11 8 6 7 9 17 10 8 8 5 5 4 5 4 4 2 10 5 6 4 14 30 29 25 27 24 31 35
11 13 13 14 15 12 9 12 10 8 6 6 7 8 5 3 2 8 16 13 7 9 8 9 5 1 3 4 3 5 5 2 4 3 4 6 2 4 25 29 28 27 24 30 31
12 13 14 14 13 10 5 9 10 3 11 9 16 14 13 9 8 5 9 14 17 6 4 4 3 5 4 3 1 9 7 5 4 1 4 2 11 6 10 2 20 30 24 31 35
14 15 15 13 10 4 4 6 7 8 10 17 15 17 13 7 1 5 8 6 9 6 4 4 6 9 5 8 14 8 12 3 3 4 2 3 11 4 8 6 6 2 26 36 34
16 17 15 9 2 2 4 4 9 14 4 12 10 11 9 5 4 7 7 9 2 2 4 7 7 10 10 13 12 10 7 5 3 5 5 3 3 4 2 8 10 6 6 32 38
19 17 9 2 3 3 8 11 12 7 4 6 2 3 8 4 4 16 15 10 2 10 7 6 17 10 12 11 14 6 9 13 7 2 3 4 3 5 6 10 9 15 5 24 38
19 13 6 2 1 4 10 10 9 6 4 3 3 4 3 5 3 8 17 11 6 6 1 10 5 6 7 16 11 6 13 12 6 4 2 5 4 5 4 11 14 16 15 15 34
18 10 4 3 2 4 7 11 10 5 2 5 1 2 0 4 6 16 11 10 5 5 6 10 13 5 7 17 9 18 13 11 5 3 2 6 2 7 5 12 18 15 23 20 27
15 8 2 1 3 4 10 10 5 4 4 4 5 2 2 3 3 6 5 3 3 4 5 8 5 4 21 17 8 15 6 3 0 1 5 5 4 8 7 9 17 20 25 28 25
12 7 5 5 3 4 13 5 5 4 4 7 3 5 2 2 4 3 4 1 4 3 2 2 7 12 4 12 14 14 6 6 4 2 2 6 5 6 11 10 26 37 33 32 29
10 12 9 3 5 3 6 4 3 2 5 7 5 7 6 6 2 3 2 1 4 5 5 1 5 3 9 8 15 6 5 7 6 2 3 4 5 9 8 2 14 23 25 27 38
14 16 2 7 6 5 3 4 3 2 5 6 4 4 5 6 7 4 2 2 4 3 5 3 2 2 7 10 11 12 7 3 2 5 4 4 4 7 4 10 10 10 16 26 30
15 8 4 9 7 3 2 5 1 2 2 2 3 1 1 3 1 1 5 3 4 6 5 1 3 8 3 1 9 1 1 3 4 4 5 3 6 7 9 8 15 22 27 31 34
10 4 4 10 3 2 2 5 5 9 7 7 8 3 2 6 5 2 2 1 10 5 3 3 4 2 6 7 4 3 2 4 5 5 2 4 5 6 7 4 12 12 30 33 37
13 7 4 11 2 2 7 3 3 3 4 5 5 4 6 5 3 4 5 9 4 3 2 5 3 4 9 7 9 6 6 4 2 2 3 5 5 5 10 9 11 14 9 25 31
6 3 6 8 10 2 3 2 1 3 4 2 3 8 6 5 4 2 7 5 6 2 3 4 3 6 5 7 2 4 9 5 4 3 3 5 2 4 12 13 23 24 7 5 22
2 3 3 4 7 1 1 2 7 2 7 10 6 5 2 6 7 6 4 7 8 7 5 4 2 2 9 9 3 1 5 13 5 5 5 3 5 4 6 9 17 30 34 24 9
3 4 8 12 11 10 2 2 6 3 3 3 5 4 6 5 2 2 4 3 2 10 2 4 1 2 1 7 7 1 14 13 9 6 6 6 9 6 8 9 22 22 15 32 31
6 4 4 7 8 5 3 5 3 4 3 7 5 3 5 3 6 10 12 12 7 4 4 4 2 3 4 5 4 7 6 12 12 11 3 9 5 8 10 17 21 18 8 8 22

GFSSW_850_spd_117.txt.gz
Wind_Speed
14 14 14 13 12 10 9 8 7 5 5 5 6 6 7 7 8 10 10 4 10 10 12 11 14 10 5 1 1 4 4 1 3 8 2 12 11 15 5 24 14 2 27 31 28
14 15 15 14 13 12 10 9 8 7 7 5 5 6 7 7 8 11 4 7 12 9 13 13 12 10 2 1 2 4 2 2 4 2 3 14 20 20 13 17 19 23 26 29 30
14 15 15 15 14 13 12 11 10 9 7 6 5 5 6 5 4 2 1 10 14 12 15 13 13 8 4 5 4 2 5 4 5 3 4 4 7 19 27 12 29 33 34 32 30
13 14 15 15 14 13 12 12 11 11 9 6 5 5 5 2 4 3 4 8 17 15 15 14 10 4 3 4 8 5 4 9 2 1 3 2 10 6 27 13 34 34 38 37 35
12 13 14 16 15 12 12 12 11 10 9 7 5 5 5 3 2 3 3 8 15 16 17 17 10 5 2 2 8 3 9 9 4 8 6 9 9 5 13 30 33 34 33 36 36
11 12 14 15 15 13 12 12 12 10 9 8 6 5 3 2 4 4 6 3 12 17 19 17 8 6 6 6 2 8 8 5 1 6 10 7 6 12 15 33 37 38 37 37 37
11 12 13 14 15 14 12 12 12 9 8 9 7 5 5 3 3 1 1 2 4 14 16 18 11 4 8 1 5 17 7 7 7 2 6 10 4 9 30 36 38 36 35 32 38
11 12 13 14 14 13 12 11 11 9 8 7 6 9 4 9 4 5 3 2 4 9 13 9 9 7 3 8 6 2 6 3 6 9 7 9 4 13 36 33 31 29 30 33 36
11 12 13 14 14 11 10 11 12 8 7 7 7 8 2 5 8 8 3 2 4 7 7 9 3 4 3 3 4 6 6 4 2 8 5 3 5 14 27 31 31 29 29 35 31
12 13 13 13 12 8 7 10 8 6 6 7 5 5 4 8 3 7 9 6 2 3 4 4 4 3 3 4 2 4 7 4 3 3 3 4 5 6 18 21 28 29 32 31 34
13 13 14 12 9 3 4 9 10 3 15 7 12 7 8 9 3 6 11 8 5 0 3 2 1 4 5 4 1 5 9 6 2 6 1 3 3 6 3 4 8 23 30 31 36
16 16 14 8 2 4 5 10 10 9 10 10 8 10 8 8 3 6 11 7 4 4 0 5 4 5 2 6 11 8 9 5 3 2 2 7 9 0 5 3 3 1 20 32 33
18 17 10 3 7 3 6 10 15 17 2 8 6 6 1 2 3 2 7 8 3 4 2 4 4 7 5 10 9 2 5 7 5 3 2 4 5 5 5 7 4 5 11 30 37
19 15 6 5 6 2 6 13 14 6 5 6 3 1 2 3 2 7 7 4 3 8 4 4 6 6 9 5 6 5 1 7 12 4 2 2 2 7 11 7 4 11 10 24 40
17 12 2 4 3 3 9 12 14 2 4 3 2 1 2 4 1 6 12 6 4 3 4 7 2 4 6 11 6 3 11 9 4 4 1 4 0 4 8 9 11 12 18 21 39
15 10 2 3 2 4 9 12 5 5 3 6 2 0 1 3 2 3 8 4 4 2 1 8 11 7 7 4 7 14 10 4 3 4 3 5 4 5 7 14 14 15 24 20 36
12 8 1 3 2 5 12 9 5 5 4 6 3 1 1 3 2 3 4 3 3 3 3 5 2 4 18 14 4 6 4 3 4 2 4 0 3 8 13 12 23 22 25 26 33
9 8 5 5 4 7 13 4 7 3 4 5 4 3 4 7 4 2 3 1 1 3 1 1 3 5 8 7 11 9 5 6 2 2 3 2 5 6 10 20 30 32 38 33 30
11 12 0 6 4 5 7 5 5 4 3 4 4 6 4 4 1 3 1 4 1 4 6 3 5 5 6 3 13 5 4 2 7 2 0 3 5 8 5 5 10 19 28 40 36
12 10 2 7 6 4 5 3 3 4 3 4 3 3 2 5 7 4 2 3 3 1 4 1 1 4 2 7 7 5 7 3 2 4 4 3 5 6 2 8 6 16 31 31 39
10 3 0 2 4 2 3 5 5 4 5 3 2 4 1 3 2 3 3 3 3 6 6 1 2 4 1 2 8 2 2 3 4 4 4 1 5 6 7 7 8 7 22 33 35
6 3 2 4 2 2 1 5 4 3 4 5 4 2 4 4 5 5 3 4 11 2 3 3 4 1 3 5 4 7 3 4 4 3 1 3 3 9 10 9 11 5 9 18 41
9 4 1 4 1 3 5 5 3 2 2 2 5 4 2 4 3 3 5 11 10 1 0 2 3 3 7 7 6 6 2 0 3 3 3 4 2 9 10 16 15 9 2 12 16
4 3 3 1 2 3 3 4 3 3 6 8 2 6 4 7 5 4 6 4 12 6 4 4 2 5 5 5 3 4 5 2 5 4 2 4 4 10 12 12 16 17 15 11 11
2 2 2 3 5 6 2 3 3 3 3 4 5 4 4 4 4 5 4 6 5 12 6 4 2 1 4 7 2 2 3 7 6 3 3 3 5 7 5 5 8 13 20 23 17
3 4 3 5 9 6 5 1 4 3 3 1 5 3 3 4 5 3 0 0 1 6 4 6 0 5 4 7 6 4 5 7 5 3 6 5 8 5 7 8 11 8 15 23 20
4 3 3 3 4 3 1 4 6 8 1 7 6 5 3 3 2 1 7 11 5 1 2 3 2 3 3 3 4 6 6 6 2 6 4 4 1 2 10 15 18 12 11 15 20

GFSSW_850_spd_120.txt.gz
Wind_Speed
14 14 14 14 13 12 10 9 8 6 6 6 6 5 5 6 7 9 8 5 8 11 13 14 15 11 6 1 3 1 2 3 3 5 3 14 6 15 7 18 9 2 24 26 25
14 15 15 14 13 13 13 11 10 8 6 5 6 6 5 5 7 7 3 9 10 12 13 15 16 11 3 1 1 4 3 1 3 3 2 6 11 6 9 12 10 22 25 26 27
12 14 16 15 14 12 12 12 12 10 9 7 5 5 5 4 1 2 1 10 15 12 12 12 13 7 2 0 2 2 3 4 10 8 7 3 10 4 20 4 14 31 32 30 26
11 13 14 15 15 13 12 12 12 11 10 8 6 5 4 1 5 3 2 12 15 13 13 14 11 5 2 1 4 2 4 7 4 7 5 4 1 7 14 5 28 32 32 31 27
10 11 13 14 15 13 13 12 12 11 10 9 7 5 3 1 2 3 2 11 16 15 13 14 12 4 1 2 5 2 2 8 5 4 6 8 5 4 13 15 29 29 31 30 27
11 12 12 13 14 13 12 12 12 10 9 10 7 6 3 1 1 5 7 8 12 13 13 12 6 4 2 2 0 5 9 8 6 2 6 6 3 10 14 24 29 30 31 28 27
11 12 13 13 13 13 11 10 11 10 9 9 8 7 2 3 6 4 4 2 6 8 9 13 8 5 4 1 6 12 5 5 2 2 2 10 6 7 26 31 33 32 31 29 29
12 13 13 13 12 11 10 10 11 9 8 9 9 7 2 5 5 3 2 2 3 7 7 10 8 4 2 11 4 3 3 1 6 3 4 5 5 5 34 34 29 29 30 30 32
13 13 14 13 11 8 9 11 9 7 7 8 7 5 3 3 6 4 4 3 5 7 12 11 6 0 5 3 3 5 2 4 3 6 4 2 3 9 31 32 27 27 29 29 29
14 14 14 12 8 5 9 10 6 5 9 5 7 3 5 5 2 5 5 5 5 9 8 6 4 3 3 4 2 3 3 3 3 4 1 5 5 9 21 25 28 25 27 26 30
15 15 14 9 2 3 10 7 7 3 9 5 8 5 4 8 3 3 7 7 3 3 3 3 4 4 7 6 3 6 6 4 3 2 5 3 4 8 8 13 17 21 25 29 33
16 15 10 3 5 6 10 9 11 9 9 4 4 6 5 2 2 6 8 4 3 2 2 5 1 7 4 6 8 4 7 4 2 11 5 3 6 3 3 2 12 23 25 31 32
17 13 7 5 5 6 8 12 15 13 1 5 3 3 1 2 2 6 9 4 3 2 3 4 1 5 4 4 7 4 2 3 1 6 2 5 4 5 4 5 5 13 27 31 35
16 10 5 6 4 2 5 16 15 8 5 6 3 0 3 2 0 6 8 2 3 4 5 2 1 5 5 4 2 6 3 7 8 3 2 2 2 8 10 7 6 14 17 32 36
14 8 5 5 1 3 9 15 11 3 5 6 3 1 2 2 1 5 8 2 4 3 5 6 3 4 4 6 4 2 8 7 3 3 3 4 2 3 12 14 13 15 19 25 36
12 7 3 3 3 3 8 13 3 5 2 6 2 2 2 2 2 4 4 3 0 3 1 7 2 6 9 3 7 11 6 4 3 2 1 4 4 4 7 21 18 16 22 26 34
8 7 2 4 3 5 11 4 5 5 4 7 3 4 3 3 2 2 4 2 2 2 2 4 2 2 8 9 3 3 6 2 3 3 3 5 3 9 7 14 25 24 25 27 34
7 7 6 7 5 8 12 5 6 3 4 4 3 3 4 5 5 2 3 1 2 2 1 2 3 7 4 5 7 5 6 5 4 2 4 4 6 5 7 14 32 33 33 31 34
9 8 2 2 4 7 6 5 5 3 4 4 3 6 6 5 1 4 3 1 4 6 5 2 4 1 6 4 6 5 3 3 5 3 2 4 6 5 3 6 13 24 25 35 39
8 1 0 3 5 8 4 3 3 5 3 2 3 1 3 5 3 4 2 2 3 2 6 2 2 3 3 6 1 5 5 2 2 5 4 5 2 4 10 8 7 12 23 29 33
5 2 4 1 2 3 3 4 5 4 2 3 2 3 1 2 3 2 2 2 2 2 3 1 2 4 3 3 6 2 1 2 2 3 4 2 2 6 12 8 6 5 13 21 31
3 2 4 1 2 2 1 4 4 3 3 5 4 2 3 4 5 4 3 3 13 1 1 1 3 1 3 4 2 5 4 5 4 3 1 2 3 8 10 10 4 5 7 17 31
7 1 2 1 1 2 5 4 4 1 3 3 3 3 4 3 3 3 4 8 11 4 3 2 2 2 7 6 4 4 2 3 3 3 4 4 4 8 12 13 15 7 9 14 21
3 2 2 3 2 3 3 4 2 4 3 6 3 4 4 5 4 2 5 3 9 7 7 4 3 3 6 6 3 4 5 1 3 3 4 4 3 8 10 12 16 14 4 13 17
3 1 0 1 2 2 1 2 2 3 3 3 3 2 4 2 2 3 2 6 4 14 4 4 2 0 3 3 3 1 5 4 3 2 2 7 7 0 4 6 12 14 11 6 7
4 3 3 2 4 2 1 1 5 2 5 1 6 2 2 4 7 6 2 1 2 6 4 4 1 2 2 5 6 3 6 4 4 5 7 10 5 4 7 6 10 12 14 14 8
4 3 3 3 2 2 2 3 3 1 3 7 11 5 3 4 5 1 4 8 3 1 2 3 2 2 3 4 5 3 2 4 3 3 2 5 3 6 4 7 8 8 10 12 10

GFSSW_850_spd_123.txt.gz
Wind_Speed
14 14 14 14 13 12 11 10 9 7 5 4 3 4 5 5 6 5 4 4 9 10 15 13 14 9 4 2 3 1 2 6 5 8 6 10 7 4 5 16 7 0 14 17 25
13 14 15 14 12 12 11 11 10 10 8 6 4 3 3 3 4 3 3 7 9 14 13 14 15 9 2 1 2 3 3 4 4 2 7 9 14 6 8 14 6 13 18 24 23
12 13 14 15 13 12 11 11 11 10 9 7 5 3 3 1 4 3 2 9 11 14 12 13 13 4 2 2 2 2 3 6 6 5 9 11 10 4 14 8 8 26 24 24 21
10 11 13 14 13 12 12 11 11 10 9 8 5 4 2 4 4 2 1 11 14 12 14 13 9 3 1 2 2 3 5 4 3 6 6 7 3 12 11 3 14 22 26 24 19
9 10 11 13 13 12 11 11 11 9 9 9 6 5 3 3 4 3 1 12 12 13 14 11 8 2 2 1 3 3 5 6 5 6 9 3 4 6 11 8 22 22 22 21 18
9 10 11 11 12 11 10 10 10 9 9 9 7 6 4 5 8 9 7 11 10 11 13 12 5 2 3 4 3 5 8 9 7 6 7 4 2 9 10 20 22 24 22 20 18
10 10 11 11 11 10 9 10 10 8 9 9 7 5 6 5 8 8 11 6 6 8 11 12 11 4 2 5 6 10 5 6 9 7 5 7 6 9 17 24 23 23 21 19 18
12 11 11 11 9 8 8 10 9 7 7 8 8 7 5 6 4 4 6 4 5 8 9 11 8 3 2 10 4 3 3 3 5 6 5 6 11 7 21 26 25 22 21 19 20
12 12 12 10 7 6 9 10 6 5 7 7 7 6 4 2 1 1 2 5 11 12 8 10 5 3 5 4 3 2 3 3 4 2 3 6 4 1 22 26 24 23 21 20 17
13 13 11 7 4 7 11 6 3 4 6 4 8 4 5 3 4 3 7 6 7 16 10 5 3 2 1 4 2 3 4 2 3 3 2 2 6 4 21 22 25 24 20 19 19
14 13 9 3 5 9 13 6 5 3 6 3 3 1 3 7 5 6 10 7 10 5 4 3 3 5 7 7 2 4 4 6 3 3 4 3 4 10 19 19 19 21 20 20 22
15 12 6 6 8 9 12 9 10 5 4 4 2 2 1 2 5 10 10 3 2 6 7 4 4 4 2 4 4 4 6 5 4 6 1 2 2 6 7 16 20 24 23 23 20
15 10 6 8 8 5 11 15 14 8 1 3 3 1 1 3 3 9 11 4 3 3 4 7 2 4 5 4 6 3 2 2 2 7 2 4 3 4 3 5 11 23 25 25 23
13 7 6 7 4 3 7 15 11 6 2 6 2 2 2 2 3 7 9 2 2 4 4 2 2 5 6 5 5 5 4 9 9 7 1 1 3 6 10 11 11 17 23 26 26
10 4 6 5 2 3 7 14 8 2 3 7 1 2 1 1 4 5 8 2 3 6 4 3 5 5 5 5 8 1 6 9 7 3 3 5 3 2 10 18 17 18 22 27 28
8 6 5 3 2 4 9 16 4 1 3 2 2 2 0 2 1 4 3 3 2 3 1 4 1 3 3 3 7 13 8 5 4 2 3 6 6 4 9 27 23 25 23 25 28
6 4 1 4 2 5 11 6 1 3 2 4 2 3 2 3 3 2 3 3 1 2 1 2 2 1 5 8 10 5 7 2 3 4 1 6 6 9 10 10 28 30 29 27 28
5 5 3 5 5 5 11 1 3 2 2 1 2 1 3 5 3 2 4 2 3 3 3 3 5 9 7 4 7 13 11 3 3 3 2 4 5 1 9 7 25 35 38 31 28
7 4 4 1 2 6 2 3 1 2 2 2 1 4 3 3 2 2 2 1 2 5 3 3 1 4 7 6 8 6 9 2 0 0 3 2 4 5 14 11 1 24 27 29 31
6 4 2 1 4 7 1 0 2 3 3 1 2 1 2 5 0 1 1 1 1 2 4 1 2 2 6 8 5 3 8 4 4 3 2 4 3 4 15 14 7 10 26 31 26
2 3 4 1 5 2 2 1 3 3 3 1 2 2 2 1 2 2 2 2 6 3 2 2 2 3 6 6 7 4 4 2 4 3 2 3 3 5 8 10 9 11 20 25 24
1 2 5 1 1 2 1 2 4 2 2 2 3 2 2 2 2 1 1 1 8 2 3 2 1 1 2 4 4 3 3 8 6 2 1 3 1 4 4 7 10 3 11 19 23
6 0 4 1 1 0 2 3 4 2 1 2 2 2 2 2 0 1 2 3 8 1 2 1 1 2 4 2 3 1 2 2 0 0 8 6 1 4 6 8 10 8 6 7 19
4 1 1 2 4 2 0 2 2 1 2 3 4 2 2 1 2 1 2 2 6 5 4 1 1 2 4 2 1 1 3 2 3 4 6 7 2 1 6 8 10 11 7 1 9
3 1 1 2 2 2 2 1 3 4 2 1 2 1 3 3 1 2 1 3 0 9 2 1 0 2 0 5 1 2 3 5 1 3 4 2 4 1 5 5 9 11 10 10 7
3 2 2 1 2 3 3 4 6 4 6 4 4 5 3 3 4 3 1 1 1 3 3 3 1 1 3 3 7 5 5 5 4 3 2 1 3 2 3 5 7 12 13 17 12
4 3 2 1 2 3 3 2 2 4 2 4 9 5 3 2 4 3 3 5 3 3 2 2 1 1 4 4 6 10 6 2 3 4 3 7 2 6 2 6 9 10 11 12 11